     2              OBSERVATION DATA    GPS                 RINEX VERSION / TYPE
teqc 1999Jul19 19991123 03:13:49UTC                         PGM / RUN BY / DATE
                                                            COMMENT
Original Marker Name: 1010                                  COMMENT
Campaign Name: HPGN 1991                                    COMMENT
4-Character Station Name: 1010                              COMMENT
6-Character Antenna Code: TRMSST                            COMMENT
Vertical Measurement Point: BPA                             COMMENT
Vertical Offset to Rinex Ref. Point: 0.0000                 COMMENT
Radial Measurement Point: RRP                               COMMENT
Radial Offset to Rinex Ref. Point: 0.0000                   COMMENT
Antenna Height from Field Measurement: 2.2200 m             COMMENT
                                                            COMMENT
Original XYZ: -2599219.9638 -4298101.3855 3917594.7717      COMMENT
New XYZ position is based on association with SCEC monument COMMENT
E1F8V2K9+0011. Position of that monument is believed to be  COMMENT
valid to within 1 m horizontally; vertical accuracy         COMMENT
should be no worse than 3-times this value.                 COMMENT
                                                            COMMENT
Revised Rinex header created by UCSD GPS archive for        COMMENT
GSAC on 10-Mar-2000 (2000:070) 17:30:54 GMT                 COMMENT
For assistance contact dagnew@ucsd.edu or hjohnson@ucsd.edu COMMENT
                                                            COMMENT
HPGN CA 10 10                                               MARKER NAME
1010                                                        MARKER NUMBER
-Unknown- CALIF DEPT TRANSPORTATION                         OBSERVER / AGENCY
486 TRIMBLE 4000 SST NP 4.30 / SP 4.20                      REC # / TYPE / VERS
17 TR 4000SST L1/L2 GEO                                     ANT # / TYPE
 -2599221.4662 -4298102.3938  3917589.4945                  APPROX POSITION XYZ
        2.2200        0.0000        0.0000                  ANTENNA: DELTA H/E/N
     1     1     0                                          WAVELENGTH FACT L1/2
     5    C1    L1    L2    S1    S2                        # / TYPES OF OBSERV
     0                                                      INTERVAL
  1991     5    21    17    47   45.000000                  TIME OF FIRST OBS
  1991     5    21    23    51   60.000000                  TIME OF LAST OBS
                                                            END OF HEADER
 91  5 21 17 47 45.0000000  0  4G18G 2G11G19
  20649834.117          -0.39717        -0.29232        27.500           2.250
  24400679.891          -0.07815        -0.40431        10.000           0.375
  24455221.734          -0.37715        -0.28931        11.750           0.281
  20746436.563          -0.78417        -0.13432        23.000           1.688
 91  5 21 17 48  0.0000000  0  4G18G 2G11G19
  20651375.281        8090.636 7      6304.38822        27.500           2.219
  24389221.203      -60213.840 5    -46920.08521        10.250           0.438
  24446012.008      -48397.297 6    -37712.08621        12.000           0.281
  20743980.641      -12905.604 7    -10055.83422        23.250           1.594
 91  5 21 17 48 15.0000000  0  4G18G 2G11G19
  20652931.133       16271.205 7     12678.83722        27.500           2.313
  24377765.695     -120415.773 5    -93830.54121        10.750           0.344
  24436810.992      -96747.647 6    -75387.60121        12.000           0.313
  20741531.250      -25772.341 7    -20081.86122        23.000           1.719
 91  5 21 17 48 30.0000000  0  4G18G 2G11G19
  20654505.461       24547.134 7     19127.59122        27.500           2.313
  24366312.484     -180600.008 5   -140727.22221        10.750           0.344
  24427620.523     -145045.325 6   -113022.07821        12.000           0.375
  20739090.633      -38595.356 7    -30073.82422        23.500           1.656
 91  5 21 17 48 45.0000000  0  4G18G 2G11G19
  20656098.930       32919.659 7     25651.61922        27.000           2.344
  24354865.992     -240765.251 5   -187609.09621        11.250           0.375
  24418438.023     -193288.749 5   -150614.26621        11.500           0.281
  20736660.109      -51373.423 7    -40030.76022        23.250           1.563
 91  5 21 17 49  0.0000000  0  4G18G 2G11G19
  20657712.078       41397.208 7     32257.47722        27.500           2.313
  24343418.414     -300902.557 5   -234469.21121        10.750           0.344
  24409269.883     -241468.745 6   -188157.04021        12.000           0.281
  20734236.625      -64097.767 7    -49945.83522        23.500           1.625
 91  5 21 17 49 15.0000000  0  4G18G 2G11G19
  20659343.563       49970.832 7     38938.19922        27.250           2.344
  24331980.094     -361020.954 5   -281314.55621        10.750           0.344
  24400113.648     -289594.148 6   -225657.25121        12.000           0.313
  20731823.977      -76777.626 7    -59826.24122        22.500           1.625
 91  5 21 17 49 30.0000000  0  4G18G 2G11G19
  20660995.563       58648.121 7     45699.70222        27.250           2.406
  24320546.102     -421112.440 5   -328138.97621        10.500           0.344
  24390965.273     -337656.912 5   -263108.68421        11.750           0.375
  20729420.578      -89405.439 7    -69666.09922        23.500           1.656
 91  5 21 17 49 45.0000000  0  4G18G 2G11G19
  20662665.766       67427.150 7     52540.48122        27.250           2.281
  24309117.617     -481178.708 5   -374943.71621        10.750           0.219
  24381835.023     -385658.323 6   -300512.28921        12.750           0.344
  20727029.813     -101983.151 7    -79466.91322        23.250           1.719
 91  5 21 17 50  0.0000000  0  4G18G 2G11G19
  20664355.828       76307.425 7     59460.15622        27.250           2.219
  24297687.578     -541220.137 5   -421729.12721        10.000           0.250
  24372711.109     -433598.512 6   -337868.17421        13.000           0.281
  20724644.703     -114511.277 7    -89229.08622        23.500           1.656
 91  5 21 17 50 15.0000000  0  4G18G 2G11G19
  20666065.219       85292.093 7     66461.16522        27.750           2.375
  24286269.227     -601233.366 5   -468492.55621        10.000           0.250
  24363601.508     -481474.057 6   -375173.69821        13.250           0.375
  20722272.219     -126986.742 7    -98950.22822        23.250           1.688
 91  5 21 17 50 30.0000000  0  4G18G 2G11G19
  20667794.844       94380.850 7     73543.28722        27.750           2.250
  24274853.938     -661218.264 5   -515233.93321         9.750           0.188
  24354498.969     -529284.620 6   -412428.58421        12.500           0.250
  20719906.500     -139409.783 7   -108630.51622        23.750           1.781
 91  5 21 17 50 45.0000000  0  4G18G 2G11G19
  20669542.125      103567.431 7     80701.64122        27.750           2.344
  24263441.711     -721181.004 5   -561957.99821         8.750           0.281
  24345413.891     -577036.212 6   -449637.51821        13.000           0.313
  20717553.102     -151786.869 7   -118274.99722        23.250           1.781
 91  5 21 17 51  0.0000000  0  4G18G 2G11G19
  20671312.305      112858.761 8     87941.60822        28.000           2.281
  24252037.008     -781114.369 5   -608659.18821         9.250           0.313
  24336342.898     -624721.361 6   -486794.70521        13.500           0.313
  20715207.648     -164110.863 7   -127878.11122        22.250           1.656
 91  5 21 17 51 15.0000000  0  4G18G 2G11G19
  20673097.938      122256.451 7     95264.46322        27.500           2.344
  24240638.875     -841016.624 5   -655336.15321         9.750           0.250
  24327279.773     -672338.094 6   -523898.51621        13.500           0.375
  20712872.055     -176380.257 7   -137438.67422        22.500           1.656
 91  5 21 17 51 30.0000000  0  4G18G 2G11G19
  20674907.180      131757.582 8    102667.91422        28.000           2.344
  24229246.148     -900890.254 5   -701990.81321         9.500           0.344
  24318230.148     -719888.744 6   -560950.89121        13.250           0.406
  20710544.180     -188597.785 7   -146958.83022        23.000           1.750
 91  5 21 17 51 45.0000000  0  4G18G 2G11G19
  20676734.633      141360.517 8    110150.70022        28.000           2.344
  24217857.281     -960736.969 5   -748624.49621         9.750           0.281
  24309191.938     -767374.657 6   -597952.80621        12.250           0.344
  20708231.297     -200765.406 7   -156440.09722        23.000           1.719
 91  5 21 17 52  0.0000000  0  4G18G 2G11G19
  20678580.172      151056.797 7    117706.21522        27.500           2.281
  24206469.281    -1020564.672 5   -795243.35921         9.500           0.281
  24300170.570     -814803.748 6   -634910.42921        13.250           0.344
  20705922.797     -212891.373 7   -165888.90822        23.250           1.719
 91  5 21 17 52 15.0000000  0  4G18G 2G11G19
  20680444.477      160853.036 7    125339.62122        27.750           2.281
  24195091.359    -1080366.788 5   -841842.31321        10.000           0.375
  24291156.328     -862169.079 6   -671818.39421        13.250           0.375
  20703626.492     -224969.324 7   -175300.30022        23.000           1.750
 91  5 21 17 52 30.0000000  0  4G18G 2G11G19
  20682327.578      170748.583 7    133050.41822        27.750           2.375
  24183717.297    -1140143.695 5   -888421.59321        10.250           0.219
  24282155.289     -909470.988 6   -708676.92121        13.500           0.406
  20701336.055     -236999.897 7   -184674.78122        23.250           1.750
 91  5 21 17 52 45.0000000  0  4G18G 2G11G19
  20684230.594      180743.395 8    140838.55522        28.000           2.281
  24172345.039    -1199894.946 5   -934980.90721         9.750           0.250
  24273164.539     -956708.778 6   -745485.49921        13.250           0.344
  20699056.141     -248982.778 7   -194012.09422        22.500           1.719
 91  5 21 17 53  0.0000000  0  4G18G 2G11G19
  20686150.516      190841.309 7    148707.03222        27.750           2.219
  24160979.063    -1259616.763 5   -981517.28421        10.250           0.344
  24264186.719    -1003878.513 6   -782241.02721        12.750           0.375
  20696782.484     -260914.436 7   -203309.49322        23.250           1.688
 91  5 21 17 53 15.0000000  0  4G18G 2G11G19
  20688091.797      201040.406 7    156654.35422        27.750           2.406
  24149621.789    -1319310.702 5  -1028031.92321        10.250           0.250
  24255225.063    -1050981.474 6   -818944.54321        12.750           0.406
  20694524.250     -272796.833 7   -212568.51122        22.500           1.781
 91  5 21 17 53 30.0000000  0  4G18G 2G11G19
  20690049.992      211332.706 8    164674.30822        28.250           2.219
  24138264.867    -1378984.316 5  -1074530.74721         9.750           0.344
  24246273.906    -1098025.037 6   -855601.76021        13.000           0.406
  20692267.906     -284637.771 7   -221795.22022        22.750           1.719
 91  5 21 17 53 45.0000000  0  4G18G 2G11G19
  20692026.898      221714.406 8    172763.91822        28.500           2.344
  24126913.047    -1438641.516 5  -1121016.74821         9.750           0.406
  24237331.898    -1145012.710 6   -892215.43221        13.250           0.438
  20690025.125     -296441.090 7   -230992.61222        22.500           1.719
 91  5 21 17 54  0.0000000  0  4G18G 2G11G19
  20694021.070      232197.260 8    180932.35322        28.000           2.156
  24115565.930    -1498270.659 5  -1167480.91621         9.750           0.500
  24228403.148    -1191932.715 6   -928776.38621        12.750           0.406
  20687788.000     -308195.537 7   -240151.92222        23.250           1.750
 91  5 21 17 54 15.0000000  0  4G18G 2G11G19
  20696036.180      242783.798 8    189181.57622        28.250           2.313
  24104225.688    -1557868.555 5  -1213920.72921         9.500           0.344
  24219487.344    -1238781.685 6   -965281.97221        13.000           0.344
  20685560.844     -319898.145 7   -249270.84022        22.250           1.625
 91  5 21 17 54 30.0000000  0  4G18G 2G11G19
  20698070.430      253476.111 8    197513.22522        28.250           2.344
  24092891.328    -1617432.774 5  -1260334.28421         9.750           0.219
  24210586.078    -1285556.977 6  -1001730.16421        12.750           0.438
  20683343.391     -331546.793 7   -258347.71122        22.750           1.719
 91  5 21 17 54 45.0000000  0  4G18G 2G11G19
  20700122.734      264265.838 8    205920.77922        28.250           2.313
  24081557.984    -1676971.323 5  -1306727.88721         9.750           0.281
  24201696.836    -1332266.556 6  -1038127.15121        12.250           0.344
  20681135.656     -343149.617 7   -267388.87522        22.250           1.719
 91  5 21 17 55  0.0000000  0  4G18G 2G11G19
  20702195.281      275151.120 8    214402.79322        28.500           2.375
  24070237.484    -1736486.133 5  -1353102.94521        10.750           0.250
  24192821.758    -1378911.914 6  -1074474.09321        13.000           0.344
  20678936.625     -354708.814 7   -276396.05522        23.250           1.719
 91  5 21 17 55 15.0000000  0  5G18G 2G11G19G16
  20704285.164      286139.824 8    222965.39422        28.250           2.438
  24058917.094    -1795969.102 5  -1399453.22921        10.750           0.250
  24183960.781    -1425484.883 6  -1110764.61521        13.250           0.344
  20676747.938     -366216.650 7   -285363.20022        22.750           1.656
  24279074.602      -43829.249 5                         9.250
 91  5 21 17 55 30.0000000  0  5G18G 2G11G19G16
  20706396.367      297226.792 8    231604.56422        28.500           2.313
  24047602.094    -1855425.158 5  -1445782.52021        10.750           0.250
  24175109.211    -1471990.196 6  -1147002.44821        13.250           0.250
  20674563.367     -377678.215 7   -294294.29622        23.250           1.719
  24270758.625      -87561.611 5                         9.500
 91  5 21 17 55 45.0000000  0  5G18G 2G11G19G16
  20708524.414      308407.353 8    240316.66422        28.250           2.219
  24036292.188    -1914858.565 5  -1492094.18921        11.000           0.281
  24166270.641    -1518431.843 6  -1183190.64721        13.750           0.313
  20672393.469     -389097.998 7   -303192.83322        22.500           1.750
  24262452.625     -131202.121 5                         9.500
 91  5 21 17 56  0.0000000  0  5G18G 2G11G19G16
  20710669.578      319681.651 8    249101.80822        28.500           2.313
  24024988.250    -1974268.934 5  -1538387.88321        11.000           0.406
  24157447.805    -1564809.443 6  -1219328.97721        14.000           0.250
  20670224.766     -400475.975 7   -312058.79722        23.500           1.688
  24254162.727     -174750.085 5                         9.250
 91  5 21 17 56 15.0000000  0  5G18G 2G11G19G16
  20712831.977      331053.120 8    257962.66822        28.500           2.344
  24013685.430    -2033652.567 5  -1584660.75621        10.500           0.344
  24148632.680    -1611119.049 6  -1255414.29621        13.500           0.250
  20668071.680     -411808.564 7   -320889.39422        22.250           1.688
  24245891.828     -218201.886 5                         9.250
 91  5 21 17 56 30.0000000  0  5G18G 2G11G19G16
  20715016.336      342523.863 8    266900.88422        28.250           2.375
  24002391.664    -2093007.371 5  -1630911.14521        10.750           0.313
  24139834.961    -1657358.273 6  -1291444.78121        13.750           0.281
  20665922.836     -423093.884 7   -329683.15922        23.000           1.688
  24237641.477     -261555.164 5        -0.27731         9.000           0.344
 91  5 21 17 56 45.0000000  0  5G18G 2G11G19G16
  20717218.727      354099.284 8    275920.66122        28.500           2.375
  23991103.344    -2152327.434 5  -1677134.49321        10.500           0.281
  24131049.906    -1703521.014 6  -1327415.66421        13.500           0.313
  20663787.813     -434326.315 7   -338435.71122        22.750           1.719
  24229412.320     -304804.219 5    -33700.79721         8.750           0.406
 91  5 21 17 57  0.0000000  0  5G18G 2G11G19G16
  20719441.063      365773.624 8    285017.52922        28.500           2.344
  23979820.852    -2211618.530 5  -1723335.25321        10.250           0.281
  24122279.547    -1749612.689 6  -1363331.16821        13.500           0.375
  20661656.883     -445511.707 7   -347151.60922        23.250           1.656
  24221204.461     -347954.502 5    -67324.33921         9.000           0.344
 91  5 21 17 57 15.0000000  0  5G18G 2G11G19G16
  20721680.883      377544.794 8    294189.84122        28.500           2.375
  23968542.969    -2270882.572 5  -1769514.92321        11.000           0.281
  24113521.852    -1795635.050 6  -1399192.68421        13.500           0.344
  20659539.492     -456652.259 7   -355832.56722        22.250           1.625
  24213009.398     -391007.950 5   -100872.42721         9.000           0.344
 91  5 21 17 57 30.0000000  0  5G18G 2G11G19G16
  20723938.227      389413.832 8    303438.41622        28.000           2.344
  23957267.680    -2330118.130 5  -1815672.40721        10.750           0.375
  24104777.688    -1841586.445 6  -1434998.89921        13.750           0.344
  20657427.258     -467746.625 7   -364477.53822        22.500           1.625
  24204837.523     -433963.070 5   -134343.89621         9.250           0.344
 91  5 21 17 57 45.0000000  0  5G18G 2G11G19G16
  20726216.828      401382.158 8    312764.36022        28.250           2.344
  23946001.148    -2389323.637 5  -1861806.49021        11.250           0.281
  24096046.203    -1887465.145 6  -1470748.47421        13.750           0.406
  20655324.164     -478793.543 7   -373085.53822        22.000           1.656
  24196681.984     -476818.304 5   -167737.54121         9.250           0.438
 91  5 21 17 58  0.0000000  0  5G18G 2G11G19G16
  20728512.648      413451.496 8    322169.00822        28.000           2.375
  23934745.813    -2448496.960 5  -1907915.48521        11.000           0.375
  24087330.539    -1933268.980 6  -1506439.70221        13.750           0.344
  20653229.867     -489791.249 7   -381655.19022        23.000           1.656
  24188547.766     -519571.440 5   -201051.60921         9.000           0.313
 91  5 21 17 58 15.0000000  0  5G18G 2G11G19G16
  20730828.688      425619.629 8    331650.64222        28.250           2.469
  23923487.016    -2507640.021 5  -1954000.87721        10.750           0.313
  24078628.711    -1978999.670 6  -1542073.93621        14.250           0.375
  20651147.289     -500742.091 7   -390188.32122        22.250           1.719
  24180426.563     -562224.189 5   -234287.46221         8.750           0.344
 91  5 21 17 58 30.0000000  0  5G18G 2G11G19G16
  20733165.023      437889.411 8    341211.48022        28.250           2.438
  23912239.320    -2566749.950 5  -2000060.50021        11.500           0.344
  24069940.797    -2024654.006 6  -1577648.67921        14.250           0.406
  20649075.758     -511643.293 7   -398682.77622        21.500           1.688
  24172331.055     -604773.845 5   -267442.99421         9.000           0.406
 91  5 21 17 58 45.0000000  0  5G18G 2G11G19G16
  20735516.758      450255.531 8    350847.38922        28.000           2.406
  23900997.711    -2625831.766 6  -2046098.20521        12.000           0.313
  24061265.391    -2070236.795 6  -1613167.68021        13.000           0.344
  20647009.375     -522499.939 7   -407142.50722        22.250           1.625
  24164252.523     -647225.162 5   -300521.92721         8.750           0.344
 91  5 21 17 59  0.0000000  0  5G18G 2G11G19G16
  20737887.930      462720.386 7    360560.23523        27.750           2.500
  23889760.063    -2684882.872 6  -2092111.97521        12.000           0.250
  24052606.773    -2115745.309 6  -1648628.78621        14.000           0.469
  20644950.086     -533309.810 7   -415565.79022        21.750           1.656
  24156192.461     -689575.541 5   -333522.15621         8.500           0.375
 91  5 21 17 59 15.0000000  0  5G18G 2G11G19G16
  20740279.672      475286.168 7    370351.71923        27.750           2.500
  23878530.180    -2743900.912 5  -2138099.96421        11.750           0.250
  24043960.219    -2161176.818 6  -1684029.89921        14.250           0.375
  20642903.867     -544070.514 7   -423950.75522        22.250           1.719
  24148150.430     -731822.547 5   -366441.83821         8.000           0.344
 91  5 21 17 59 30.0000000  0  5G18G 2G11G19G16
  20742690.938      487955.082 8    380223.56723        28.000           2.500
  23867304.570    -2802883.214 5  -2184060.10121        11.750           0.219
  24035330.266    -2206528.670 6  -1719368.95021        13.500           0.344
  20640864.336     -554779.992 7   -432295.80922        21.500           1.656
  24140137.719     -773963.622 5   -399279.01321         8.500           0.344
 91  5 21 17 59 45.0000000  0  5G18G 2G11G19G16
  20745121.758      500726.465 7    390175.26422        27.750           2.344
  23856085.938    -2861830.216 6  -2229992.73221        12.000           0.250
  24026713.750    -2251801.106 6  -1754646.11021        13.250           0.344
  20638836.063     -565438.863 7   -440601.42822        21.750           1.688
  24132131.117     -815999.135 5   -432033.90621         8.250           0.375
 91  5 21 18  0  0.0000000  0  5G18G 2G11G19G16
  20747570.313      513594.414 8    400202.20823        28.000           2.500
  23844876.109    -2920747.618 5  -2275902.32821        11.750           0.344
  24018115.164    -2296999.487 6  -1789865.56021        13.500           0.469
  20636817.250     -576052.914 7   -448872.13222        21.750           1.656
  24124155.781     -857934.632 5   -464710.86521         8.500           0.281
 91  5 21 18  0 15.0000000  0  5G18G 2G11G19G16
  20750037.992      526559.930 8    410305.17922        28.000           2.469
  23833669.773    -2979634.046 5  -2321787.76721        11.500           0.281
  24009527.453    -2342122.306 6  -1825026.13921        13.250           0.406
  20634804.297     -586621.001 7   -457107.01622        22.500           1.656
  24116193.914     -899768.692 5   -497308.79321         8.500           0.375
 91  5 21 18  0 30.0000000  0  5G18G 2G11G19G16
  20752523.320      539619.646 7    420481.54823        27.750           2.500
  23822471.117    -3038492.708 6  -2367651.55521        12.250           0.375
  24000954.383    -2387172.510 6  -1860130.11921        13.250           0.563
  20632803.359     -597146.534 7   -465308.73722        21.750           1.656
  24108254.500     -941504.358 5   -529830.04521         8.500           0.375
 91  5 21 18  0 45.0000000  0  5G18G 2G11G19G16
  20755025.984      552777.047 7    430734.03522        27.750           2.469
  23811274.695    -3097319.704 6  -2413490.70121        12.000           0.438
  23992396.586    -2432146.178 6  -1895174.48321        13.250           0.469
  20630806.828     -607625.883 7   -473474.46922        22.000           1.688
  24100329.875     -983137.890 5   -562271.72521         8.250           0.281
 91  5 21 18  1  0.0000000  0  5G18G 2G11G19G16
  20757546.883      566029.538 7    441060.62022        27.250           2.438
  23800086.172    -3156117.698 5  -2459307.21721        11.750           0.406
  23983852.438    -2477045.582 6  -1930160.97321        13.750           0.469
  20628820.648     -618061.924 7   -481606.45822        21.750           1.656
  24092426.586    -1024671.879 5   -594635.82121         8.500           0.281
 91  5 21 18  1 15.0000000  0  5G18G 2G11G19G16
  20760089.234      579382.001 7    451465.10222        27.500           2.438
  23788905.328    -3214881.313 6  -2505096.95021        12.250           0.406
  23975323.945    -2521865.320 6  -1965085.37621        13.000           0.500
  20626845.883     -628449.487 7   -489700.67722        22.000           1.750
  24084541.250    -1066100.909 5   -626918.14721         8.500           0.219
 91  5 21 18  1 30.0000000  0  5G18G 2G11G19G16
  20762647.398      592826.424 7    461941.24323        27.250           2.531
  23777729.031    -3273618.642 6  -2550866.20121        13.000           0.406
  23966807.961    -2566613.148 6  -1999953.74221        12.750           0.438
  20624875.117     -638796.833 7   -497763.55022        22.000           1.563
  24076674.453    -1107432.872 5   -659124.83421         8.750           0.313
 91  5 21 18  1 45.0000000  0  5G18G 2G11G19G16
  20765223.914      606363.543 7    472489.61522        27.250           2.469
  23766555.328    -3332328.555 6  -2596614.10121        12.250           0.313
  23958307.234    -2611287.891 6  -2034765.16321        13.250           0.406
  20622916.500     -649103.173 7   -505794.47822        22.250           1.625
  24068824.703    -1148666.777 5   -691255.10421         8.250           0.281
 91  5 21 18  2  0.0000000  0  5G18G 2G11G19G16
  20767819.563      620000.979 7    483116.15423        27.500           2.531
  23755388.484    -3391003.142 6  -2642334.48021        12.250           0.344
  23949821.375    -2655881.347 6  -2069513.25221        12.750           0.438
  20620961.758     -659360.832 7   -513787.46522        22.000           1.563
  24061009.859    -1189794.369 5   -723302.53421         9.000           0.219
 91  5 21 18  2 15.0000000  0  5G18G 2G11G19G16
  20770431.477      633735.181 7    493818.09122        27.000           2.406
  23744229.570    -3449645.594 6  -2688029.80121        13.000           0.438
  23941349.789    -2700396.496 6  -2104200.32221        13.000           0.469
  20619019.164     -669573.211 7   -521745.18022        22.250           1.594
  24053199.328    -1230819.033 5   -755269.76221         8.500           0.250
 91  5 21 18  2 30.0000000  0  5G18G 2G11G19G16
  20773064.547      647569.954 7    504598.40523        26.750           2.500
  23733078.516    -3508251.975 6  -2733697.02721        13.000           0.375
  23932895.078    -2744829.257 6  -2138823.18521        13.000           0.438
  20617085.547     -679736.609 7   -529664.71622        22.500           1.719
  24045408.297    -1271736.806 5   -787153.70321         8.250           0.219
 91  5 21 18  2 45.0000000  0  5G18G 2G11G19G16
  20775716.711      661499.363 7    515452.45022        27.000           2.438
  23721930.547    -3566827.954 6  -2779340.56321        12.500           0.406
  23924453.805    -2789185.085 6  -2173386.10421        12.750           0.438
  20615160.016     -689856.962 7   -537550.71022        22.250           1.625
  24037647.898    -1312553.116 5   -818958.57321         8.500           0.250
 91  5 21 18  3  0.0000000  0  5G18G 2G11G19G16
  20778385.547      675528.922 7    526384.54022        26.500           2.438
  23710790.836    -3625367.755 6  -2824955.89921        12.250           0.438
  23916027.227    -2833457.845 6  -2207884.31021        12.500           0.406
  20613242.008     -699928.536 7   -545398.69722        22.250           1.688
  24029891.320    -1353262.212 5   -850679.89821         8.500           0.219
 91  5 21 18  3 15.0000000  0  5G18G 2G11G19G16
  20781075.703      689659.520 7    537395.35822        27.000           2.469
  23699658.391    -3683870.326 6  -2870542.23721        12.250           0.438
  23907620.719    -2877646.305 6  -2242316.79321        12.750           0.469
  20611336.219     -709950.526 7   -553208.05022        22.250           1.656
  24022167.820    -1393862.823 5   -882316.70221         8.500           0.281
 91  5 21 18  3 30.0000000  0  5G18G 2G11G19G16
  20783781.844      703889.564 7    548483.67222        27.000           2.438
  23688533.484    -3742336.672 6  -2916100.32221        13.000           0.406
  23899229.281    -2921751.473 6  -2276684.38821        13.250           0.438
  20609440.633     -719924.263 7   -560979.79622        21.750           1.625
  24014467.297    -1434356.224 5   -913869.97121         9.000           0.281
 91  5 21 18  3 45.0000000  0  5G18G 2G11G19G16
  20786510.813      718224.464 7    559653.69022        27.000           2.469
  23677414.281    -3800761.089 6  -2961625.76921        12.500           0.344
  23890849.922    -2965767.425 6  -2310982.46921        13.000           0.500
  20607550.297     -729844.203 7   -568709.62622        22.000           1.656
  24006781.023    -1474736.796 5   -945335.30321         9.750           0.344
 91  5 21 18  4  0.0000000  0  5G18G 2G11G19G16
  20789256.938      732660.029 7    570902.14422        26.750           2.406
  23666306.109    -3859147.877 6  -3007121.87321        13.000           0.500
  23882491.039    -3009698.146 6  -2345214.13721        12.500           0.438
  20605671.844     -739714.849 7   -576401.04822        22.750           1.688
  23999124.680    -1515008.505 5   -976715.82121         9.750           0.219
 91  5 21 18  4 15.0000000  0  5G18G 2G11G19G16
  20792022.727      747194.547 7    582227.71122        26.750           2.406
  23655199.164    -3917498.503 6  -3052589.80221        12.750           0.438
  23874146.336    -3053545.066 6  -2379380.49921        13.000           0.281
  20603803.359     -749538.007 7   -584055.46022        22.500           1.656
  23991474.859    -1555172.873 5  -1008012.68421         9.750           0.344
 91  5 21 18  4 30.0000000  0  5G18G 2G11G19G16
  20794806.711      761824.101 7    593627.32923        26.500           2.500
  23644104.969    -3975816.372 6  -3098032.21921        13.250           0.438
  23865821.469    -3097311.343 6  -2413484.02221        13.500           0.531
  20601941.922     -759317.077 7   -591675.52322        22.250           1.688
  23983855.727    -1595233.163 5  -1039228.44721        10.250           0.281
 91  5 21 18  4 45.0000000  0  5G18G 2G11G19G16
  20797610.453      776555.535 7    605106.33522        26.750           2.438
  23633012.258    -4034094.734 6  -3143443.84021        13.250           0.438
  23857506.711    -3140990.027 6  -2447519.29421        12.750           0.500
  20600090.383     -769045.536 7   -599256.14422        22.250           1.719
  23976253.063          -0.54015                        10.000
 91  5 21 18  5  0.0000000  0  5G18G 2G11G19G16
  20800430.055      791377.442 7    616655.84022        27.000           2.469
  23621928.352    -4092344.633 6  -3188833.28821        13.250           0.469
  23849208.930    -3184592.000 6  -2481494.78221        12.500           0.500
  20598245.961     -778734.971 7   -606806.35522        22.250           1.656
  23968669.141      -39850.182 5                        10.000
 91  5 21 18  5 15.0000000  0  5G18G 2G11G19G16
  20803268.461      806287.815 7    628274.28022        26.750           2.406
  23610850.055    -4150567.676 6  -3234201.81421        13.250           0.438
  23840927.516    -3228118.583 6  -2515411.53921        12.500           0.469
  20596409.836     -788387.007 7   -614327.42922        22.250           1.656
  23961104.781      -79601.702 5        -0.10331        10.250           0.281
 91  5 21 18  5 30.0000000  0  5G18G 2G11G19G16
  20806124.859      821293.937 7    639967.32722        27.000           2.438
  23599775.305    -4208756.167 6  -3279543.39721        13.250           0.594
  23832660.508    -3271561.932 6  -2549263.42421        12.500           0.438
  20594580.508     -797994.196 7   -621813.55522        22.750           1.656
  23953558.367     -119247.337 5    -30892.76421         9.750           0.219
 91  5 21 18  5 45.0000000  0  5G18G 2G11G19G16
  20808998.148      836399.275 7    651737.68222        26.750           2.406
  23588709.742    -4266906.794 6  -3324855.50021        13.250           0.438
  23824408.344    -3314918.410 6  -2583047.63921        12.500           0.531
  20592763.594     -807553.339 7   -629262.24422        22.250           1.781
  23946033.055     -158783.528 5    -61700.15221        10.250           0.344
 91  5 21 18  6  0.0000000  0  5G18G 2G11G19G16
  20811891.195      851601.087 7    663583.22022        27.000           2.438
  23577650.188    -4325021.856 6  -3370139.87921        12.750           0.531
  23816174.023    -3358190.208 6  -2616765.86021        12.500           0.594
  20590952.703     -817066.975 7   -636675.47022        22.500           1.656
  23938534.953     -198212.505 5    -92423.99421        10.250           0.313
 91  5 21 18  6 15.0000000  0  5G18G 2G11G19G16
  20814802.258      866897.715 7    675502.63622        27.000           2.469
  23566600.273    -4383102.827 6  -3415397.67021        13.250           0.531
  23807954.719    -3401378.561 6  -2650419.05721        12.500           0.563
  20589150.883     -826536.708 7   -644054.48822        22.250           1.688
  23931049.891     -237535.513 5   -123065.25121        10.250           0.406
 91  5 21 18  6 30.0000000  0  5G18G 2G11G19G16
  20817731.422      882292.071 7    687498.20522        27.000           2.375
  23555552.336    -4441146.533 6  -3460626.47121        13.000           0.531
  23799755.063    -3444480.124 6  -2684004.61821        12.500           0.469
  20587356.633     -835959.438 7   -651396.87622        22.250           1.719
  23923587.383     -276749.402 5   -153621.47721        10.250           0.219
 91  5 21 18  6 45.0000000  0  5G18G 2G11G19G16
  20820680.547      897788.369 7    699573.21322        27.000           2.344
  23544515.742    -4499148.315 6  -3505822.57421        13.250           0.500
  23791568.414    -3487490.166 6  -2717518.86921        13.000           0.438
  20585573.945     -845331.035 7   -658699.42522        22.500           1.656
  23916146.914     -315849.939 5   -184089.41821        10.250           0.313
 91  5 21 18  7  0.0000000  0  5G18G 2G11G19G16
  20823646.828      913381.159 7    711723.40423        27.000           2.594
  23533485.898    -4557113.229 6  -3550989.97121        13.000           0.500
  23783402.813    -3530413.405 6  -2750965.48121        12.500           0.531
  20583799.039     -854656.737 7   -665966.21022        22.250           1.625
  23908725.172     -354842.015 5   -214472.79121        10.250           0.281
 91  5 21 18  7 15.0000000  0  5G18G 2G11G19G16
  20826632.719      929067.426 7    723946.43622        27.000           2.313
  23522462.594    -4615044.241 6  -3596130.93121        13.500           0.438
  23775249.469    -3573252.706 6  -2784346.68321        12.750           0.500
  20582033.586     -863939.810 7   -673199.77722        22.500           1.656
  23901325.344     -393728.574 5   -244773.97421         9.750           0.281
 91  5 21 18  7 30.0000000  0  5G18G 2G11G19G16
  20829635.328      944850.423 7    736244.83822        27.250           2.406
  23511443.336    -4672937.980 6  -3641242.86621        13.250           0.594
  23767115.602    -3616004.552 6  -2817659.74821        13.000           0.500
  20580276.656     -873176.925 7   -680397.52822        22.500           1.688
  23893947.328     -432506.226 5   -274990.28921        10.250           0.188
 91  5 21 18  7 45.0000000  0  5G18G 2G11G19G16
  20832658.094      960733.516 7    748621.24323        27.250           2.500
  23500435.195    -4730790.665 6  -3686322.78321        14.000           0.500
  23758996.070    -3658664.897 6  -2850901.50221        13.000           0.469
  20578526.031     -882364.460 7   -687556.64922        21.750           1.750
  23886589.320     -471170.850 5   -305118.53021         9.750           0.313
 91  5 21 18  8  0.0000000  0  5G18G 2G11G19G16
  20835698.609      976714.459 7    761073.89622        27.500           2.438
  23489431.977    -4788604.155 6  -3731372.18521        13.250           0.500
  23750893.813    -3701235.539 6  -2884073.36621        12.250           0.563
  20576788.867     -891504.703 7   -694678.91722        22.500           1.750
  23879256.617     -509724.787 5   -335160.52221        10.000           0.313
 91  5 21 18  8 15.0000000  0  5G18G 2G11G19G16
  20838759.906      992797.464 7    773606.07422        27.500           2.469
  23478441.750    -4846374.177 6  -3776387.70321        13.500           0.531
  23742810.781    -3743711.848 6  -2917171.72221        12.500           0.563
  20575057.844     -900593.517 7   -701761.11322        22.250           1.656
  23871939.203     -548163.401 5   -365112.65121         9.750           0.281
 91  5 21 18  8 30.0000000  0  5G18G 2G11G19G16
  20841840.031     1008978.692 7    786214.79522        27.500           2.438
  23467455.289    -4904103.957 6  -3821371.87121        13.500           0.625
  23734745.078    -3786097.073 6  -2950199.10021        12.500           0.500
  20573336.063     -909634.455 7   -708806.00722        22.500           1.750
  23864643.133     -586489.888 5   -394977.41221         9.500           0.281
 91  5 21 18  8 45.0000000  0  5G18G 2G11G19G16
  20844938.102     1025259.789 8    798901.32923        28.000           2.500
  23456479.211    -4961792.213 6  -3866323.66621        13.750           0.563
  23726696.758    -3828389.504 6  -2983154.17421        12.250           0.469
  20571625.055     -918626.326 7   -715812.65922        21.750           1.656
  23857369.133     -624702.946 5   -424753.78121         9.750           0.281
 91  5 21 18  9  0.0000000  0  5G18G 2G11G19G16
  20848052.922     1041631.970 7    811658.83722        27.500           2.375
  23445505.203    -5019447.006 6  -3911249.41321        13.000           0.531
  23718668.078    -3870597.216 6  -3016043.23921        12.750           0.406
  20569923.797     -927577.515 7   -722787.61522        22.500           1.688
  23850124.633     -662810.492 5   -454447.95221         9.750           0.188
 91  5 21 18  9 15.0000000  0  5G18G 2G11G19G16
  20851188.789     1058107.587 7    824496.95122        27.750           2.438
  23434542.672    -5077055.865 6  -3956139.34821        13.750           0.500
  23710652.734    -3912707.303 6  -3048856.24221        12.500           0.469
  20568229.359     -936475.471 7   -729721.09222        22.000           1.750
  23842895.000     -700799.883 5   -484050.05021         9.750           0.250
 91  5 21 18  9 30.0000000  0  5G18G 2G11G19G16
  20854342.820     1074678.733 7    837409.49922        27.750           2.438
  23423586.836    -5134626.335 6  -4000999.37621        13.500           0.531
  23702660.211    -3954727.277 6  -3081599.01221        13.000           0.563
  20566545.195     -945327.990 7   -736619.16022        22.500           1.781
  23835686.117     -738678.948 5   -513566.18321         9.500           0.188
 91  5 21 18  9 45.0000000  0  5G18G 2G11G19G16
  20857514.836     1091355.486 7    850404.34222        27.750           2.375
  23412641.328    -5192148.242 6  -4045821.56121        14.000           0.531
  23694681.070    -3996646.866 6  -3114263.56821        13.000           0.469
  20564871.180     -954125.271 7   -743474.18622        22.000           1.750
  23828498.891     -776437.434 5   -542988.35921         9.750           0.313
 91  5 21 18 10  0.0000000  0  5G18G 2G11G19G16
  20860707.273     1108129.561 7    863475.02022        27.500           2.469
  23401703.828    -5249629.604 6  -4090612.17221        14.500           0.563
  23686720.594    -4038473.858 6  -3146855.96921        12.500           0.531
  20563206.953     -962875.419 7   -750292.48722        21.750           1.750
  23821333.398     -814083.322 5   -572322.79321         9.500           0.250
 91  5 21 18 10 15.0000000  0  5G18G 2G11G19G16
  20863917.352     1125001.452 7    876621.91323        27.250           2.563
  23390771.711    -5307069.596 6  -4135370.54121        14.000           0.563
  23678779.773    -4080207.112 6  -3179375.33021        13.000           0.688
  20561550.945     -971577.831 7   -757073.59522        22.250           1.719
  23814195.242     -851615.795 5   -601568.83221        10.000           0.219
 91  5 21 18 10 30.0000000  0  5G18G 2G11G19G16
  20867149.367     1141972.094 7    889845.76022        27.750           2.469
  23379851.250    -5364466.954 6  -4180095.68621        14.000           0.594
  23670856.781    -4121845.078 6  -3211820.43821        12.750           0.563
  20559903.227     -980231.311 7   -763816.57222        22.500           1.750
  23807073.500     -889033.433 5   -630725.40421         9.750           0.219
 91  5 21 18 10 45.0000000  0  5G18G 2G11G19G16
  20870394.922     1159040.430 7    903145.73022        27.250           2.438
  23368936.547    -5421822.499 6  -4224788.24321        13.750           0.469
  23662950.734    -4163388.495 6  -3244191.89121        13.000           0.594
  20558265.133     -988836.858 7   -770522.19522        22.250           1.625
  23799970.852     -926336.915 5   -659793.06021         8.500           0.125
 91  5 21 18 11  0.0000000  0  5G18G 2G11G19G16
  20873662.828     1176210.779 7    916525.19122        27.250           2.438
  23358027.875    -5479131.684 6  -4269444.68021        14.000           0.625
  23655064.953    -4204832.660 6  -3276485.98821        13.000           0.563
  20556642.063     -997390.354 7   -777187.26422        21.250           1.656
  23792899.227     -963521.858 5   -688768.28121        10.000           0.188
 91  5 21 18 11 15.0000000  0  5G18G 2G11G19G16
  20876949.281     1193476.457 7    929978.93122        27.500           2.406
  23347132.367    -5536400.860 6  -4314069.96021        14.000           0.594
  23647193.375    -4246183.857 6  -3308707.64921        12.750           0.438
  20555019.203    -1005898.344 7   -783816.86922        22.000           1.750
  23785844.281    -1000594.586 5   -717656.10821        10.000           0.281
 91  5 21 18 11 30.0000000  0  5G18G 2G11G19G16
  20880252.461     1210839.551 7    943508.58423        27.250           2.500
  23336242.813    -5593627.556 6  -4358662.10421        14.000           0.625
  23639346.539    -4287439.321 6  -3340854.69821        13.500           0.594
  20553410.531    -1014358.401 7   -790409.12622        21.500           1.719
  23778808.836    -1037552.596 5   -746454.51821         9.750           0.313
 91  5 21 18 11 45.0000000  0  5G18G 2G11G19G16
  20883574.891     1228299.850 7    957113.97922        26.750           2.469
  23325361.141    -5650811.750 6  -4403221.15321        14.250           0.563
  23631511.313    -4328598.909 6  -3372927.05521        13.250           0.594
  20551808.898    -1022770.858 7   -796964.29022        22.500           1.781
  23771800.070    -1074395.831 5   -775163.51221         9.750           0.219
 91  5 21 18 12  0.0000000  0  5G18G 2G11G19G16
  20886916.891     1245859.625 7    970796.88323        27.000           2.531
  23314489.711    -5707951.057 6  -4447745.22321        14.500           0.750
  23623697.891    -4369660.104 6  -3404922.73521        13.750           0.594
  20550220.242    -1031133.442 7   -803480.59322        21.500           1.563
  23764808.164    -1111122.174 5   -803781.40821         9.500           0.281
 91  5 21 18 12 14.9990000  0  5G18G 2G11G19G16
  20890276.269     1263516.593 7    984555.53122        26.500           2.438
  23303623.433    -5765042.313 6  -4492231.84621        14.250           0.625
  23615905.425    -4410620.647 6  -3436839.98021        14.250           0.688
  20548635.425    -1039446.433 7   -809958.25322        22.500           1.656
  23757845.776    -1147729.780 5   -832306.77521         9.750           0.219
 91  5 21 18 12 29.9990000  0  5G18G 2G11G19G16
  20893655.261     1281274.387 7    998392.73122        26.500           2.438
  23292765.339    -5822091.686 6  -4536685.84521        13.750           0.594
  23608126.362    -4451484.382 6  -3468681.79821        14.500           0.563
  20547064.417    -1047709.682 7   -816397.15622        22.000           1.656
  23750901.355    -1184221.868 5   -860742.15621        10.000           0.281
 91  5 21 18 12 44.9990000  0  5G18G 2G11G19G16
  20897054.386     1299139.073 7   1012313.23522        26.250           2.469
  23281920.495    -5879087.665 6  -4581098.22321        13.750           0.563
  23600373.253    -4492240.646 6  -3500439.87621        14.000           0.531
  20545501.690    -1055915.203 7   -822791.07322        22.500           1.594
  23743980.065    -1220587.901 5   -889079.29621         9.750           0.375
 91  5 21 18 12 59.9990000  0  5G18G 2G11G19G16
  20900474.206     1317102.940 7   1026311.01523        26.500           2.500
  23271083.589    -5936037.923 6  -4625474.98321        14.000           0.625
  23592634.026    -4532896.890 6  -3532120.01221        14.000           0.563
  20543951.690    -1064070.928 7   -829146.18922        22.250           1.625
  23737081.636    -1256835.865 5   -917324.42321         9.500           0.375
 91  5 21 18 13 14.9990000  0  5G18G 2G11G19G16
  20903909.847     1335161.018 7   1040382.21422        26.250           2.406
  23260252.909    -5992947.095 6  -4669819.72521        13.750           0.688
  23584918.612    -4573457.758 6  -3563725.83621        14.750           0.594
  20542405.987    -1072181.697 7   -835466.27122        22.750           1.625
  23730206.245    -1292970.702 5   -945481.41021         9.750           0.406
 91  5 21 18 13 29.9990000  0  5G18G 2G11G19G16
  20907366.222     1353323.793 7   1054534.98622        26.000           2.469
  23249434.565    -6049804.611 6  -4714124.21521        14.250           0.500
  23577218.558    -4613912.131 6  -3595248.66221        14.250           0.594
  20540874.511    -1080236.988 7   -841743.12922        22.750           1.656
  23723351.894    -1328981.355 5   -973541.62721         9.250           0.344
 91  5 21 18 13 44.9990000  0  5G18G 2G11G19G16
  20910842.331     1371585.812 7   1068765.09523        26.250           2.531
  23238623.769    -6106615.425 6  -4758392.32521        14.000           0.719
  23569540.714    -4654265.092 6  -3626692.48121        15.250           0.469
  20539351.401    -1088242.026 7   -847980.82422        22.750           1.625
  23716524.378    -1364872.978 5  -1001509.10021         9.250           0.313
 91  5 21 18 13 59.9990000  0  5G18G 2G11G19G16
  20914334.190     1389944.528 7   1083070.56322        26.000           2.469
  23227820.573    -6163381.836 6  -4802625.83021        14.250           0.625
  23561879.276    -4694518.636 6  -3658058.82021        14.750           0.594
  20537835.503    -1096199.203 7   -854181.22622        23.000           1.531
  23709716.355    -1400647.710 5  -1029385.48321         9.250           0.250
 91  5 21 18 14 14.9990000  0  5G18G 2G11G19G16
  20917847.862     1408398.054 7   1097449.89523        26.250           2.500
  23217026.511    -6220105.598 6  -4846826.09821        14.000           0.625
  23554238.409    -4734674.278 6  -3689348.88021        15.000           0.500
  20536331.433    -1104110.507 7   -860345.87622        22.500           1.563
  23702925.597    -1436307.382 5  -1057172.21121         9.250           0.406
 91  5 21 18 14 29.9990000  0  5G18G 2G11G19G16
  20921377.933     1426951.388 7   1111907.00722        26.000           2.469
  23206240.714    -6276781.074 6  -4890988.73521        14.500           0.656
  23546616.683    -4774726.248 6  -3720558.17021        14.750           0.625
  20534835.065    -1111970.604 7   -866470.63022        22.500           1.719
  23696171.386    -1471846.349 5  -1084864.90021         9.750           0.375
 91  5 21 18 14 44.9990000  0  5G18G 2G11G19G16
  20924926.245     1445604.281 7   1126441.69222        26.000           2.438
  23195465.370    -6333408.629 6  -4935114.05321        14.500           0.594
  23539012.347    -4814674.689 6  -3751686.76521        14.250           0.563
  20533348.636    -1119779.941 7   -872555.82922        22.750           1.656
  23689426.409    -1507264.475 5  -1112463.39421         9.500           0.344
 91  5 21 18 14 59.9990000  0  5G18G 2G11G19G16
  20928496.511     1464354.839 7   1141052.48422        26.250           2.406
  23184699.573    -6389989.864 6  -4979203.25521        14.250           0.719
  23531434.401    -4854520.970 6  -3782735.76721        16.250           0.594
  20531872.003    -1127540.198 7   -878602.78322        22.000           1.625
  23682709.745    -1542563.688 5  -1139969.24321         9.000           0.281
 91  5 21 18 15 14.9990000  0  6G18G 2G11G19G16G 6
  20932080.519     1483201.340 7   1155738.03222        25.500           2.375
  23173940.815    -6446526.094 6  -5023257.37521        15.000           0.625
  23523868.300    -4894266.233 6  -3813706.04821        16.000           0.469
  20530404.933    -1135253.105 7   -884612.84222        22.250           1.688
  23676015.745    -1577745.489 5  -1167383.59621         9.500           0.313
  24345672.800          -0.86514                         7.250
 91  5 21 18 15 29.9990000  0  6G18G 2G11G19G16G 6
  20935686.112     1502143.105 7   1170497.81122        25.750           2.469
  23163192.308    -6503017.504 6  -5067276.59221        15.250           0.594
  23516323.628    -4933910.764 6  -3844597.84621        15.250           0.563
  20528944.831    -1142919.196 7   -890586.42322        22.250           1.719
  23669343.417    -1612810.027 5  -1194706.58021         9.500           0.406
  24336646.214      -47417.548 4                         7.250
 91  5 21 18 15 44.9990000  0  6G18G 2G11G19G16G 6
  20939310.792     1521185.082 7   1185335.67622        25.750           2.375
  23152450.456    -6559459.076 6  -5111256.97621        14.250           0.656
  23508800.886    -4973449.195 6  -3875406.96521        16.000           0.625
  20527497.128    -1150533.557 7   -896519.69322        22.250           1.594
  23662689.948    -1647751.998 5  -1221934.08121         9.250           0.469
  24327629.659      -94814.259 4                         7.250
 91  5 21 18 15 59.9990000  0  6G18G 2G11G19G16G 6
  20942949.956     1540318.271 7   1200244.62122        25.500           2.406
  23141716.081    -6615859.568 6  -5155205.33821        14.500           0.656
  23501295.792    -5012890.194 6  -3906140.15521        15.750           0.656
  20526058.144    -1158104.909 7   -902419.44922        21.750           1.594
  23656061.464    -1682580.558 5  -1249073.18021         9.500           0.344
  24318611.050     -142199.956 5                         7.500
 91  5 21 18 16 14.9990000  0  6G18G 2G11G19G16G 6
  20946608.839     1559544.968 7   1215226.42322        25.500           2.438
  23130992.433    -6672216.384 6  -5199119.67421        14.500           0.656
  23493807.745    -5052230.940 6  -3936795.24021        15.500           0.531
  20524624.206    -1165630.915 7   -908283.86622        22.250           1.563
  23649461.417    -1717293.033 5  -1276121.83221        10.000           0.469
  24309598.394     -189572.262 5                         7.500
 91  5 21 18 16 29.9990000  0  6G18G 2G11G19G16G 6
  20950285.862     1578866.893 7   1230282.43022        25.000           2.313
  23120276.214    -6728527.529 6  -5242998.42021        14.250           0.625
  23486342.433    -5091469.270 6  -3967370.51321        16.000           0.500
  20523199.245    -1173109.811 7   -914111.58122        22.500           1.656
  23642877.331    -1751887.210 5  -1303078.32221         9.750           0.406
  24300587.800     -236929.364 5                         7.500
 91  5 21 18 16 44.9990000  0  6G18G 2G11G19G16G 6
  20953983.886     1598292.136 7   1245418.94222        25.500           2.313
  23109569.058    -6784784.755 6  -5286835.15821        14.500           0.719
  23478897.440    -5130596.755 6  -3997859.40921        16.250           0.469
  20521787.487    -1180533.474 7   -919896.25422        22.250           1.625
  23636317.605    -1786354.780 5  -1329936.13221         9.750           0.406
  24291574.870     -284263.161 4        -0.09431         7.250           0.313
 91  5 21 18 16 59.9990000  0  6G18G 2G11G19G16G 6
  20957697.315     1617811.567 7   1260628.84522        25.500           2.281
  23098874.487    -6840996.768 6  -5330636.65421        15.000           0.656
  23471468.847    -5169622.028 6  -4028268.67921        16.000           0.531
  20520384.151    -1187910.938 7   -925644.93222        22.000           1.563
  23629780.011    -1820704.501 5  -1356702.13521         9.750           0.313
  24282576.237     -331582.733 5    -36872.38621         7.750           0.250
 91  5 21 18 17 14.9990000  0  6G18G 2G11G19G16G 6
  20961429.605     1637423.188 7   1275910.59722        25.250           2.281
  23088186.308    -6897165.043 6  -5374404.07021        15.000           0.656
  23464061.292    -5208546.385 6  -4058599.29821        16.000           0.625
  20518987.847    -1195243.795 7   -931358.84922        22.000           1.594
  23623265.792    -1854937.944 5  -1383377.51121        10.000           0.469
  24273570.440     -378889.736 5    -73734.89821         7.500           0.250
 91  5 21 18 17 29.9990000  0  6G18G 2G11G19G16G 6
  20965179.878     1657133.793 7   1291269.47122        25.500           2.344
  23077508.730    -6953282.906 6  -5418132.20021        15.250           0.844
  23456678.151    -5247362.808 6  -4088845.81121        16.250           0.531
  20517601.355    -1202525.450 7   -937032.86222        21.750           1.625
  23616774.862    -1889048.598 5  -1409957.21821        10.000           0.344
  24264574.925     -426177.474 5   -110582.40321         7.500           0.281
 91  5 21 18 17 44.9990000  0  6G18G 2G11G19G16G 6
  20968949.495     1676939.787 7   1306702.67422        25.250           2.219
  23066837.081    -7009353.266 6  -5461823.32221        15.500           0.688
  23449309.573    -5286074.157 6  -4119010.46721        16.000           0.563
  20516226.386    -1209759.149 7   -942669.51222        21.500           1.656
  23610305.065    -1923039.092 5  -1436443.30121         9.750           0.469
  24255577.870     -473449.239 5   -147417.45821         8.000           0.250
 91  5 21 18 17 59.9990000  0  6G18G 2G11G19G16G 6
  20972737.690     1696845.208 7   1322213.35622        25.500           2.219
  23056177.206    -7065372.152 6  -5505474.33121        15.000           0.750
  23441963.034    -5324676.152 6  -4149089.88921        16.250           0.500
  20514858.378    -1216941.058 7   -948265.81322        22.000           1.625
  23603863.886    -1956905.402 5  -1462832.62021        10.000           0.375
  24246583.339     -520701.148 5   -184237.05121         7.750           0.188
 91  5 21 18 18 14.9990000  0  6G18G 2G11G19G16G 6
  20976542.964     1716843.856 7   1337796.67822        25.500           2.063
  23045526.292    -7121345.366 6  -5549089.74921        15.500           0.625
  23434638.089    -5363174.493 6  -4179088.55721        16.500           0.688
  20513501.378    -1224076.958 7   -953826.25322        21.500           1.656
  23597440.511    -1990653.393 5  -1489129.73021        10.000           0.469
  24237600.003     -567939.116 5   -221045.76021         8.000           0.281
 91  5 21 18 18 29.9990000  0  6G18G 2G11G19G16G 6
  20980365.581     1736935.617 7   1353452.55822        25.250           2.125
  23034882.823    -7177272.753 6  -5592669.46021        15.500           0.781
  23427331.526    -5401568.882 6  -4209006.21121        16.250           0.469
  20512152.370    -1231167.042 7   -959351.00122        21.500           1.531
  23591041.534    -2024282.764 5  -1515334.42321        10.250           0.406
  24228607.487     -615163.378 5   -257843.80921         8.000           0.188
 91  5 21 18 18 44.9990000  0  6G18G 2G11G19G16G 6
  20984208.253     1757125.167 7   1369184.63922        25.500           2.125
  23024249.331    -7233149.416 6  -5636209.65021        15.250           0.688
  23420044.558    -5439854.316 6  -4238838.98621        16.250           0.656
  20510813.136    -1238206.645 7   -964836.40622        21.750           1.656
  23584662.769    -2057789.108 5  -1541443.23721        10.000           0.313
  24219628.097     -662369.117 5   -294627.38721         8.500           0.219
 91  5 21 18 18 59.9990000  0  6G18G 2G11G19G16G 6
  20988067.175     1777408.269 7   1384989.61922        24.750           2.156
  23013625.878    -7288979.287 6  -5679713.37421        15.250           0.781
  23412781.972    -5478034.521 6  -4268589.74321        16.250           0.531
  20509481.487    -1245199.979 7   -970285.76122        21.750           1.625
  23578312.308    -2091175.925 5  -1567458.93021        10.750           0.375
  24210646.917     -709560.468 5   -331399.77821         8.750           0.219
 91  5 21 18 19 14.9990000  0  6G18G 2G11G19G16G 6
  20991945.980     1797781.030 7   1400864.45622        25.750           2.250
  23003009.097    -7344765.946 6  -5723183.43121        15.500           0.813
  23405534.550    -5516112.886 6  -4298261.14621        16.000           0.563
  20508160.034    -1252150.629 7   -975701.85722        21.750           1.656
  23571980.269    -2124446.714 5  -1593384.18521        10.750           0.375
  24201667.284     -756741.151 5   -368163.84021         8.500           0.188
 91  5 21 18 19 29.9990000  0  6G18G 2G11G19G16G 6
  20995840.026     1818249.427 7   1416813.82422        25.000           2.188
  22992402.230    -7400503.056 6  -5766614.86821        15.250           0.750
  23398309.315    -5554082.911 6  -4327848.13821        16.250           0.563
  20506845.190    -1259052.512 7   -981079.95422        21.750           1.719
  23565673.339    -2157595.336 5  -1619214.26621        10.750           0.344
  24192695.253     -803905.150 5   -404914.92221         8.500           0.313
 91  5 21 18 19 44.9990000  0  6G18G 2G11G19G16G 6
  20999753.261     1838814.863 7   1432838.80022        25.250           2.156
  22981806.323    -7456188.882 6  -5810006.35521        15.250           0.688
  23391106.698    -5591942.592 6  -4357349.13721        17.000           0.531
  20505542.573    -1265903.853 7   -986418.66822        21.500           1.625
  23559389.214    -2190620.083 5  -1644947.80321        10.500           0.438
  24183718.073     -851050.817 5   -441651.71421         8.500           0.250
 91  5 21 18 19 59.9990000  0  6G18G 2G11G19G16G 6
  21003685.987     1859478.178 7   1448940.04822        25.250           2.125
  22971220.386    -7511822.392 6  -5853357.05821        15.750           0.750
  23383922.159    -5629690.793 6  -4386763.27221        16.500           0.563
  20504247.862    -1272704.020 7   -991717.50322        21.750           1.625
  23553126.995    -2223520.038 5  -1670584.13121        10.500           0.344
  24174749.714     -898177.236 5   -478373.51621         8.000           0.156
 91  5 21 18 20 14.9990000  0  6G18G 2G11G19G16G 6
  21007637.534     1880241.347 7   1465119.10122        25.500           2.219
  22960644.651    -7567401.278 6  -5896665.22521        15.750           0.781
  23376759.737    -5667325.069 6  -4416088.62921        16.000           0.531
  20502964.565    -1279450.875 7   -996974.79622        21.750           1.594
  23546892.151    -2256292.480 5  -1696121.07621        11.000           0.406
  24165786.480     -945282.450 5   -515078.78221         8.000           0.219
 91  5 21 18 20 29.9990000  0  6G18G 2G11G19G16G 6
  21011606.144     1901099.600 7   1481372.24422        25.250           2.125
  22950078.034    -7622930.131 6  -5939934.38021        15.500           0.781
  23369619.675    -5704849.899 6  -4445328.71321        16.750           0.375
  20501689.815    -1286149.232 7  -1002194.30222        22.000           1.625
  23540679.855    -2288942.348 5  -1721562.52421        10.750           0.375
  24156827.800     -992371.182 5   -551771.18821         8.250           0.219
 91  5 21 18 20 44.9990000  0  6G18G 2G11G19G16G 6
  21015592.448     1922052.306 7   1497698.99122        25.500           2.219
  22939518.315    -7678409.306 6  -5983164.84021        15.750           0.813
  23362498.683    -5742265.526 6  -4474483.70121        16.250           0.500
  20500424.675    -1292799.661 7  -1007376.45922        21.750           1.656
  23534487.448    -2321469.935 5  -1746908.66221        10.500           0.375
  24147868.675    -1039444.030 5   -588451.25521         8.000           0.250
 91  5 21 18 20 59.9990000  0  6G18G 2G11G19G16G 6
  21019598.112     1943098.105 7   1514098.27822        25.250           2.188
  22928971.464    -7733839.941 6  -6026357.46821        15.750           0.750
  23355400.019    -5779572.916 6  -4503554.34821        16.500           0.594
  20499166.253    -1299403.459 7  -1012522.28322        22.250           1.688
  23528320.823    -2353876.356 5  -1772160.40221        10.750           0.375
  24138915.581    -1086502.312 5   -625119.93021         7.750           0.188
 91  5 21 18 21 14.9990000  0  6G18G 2G11G19G16G 6
  21023621.284     1964240.292 7   1530572.66322        25.500           2.156
  22918434.644    -7789218.128 6  -6069509.22721        15.750           0.813
  23348320.925    -5816767.917 6  -4532537.42821        16.500           0.531
  20497920.026    -1305956.857 7  -1017628.83322        21.250           1.750
  23522182.050    -2386157.744 5  -1797314.70521        10.750           0.406
  24129964.933    -1133542.254 5   -661774.35921         7.750           0.188
 91  5 21 18 21 29.9990000  0  6G18G 2G11G19G16G 6
  21027663.511     1985477.613 7   1547121.19222        25.500           2.094
  22907902.620    -7844545.196 6  -6112621.15521        15.500           0.656
  23341263.972    -5853851.599 6  -4561433.76921        16.250           0.500
  20496681.940    -1312461.228 7  -1022697.18022        21.750           1.750
  23516061.855    -2418315.417 5  -1822372.61521        11.000           0.375
  24121015.112    -1180565.284 5   -698415.58221         7.500           0.281
 91  5 21 18 21 44.9990000  0  6G18G 2G11G19G16G 6
  21031721.378     2006808.931 7   1563742.95622        25.750           2.156
  22897386.105    -7899821.738 6  -6155693.71221        15.750           0.688
  23334227.667    -5890824.487 6  -4590243.75921        16.000           0.500
  20495454.714    -1318917.471 7  -1027728.02322        21.750           1.656
  23509964.675    -2450350.125 5  -1847334.72121        10.500           0.406
  24112069.089    -1227572.275 4   -735044.34621         7.250           0.250
 91  5 21 18 21 59.9990000  0  6G18G 2G11G19G16G 6
  21035799.589     2028231.578 7   1580435.89222        25.500           2.188
  22886876.050    -7955050.095 6  -6198728.72421        16.250           0.781
  23327213.089    -5927688.769 6  -4618969.13121        15.750           0.438
  20494234.753    -1325328.032 7  -1032723.27722        22.000           1.719
  23503890.659    -2482264.157 5  -1872202.77421        10.500           0.375
  24103130.245    -1274565.833 5   -771662.56421         7.750           0.125
 91  5 21 18 22 14.9990000  0  6G18G 2G11G19G16G 6
  21039891.722     2049745.032 7   1597199.58222        25.500           2.250
  22876376.011    -8010230.710 6  -6241726.53021        16.250           0.813
  23320220.769    -5964444.720 6  -4647610.09521        16.250           0.594
  20493022.425    -1331693.424 7  -1037683.32322        21.500           1.750
  23497843.511    -2514057.838 5  -1896977.04721        11.000           0.375
  24094184.425    -1321546.450 4   -808270.77321         7.250           0.219
 91  5 21 18 22 29.9990000  0  6G18G 2G11G19G16G 6
  21044005.206     2071352.869 7   1614036.81422        26.000           2.156
  22865886.339    -8065359.453 6  -6284683.92521        16.000           0.844
  23313244.831    -6001088.169 6  -4676163.38121        16.250           0.469
  20491822.183    -1338009.796 7  -1042605.17822        21.250           1.656
  23491812.347    -2545727.222 5  -1921654.47021        10.750           0.313
  24085251.167    -1368510.243 4   -844865.84421         7.250           0.188
 91  5 21 18 22 44.9990000  0  6G18G 2G11G19G16G 6
  21048133.987     2093058.256 7   1630950.06122        25.500           2.250
  22855403.800    -8120432.938 6  -6327598.24921        16.500           0.875
  23306295.425    -6037615.644 6  -4704626.30921        16.500           0.531
  20490629.589    -1344274.118 7  -1047486.47722        21.750           1.750
  23485808.855    -2577268.865 5  -1946232.35621        10.750           0.375
  24076320.253    -1415454.244 4   -881445.50021         7.000           0.188
 91  5 21 18 22 59.9990000  0  6G18G 2G11G19G16G 6
  21052283.456     2114857.513 7   1647936.45322        25.750           2.188
  22844934.870    -8175454.680 6  -6370472.26521        16.250           0.844
  23299365.987    -6074030.295 6  -4733001.31021        16.500           0.531
  20489447.425    -1350489.886 7  -1052329.93822        21.750           1.688
  23479832.472    -2608686.028 5  -1970713.24021        11.250           0.344
  24067386.870    -1462381.948 4   -918012.46521         6.750           0.219
 91  5 21 18 23 14.9990000  0  6G18G 2G11G19G16G 6
  21056448.972     2136742.967 7   1664990.00822        25.750           2.125
  22834472.737    -8230432.230 6  -6413311.83221        16.250           0.844
  23292455.862    -6110339.360 6  -4761294.05221        16.000           0.594
  20488269.487    -1356664.718 7  -1057141.50422        21.500           1.688
  23473878.183    -2639986.270 5  -1995103.03621        11.250           0.438
  24058459.355    -1509300.920 4   -954572.57221         6.500           0.188
 91  5 21 18 23 29.9990000  0  6G18G 2G11G19G16G 6
  21060630.081     2158720.623 7   1682115.41222        25.500           2.125
  22824019.011    -8285359.151 6  -6456111.95321        16.000           0.813
  23285568.745    -6146536.372 6  -4789499.47721        16.500           0.531
  20487108.581    -1362792.451 7  -1061916.36722        20.750           1.719
  23467944.956    -2671163.360 5  -2019396.85321        11.250           0.313
  24049532.261    -1556205.056 4   -991121.16621         6.500           0.250
 91  5 21 18 23 44.9990000  0  6G18G 2G11G19G16G 6
  21064829.667     2180790.553 7   1699312.71822        26.000           2.156
  22813578.292    -8340234.952 6  -6498872.24021        16.500           0.813
  23278700.862    -6182620.747 6  -4817617.13121        16.500           0.531
  20485947.894    -1368872.782 7  -1066654.29322        21.000           1.781
  23462033.112    -2702216.759 5  -2043594.29021        11.250           0.344
  24040611.112    -1603094.099 4  -1027657.98321         6.250           0.219
 91  5 21 18 23 59.9990000  0  6G18G 2G11G19G16G 6
  21069047.401     2202953.644 7   1716582.61622        25.750           2.156
  22803146.097    -8395058.558 6  -6541591.86621        16.500           0.813
  23271857.300    -6218591.262 6  -4845646.05521        16.500           0.531
  20484804.003    -1374904.689 7  -1071354.49522        20.500           1.656
  23456149.159    -2733145.406 5  -2067694.51721        11.500           0.469
  24031690.034    -1649967.110 4  -1064182.32921         6.750           0.188
 91  5 21 18 24 14.9990000  0  6G18G 2G11G19G16G 6
  21073283.823     2225212.053 7   1733926.78722        25.750           2.125
  22792723.519    -8449827.557 6  -6584268.93121        16.250           0.813
  23265033.862    -6254445.430 6  -4873584.33221        16.000           0.563
  20483661.136    -1380885.974 7  -1076015.23722        21.000           1.750
  23450291.612    -2763946.984 5  -2091695.74321        11.750           0.438
  24022775.245    -1696821.868 4  -1100692.43321         6.250           0.219
 91  5 21 18 24 29.9990000  0  6G18G 2G11G19G16G 6
  21077535.495     2247561.747 7   1751342.08922        25.500           2.188
  22782309.417    -8504545.695 6  -6626906.36121        16.250           0.781
  23258234.495    -6290186.758 6  -4901434.67721        16.750           0.625
  20482535.112    -1386820.846 7  -1080639.81722        20.500           1.781
  23444451.940    -2794625.321 5  -2115600.91521        11.750           0.375
  24013856.847    -1743662.313 4  -1137191.39921         6.250           0.250
 91  5 21 18 24 44.9990000  0  6G18G 2G11G19G16G 6
  21081807.628     2270016.199 7   1768839.02522        25.250           2.063
  22771910.987    -8559198.959 6  -6669493.25121        16.500           0.813
  23251455.776    -6325801.250 6  -4929186.19921        16.250           0.656
  20481415.737    -1392695.417 7  -1085217.41622        21.250           1.688
  23438639.050    -2825166.577 5  -2139399.28121        11.500           0.438
  24004953.362    -1790474.757 4  -1173668.54221         6.500           0.250
 91  5 21 18 24 59.9990000  0  6G18G 2G11G19G16G 6
  21086099.878     2292564.462 7   1786409.05022        26.000           2.156
  22761518.956    -8613798.232 6  -6712038.07221        16.250           0.875
  23244700.995    -6361299.436 6  -4956847.08621        16.500           0.656
  20480304.933    -1398520.576 7  -1089756.50822        20.750           1.750
  23432849.167    -2855581.366 5  -2163099.08521        11.250           0.344
  23996044.362    -1837270.050 4  -1210132.32721         6.250           0.188
 91  5 21 18 25 14.9990000  0  6G18G 2G11G19G16G 6
  21090407.323     2315205.814 7   1804051.62422        25.250           2.094
  22751141.339    -8668343.762 6  -6754540.99721        17.500           0.844
  23237967.128    -6396681.491 6  -4984417.47421        16.500           0.563
  20479207.011    -1404296.720 7  -1094257.40822        20.500           1.688
  23427087.722    -2885869.964 5  -2186700.58221        11.750           0.406
  23987148.362    -1884048.770 4  -1246583.16421         6.750           0.188
 91  5 21 18 25 29.9990000  0  6G18G 2G11G19G16G 6
  21094735.144     2337942.059 7   1821768.13222        25.500           2.188
  22740771.823    -8722833.424 6  -6797000.41621        16.250           0.875
  23231256.269    -6431945.138 6  -5011895.61021        16.000           0.563
  20478119.690    -1410021.952 7  -1098718.63722        20.500           1.813
  23421349.620    -2916030.498 6  -2210202.26721        12.250           0.344
  23978244.355    -1930808.941 4  -1283019.59021         7.000           0.281
 91  5 21 18 25 44.9990000  0  6G18G 2G11G19G16G 6
  21099078.433     2360768.687 7   1839555.06922        25.250           2.031
  22730412.105    -8777271.731 6  -6839419.79221        17.000           0.938
  23224567.511    -6467094.660 6  -5039284.81521        16.250           0.563
  20477036.542    -1415700.912 7  -1103143.81122        20.750           1.844
  23415631.722    -2946067.468 5  -2233607.68121        11.750           0.313
  23969354.784    -1977555.253 4  -1319445.20021         7.250           0.313
 91  5 21 18 25 59.9990000  0  6G18G 2G11G19G16G 6
  21103439.940     2383688.004 7   1857414.23222        25.250           2.125
  22720063.019    -8831656.001 6  -6881797.08321        17.000           0.906
  23217902.245    -6502127.211 6  -5066582.86721        16.250           0.563
  20475965.448    -1421330.936 7  -1107530.85222        21.000           1.719
  23409939.886    -2975977.591 5  -2256914.25821        11.750           0.438
  23960462.050    -2024285.082 5  -1355857.96021         7.500           0.281
 91  5 21 18 26 14.9990000  0  6G18G 2G11G19G16G 6
  21107819.925     2406702.202 7   1875347.32822        25.750           2.219
  22709724.987    -8885983.813 6  -6924130.36821        17.000           0.875
  23211256.784    -6537040.224 6  -5093787.77121        15.750           0.563
  20474903.292    -1426909.696 7  -1111877.94622        20.500           1.750
  23404271.073    -3005758.840 5  -2280120.41521        11.750           0.313
  23951575.089    -2070996.186 5  -1392256.13221         7.500           0.313
 91  5 21 18 26 29.9990000  0  6G18G 2G11G19G16G 6
  21112215.105     2429802.792 7   1893347.74422        25.250           2.063
  22699397.308    -8940263.220 6  -6966425.94521        17.500           0.938
  23204635.472    -6571841.638 6  -5120905.72221        16.250           0.563
  20473850.987    -1432445.465 7  -1116191.53822        20.750           1.688
  23398626.620    -3035419.508 5  -2303232.59521        11.500           0.375
  23942686.081    -2117696.849 5  -1428646.16921         7.750           0.250
 91  5 21 18 26 44.9990000  0  6G18G 2G11G19G16G 6
  21116629.862     2452998.703 7   1911422.42722        25.750           2.125
  22689076.675    -8994485.263 6  -7008676.82021        16.500           0.875
  23198035.464    -6606522.192 6  -5147929.50221        16.000           0.625
  20472806.784    -1437929.414 7  -1120464.75522        20.750           1.813
  23393008.698    -3064950.489 5  -2326243.75221        11.500           0.250
  23933801.284    -2164378.178 5  -1465021.14521         7.500           0.281
 91  5 21 18 26 59.9990000  0  6G18G 2G11G19G16G 6
  21121060.980     2476286.874 7   1929569.00922        25.000           2.125
  22678770.214    -9048652.399 6  -7050884.90221        17.250           0.875
  23191458.417    -6641084.377 6  -5174861.03921        16.250           0.625
  20471772.315    -1443364.396 7  -1124699.81422        20.750           1.781
  23387413.855    -3094354.396 5  -2349155.86221        11.500           0.375
  23924925.558    -2211043.035 5  -1501383.26921         8.250           0.281
 91  5 21 18 27 14.9990000  0  6G18G 2G11G19G16G 6
  21125511.683     2499672.673 7   1947791.65722        25.250           2.250
  22668474.628    -9102758.949 6  -7093045.79421        17.000           0.938
  23184906.683    -6675522.366 6  -5201695.80821        16.500           0.594
  20470750.175    -1448744.846 7  -1128892.38422        20.750           1.844
  23381844.097    -3123625.402 5  -2371964.41821        11.250           0.344
  23916045.120    -2257685.884 5  -1537728.28021         7.750           0.281
 91  5 21 18 27 29.9990000  0  6G18G 2G11G19G16G 6
  21129980.784     2523154.187 7   1966088.89522        25.500           2.156
  22658190.456    -9156806.647 6  -7135160.80421        17.000           1.031
  23178374.128    -6709837.825 6  -5228435.09121        16.250           0.656
  20469733.917    -1454072.497 7  -1133043.80822        20.750           1.813
  23376295.870    -3152765.623 5  -2394671.07621        11.500           0.281
  23907172.753    -2304308.678 5  -1574057.60921         8.250           0.219
 91  5 21 18 27 44.9990000  0  6G18G 2G11G19G16G 6
  21134464.120     2546722.910 7   1984454.08522        25.250           2.156
  22647912.886    -9210803.578 6  -7177236.26721        17.250           0.844
  23171868.136    -6744038.676 6  -5255085.06321        16.250           0.594
  20468729.683    -1459355.754 7  -1137160.64522        20.750           1.781
  23370778.511    -3181782.979 5  -2417281.97221        11.500           0.344
  23898301.948    -2350919.715 5  -1610377.83021         8.000           0.219
 91  5 21 18 27 59.9990000  0  6G18G 2G11G19G16G 6
  21138967.964     2570377.598 7   2002886.25922        25.500           2.125
  22637647.558    -9264750.700 6  -7219272.92721        17.250           0.969
  23165380.323    -6778125.521 6  -5281646.21321        16.500           0.656
  20467731.214    -1464595.542 7  -1141243.60722        20.500           1.781
  23365278.659    -3210678.209 5  -2439797.72221        11.250           0.313
  23889437.644    -2397519.849 5  -1646689.51921         8.500           0.281
 91  5 21 18 28 14.9990000  0  6G18G 2G11G19G16G 6
  21143484.128     2594125.812 7   2021391.31322        24.750           2.125
  22627393.276    -9318640.107 6  -7261264.60721        17.250           0.969
  23158918.995    -6812090.385 6  -5308112.31021        16.500           0.688
  20466745.597    -1469784.366 7  -1145286.86122        20.750           1.781
  23359802.823    -3239443.730 5  -2462212.41821        11.500           0.313
  23880570.073    -2444101.442 5  -1682986.78721         8.250           0.281
 91  5 21 18 28 29.9990000  0  6G18G 2G11G19G16G 6
  21148024.730     2617969.574 7   2039970.81722        25.750           2.094
  22617149.214    -9372469.706 6  -7303209.67721        17.250           0.875
  23152478.550    -6845931.113 6  -5334481.66521        16.250           0.656
  20465770.581    -1474920.252 6  -1149288.85622        19.750           1.719
  23354348.651    -3268077.297 5  -2484524.27421        11.250           0.281
  23871710.940    -2490662.709 5  -1719268.21521         8.750           0.313
 91  5 21 18 28 44.9990000  0  6G18G 2G11G19G16G 6
  21152577.558     2641903.976 7   2058620.95622        25.000           2.188
  22606916.526    -9426243.914 6  -7345111.59721        17.500           1.000
  23146060.394    -6879652.142 6  -5360757.76921        16.500           0.625
  20464798.651    -1480007.712 7  -1153253.11822        20.500           1.844
  23348931.417    -3296583.481 5  -2506736.86521        11.500           0.250
  23862852.855    -2537208.298 5  -1755537.39621         9.000           0.281
 91  5 21 18 28 59.9990000  0  6G18G 2G11G19G16G 6
  21157150.448     2665927.490 7   2077340.52722        26.500           2.156
  22596692.675    -9479964.013 6  -7386971.35921        16.750           0.844
  23139666.972    -6913254.504 6  -5386941.38721        16.000           0.750
  20463840.823    -1485048.200 7  -1157180.78622        20.750           1.781
  23343526.917    -3324963.570 5  -2528851.21621        11.000           0.313
  23853996.722    -2583739.581 5  -1791795.46921         9.000           0.344
 91  5 21 18 29 14.9990000  0  6G18G 2G11G19G16G 6
  21161739.097     2690048.462 7   2096136.04122        25.000           2.125
  22586483.253    -9533621.228 6  -7428782.10021        17.500           1.063
  23133296.519    -6946729.271 6  -5413025.58121        16.500           0.625
  20462893.698    -1490033.074 7  -1161065.11622        20.500           1.750
  23338154.745    -3353208.657 5  -2550860.36821        11.750           0.313
  23845149.776    -2630247.865 5  -1828035.61721         9.000           0.188
 91  5 21 18 29 29.9990000  0  6G18G 2G11G19G16G 6
  21166348.097     2714263.667 7   2115004.97922        26.000           2.031
  22576283.761    -9587218.856 6  -7470546.42321        17.000           1.125
  23126949.144    -6980079.475 6  -5439012.72621        16.500           0.656
  20461952.464    -1494965.728 7  -1164908.75122        20.500           1.781
  23332806.737    -3381322.040 5  -2572766.87321        11.500           0.281
  23836302.894    -2676736.553 5  -1864260.47621         9.250           0.250
 91  5 21 18 29 44.9990000  0  6G18G 2G11G19G16G 6
  21170971.526     2738567.636 7   2133943.08922        25.250           2.094
  22566095.190    -9640761.822 6  -7512268.15021        17.250           0.969
  23120625.159    -7013310.033 6  -5464906.62321        16.250           0.688
  20461024.636    -1499851.359 7  -1168715.74722        20.750           1.750
  23327478.769    -3409308.897 5  -2594574.79421        11.500           0.313
  23827457.870    -2723210.889 5  -1900474.13621         9.000           0.313
 91  5 21 18 29 59.9990000  0  6G18G 2G11G19G16G 6
  21175614.409     2762962.515 7   2152952.03422        25.250           2.094
  22555917.378    -9694247.637 6  -7553945.34421        17.750           0.969
  23114326.237    -7046418.352 6  -5490705.28121        16.500           0.656
  20460103.034    -1504687.800 7  -1172484.41122        20.750           1.844
  23322177.323    -3437166.790 5  -2616282.24321        11.250           0.438
  23818616.636    -2769668.659 5  -1936674.93321         9.250           0.250
 91  5 21 18 30 14.9990000  0  6G18G 2G11G19G16G 6
  21180273.776     2787450.895 7   2172033.84222        25.250           2.063
  22545749.214    -9747673.421 6  -7595575.76321        17.500           1.125
  23108050.300    -7079401.350 6  -5516406.28121        16.250           0.719
  20459192.417    -1509472.177 7  -1176212.50422        20.750           1.844
  23316899.745    -3464892.796 5  -2637886.90221        11.250           0.375
  23809779.190    -2816107.141 5  -1972860.67421         9.000           0.219
 91  5 21 18 30 29.9990000  0  6G18G 2G11G19G16G 6
  21184952.315     2812032.323 7   2191188.14922        25.750           2.188
  22535594.253    -9801039.199 6  -7637159.42121        17.500           0.969
  23101795.706    -7112259.012 6  -5542009.61421        16.000           0.688
  20458290.815    -1514204.613 7  -1179900.12522        21.000           1.688
  23311653.151    -3492487.219 5  -2659389.03921        11.500           0.250
  23800945.573    -2862526.463 5  -2009031.49821         9.000           0.219
 91  5 21 18 30 44.9990000  0  6G18G 2G11G19G16G 6
  21189646.714     2836707.685 7   2210415.64722        25.250           2.063
  22525451.159    -9854344.082 6  -7678695.63021        17.500           1.094
  23095566.815    -7144990.177 6  -5567514.38821        15.750           0.781
  20457402.112    -1518884.247 7  -1183546.60522        21.000           1.813
  23306425.565    -3519948.998 5  -2680787.83921        11.750           0.281
  23792116.698    -2908925.851 5  -2045186.77921         9.000           0.188
 91  5 21 18 30 59.9990000  0  6G18G 2G11G19G16G 6
  21194360.745     2861471.698 7   2229712.23422        25.500           2.063
  22515317.659    -9907593.069 6  -7720188.28121        17.750           1.031
  23089362.464    -7177599.675 6  -5592924.34521        16.250           0.781
  20456520.948    -1523516.210 7  -1187155.94022        21.000           1.719
  23301225.167    -3547283.103 5  -2702087.12621        11.500           0.250
  23783292.886    -2955310.498 5  -2081330.55521         9.250           0.188
 91  5 21 18 31 14.9990000  0  6G18G 2G11G19G16G 6
  21199091.300     2886335.071 7   2249086.24422        25.500           2.156
  22505199.948    -9960774.975 6  -7761628.66021        18.000           1.000
  23083181.870    -7210076.233 6  -5618230.71721        16.000           0.750
  20455650.300    -1528089.662 7  -1190719.67622        20.750           1.719
  23296049.792    -3574478.426 5  -2723278.26521        11.500           0.344
  23774471.745    -3001669.455 5  -2117454.35921         9.250           0.250
 91  5 21 18 31 29.9990000  0  6G18G 2G11G19G16G 6
  21203841.065     2911295.209 7   2268535.65722        25.250           1.969
  22495089.511   -10013892.221 6  -7803018.65721        18.000           1.063
  23077027.526    -7242422.136 6  -5643435.28321        16.250           0.688
  20454790.261    -1532607.064 7  -1194239.73422        21.000           1.750
  23290896.581    -3601537.490 5  -2744363.24721        11.250           0.313
  23765652.073    -3048005.195 5  -2153560.05321         9.250           0.313
 91  5 21 18 31 44.9990000  0  6G18G 2G11G19G16G 6
  21208609.589     2936349.288 7   2288058.26522        25.500           2.000
  22484994.276   -10066947.050 6  -7844360.01621        17.750           1.094
  23070895.534    -7274639.642 6  -5668539.79321        16.000           0.750
  20453941.573    -1537070.878 7  -1197718.04022        20.750           1.875
  23285774.331    -3628462.568 5  -2765343.82721        11.500           0.281
  23756839.714    -3094320.254 5  -2189649.61921         9.250           0.188
 91  5 21 18 31 59.9990000  0  6G18G 2G11G19G16G 6
  21213391.620     2961487.584 7   2307646.49622        25.000           1.969
  22474908.972   -10119949.033 6  -7885660.20121        18.250           1.000
  23064787.972    -7306738.207 6  -5693551.62621        16.000           0.625
  20453099.980    -1541490.717 7  -1201162.08022        21.000           1.813
  23280675.933    -3655263.234 5  -2786227.45921        11.500           0.344
  23748028.698    -3140624.404 5  -2225730.71521         8.750           0.125
 91  5 21 18 32 14.9990000  0  6G18G 2G11G19G16G 6
  21218194.058     2986718.711 7   2327307.06822        25.250           2.063
  22464834.433   -10172889.417 6  -7926912.39221        18.000           1.125
  23058705.269    -7338708.739 6  -5718463.69521        15.500           0.844
  20452270.237    -1545858.026 7  -1204565.18922        21.000           1.719
  23275603.159    -3681930.802 6  -2807007.36921        12.000           0.313
  23739220.425    -3186908.985 5  -2261796.51521         8.750           0.250
 91  5 21 18 32 29.9990000  0  6G18G 2G11G19G16G 6
  21223012.847     3012041.711 7   2347039.22522        25.250           2.000
  22454770.386   -10225768.819 6  -7968117.05721        18.000           1.125
  23052644.425    -7370551.800 6  -5743276.43421        15.500           0.781
  20451447.737    -1550173.626 7  -1207928.00222        21.250           1.719
  23270553.245    -3708465.935 5  -2827684.08921        11.750           0.313
  23730413.519    -3233174.820 5  -2297847.74021         8.500           0.219
 91  5 21 18 32 44.9990000  0  6G18G 2G11G19G16G 6
  21227850.628     3037456.985 7   2366843.28122        25.500           2.063
  22444719.472   -10278586.295 6  -8009273.46921        18.250           1.125
  23046611.433    -7402266.255 6  -5767988.95521        15.500           0.813
  20450636.597    -1554436.675 7  -1211249.86422        20.500           1.656
  23265526.753    -3734867.771 5  -2848256.94021        11.750           0.281
  23721613.269    -3279421.011 5  -2333883.67521         8.250           0.250
 91  5 21 18 32 59.9990000  0  6G18G 2G11G19G16G 6
  21232701.878     3062956.972 7   2386713.35122        24.750           2.000
  22434680.019   -10331349.440 6  -8050387.54921        18.250           1.125
  23040597.151    -7433859.697 6  -5792607.18121        15.750           0.781
  20449833.480    -1558654.841 7  -1214536.75622        21.500           1.656
  23260526.925    -3761144.037 5  -2868731.94321        11.750           0.313
  23712817.230    -3325655.365 5  -2369910.34721         8.250           0.250
 91  5 21 18 33 14.9990000  0  6G18G 2G11G19G16G 6
  21237572.714     3088545.336 7   2406652.28522        25.500           1.969
  22424649.425   -10384054.204 6  -8091456.13421        18.250           1.156
  23034610.730    -7465327.869 6  -5817127.79421        15.750           0.750
  20449040.003    -1562824.231 7  -1217785.64022        20.750           1.656
  23255550.292    -3787290.569 5  -2889105.86421        11.500           0.375
  23704018.308    -3371874.061 5  -2405924.86121         8.000           0.344
 91  5 21 18 33 29.9990000  0  6G18G 2G11G19G16G 6
  21242458.136     3114220.905 7   2426659.17022        25.000           2.063
  22414632.706   -10436701.342 6  -8132479.81621        18.500           1.219
  23028643.995    -7496671.378 6  -5841551.27821        15.250           0.781
  20448254.956    -1566945.611 7  -1220997.11822        21.500           1.656
  23250600.995    -3813308.018 5  -2909379.19521        11.750           0.250
  23695229.628    -3418077.898 5  -2441927.75921         8.000           0.188
 91  5 21 18 33 44.9990000  0  6G18G 2G11G19G16G 6
  21247360.776     3139985.859 7   2446735.69722        25.250           2.094
  22404625.597   -10489288.289 6  -8173456.59721        18.000           1.219
  23022704.526    -7527887.796 6  -5865875.71821        15.250           0.844
  20447481.230    -1571016.730 7  -1224169.42322        21.000           1.719
  23245673.597    -3839194.178 5  -2929550.21321        11.500           0.344
  23686440.206    -3464264.682 5  -2477917.38321         8.000           0.344
 91  5 21 18 33 59.9990000  0  6G18G 2G11G19G16G 6
  21252280.386     3165840.495 7   2466882.11722        25.500           2.063
  22394630.089   -10541814.560 6  -8214386.09521        18.250           1.219
  23016787.112    -7558976.475 6  -5890100.62721        15.000           0.781
  20446716.690    -1575037.409 7  -1227302.42622        20.750           1.688
  23240777.753    -3864948.736 6  -2949618.70421        12.000           0.313
  23677653.073    -3510434.010 5  -2513893.40921         7.750           0.125
 91  5 21 18 34 14.9990000  0  6G18G 2G11G19G16G 6
  21257217.073     3191787.209 7   2487100.27722        25.000           2.125
  22384645.237   -10594277.389 6  -8255266.16721        18.250           1.125
  23010896.706    -7589934.462 6  -5914223.68721        15.250           0.813
  20445961.862    -1579004.951 7  -1230394.02422        20.500           1.594
  23235898.511    -3890568.689 5  -2969582.30321        11.500           0.375
  23668870.480    -3556583.399 5  -2549853.87321         8.750           0.188
 91  5 21 18 34 29.9990000  0  6G18G 2G11G19G16G 6
  21262171.011     3217821.045 7   2507386.32922        25.000           2.031
  22374674.136   -10646681.270 6  -8296100.30521        18.000           1.063
  23005030.823    -7620765.980 6  -5938248.21121        15.250           0.781
  20445215.401    -1582923.769 7  -1233447.66022        21.000           1.719
  23231044.714    -3916058.723 5  -2989444.67521        11.250           0.375
  23660092.644    -3602717.293 5  -2585802.31221         8.250           0.219
 91  5 21 18 34 44.9990000  0  6G18G 2G11G19G16G 6
  21267142.948     3243945.693 7   2527743.14822        24.750           1.969
  22364713.331   -10699022.459 6  -8336885.58921        18.250           1.188
  22999189.144    -7651467.332 6  -5962171.29921        15.750           0.844
  20444478.581    -1586790.563 7  -1236460.75222        20.500           1.750
  23226222.597    -3941414.910 5  -3009202.73921        11.750           0.313
  23651316.995    -3648832.281 5  -2621735.97821         8.000           0.219
 91  5 21 18 34 59.9990000  0  6G18G 2G11G19G16G 6
  21272132.948     3270164.252 7   2548173.14122        25.000           2.063
  22354766.355   -10751297.668 6  -8377619.46521        18.250           1.125
  22993370.987    -7682034.914 6  -5985990.15321        15.250           0.875
  20443757.136    -1590601.904 7  -1239430.63922        20.250           1.688
  23221425.659    -3966633.943 5  -3028853.93121        11.500           0.313
  23642542.378    -3694925.044 5  -2657652.34321         8.000           0.094
 91  5 21 18 35 14.9990000  0  6G18G 2G11G19G16G 6
  21277137.995     3296471.394 7   2568672.16022        24.750           2.000
  22344829.300   -10803511.909 6  -8418305.82021        17.500           1.125
  22987578.362    -7712473.712 6  -6009708.64921        15.250           0.750
  20443039.261    -1594363.026 7  -1242361.38722        21.000           1.688
  23216649.886    -3991721.088 5  -3048402.35721        11.750           0.375
  23633778.253    -3741000.827 5  -2693555.45421         7.750           0.281
 91  5 21 18 35 29.9990000  0  6G18G 2G11G19G16G 6
  21282159.190     3322862.047 7   2589236.24822        24.500           2.094
  22334905.144   -10855669.743 6  -8458948.23621        18.500           1.156
  22981808.847    -7742788.138 6  -6033330.24421        15.250           0.813
  20442331.808    -1598078.586 7  -1245256.63722        21.000           1.688
  23211896.956    -4016681.182 5  -3067851.78721        11.250           0.344
  23625013.198    -3787064.334 5  -2729449.01421         8.000           0.188
 91  5 21 18 35 44.9990000  0  6G18G 2G11G19G16G 6
  21287199.089     3349341.307 7   2609869.37922        24.750           2.031
  22324991.636   -10907765.746 6  -8499542.46421        18.500           1.156
  22976068.901    -7772972.610 6  -6056850.56521        15.750           0.875
  20441634.894    -1601743.295 7  -1248112.26322        21.000           1.594
  23207177.292    -4041508.624 5  -3087197.84621        11.750           0.219
  23616251.839    -3833110.319 5  -2765328.90021         7.750           0.125
 91  5 21 18 35 59.9990000  0  6G18G 2G11G19G16G 6
  21292256.589     3375910.521 7   2630572.61222        24.750           2.063
  22315089.394   -10959798.428 6  -8540087.35521        18.250           1.094
  22970347.753    -7803025.575 6  -6080268.41821        15.500           0.875
  20440950.347    -1605355.896 6  -1250927.28022        19.500           1.750
  23202477.190    -4066202.222 5  -3106439.61021        11.500           0.313
  23607489.073    -3879137.446 5  -2801194.16321         7.500           0.125
 91  5 21 18 36 14.9990000  0  6G18G 2G11G19G16G 6
  21297328.269     3402565.791 7   2651342.89822        25.000           2.031
  22305200.401   -11011771.170 6  -8580585.55421        18.250           1.219
  22964653.753    -7832950.457 6  -6103586.47121        15.500           0.781
  20440268.237    -1608919.933 7  -1253704.46022        20.750           1.656
  23197803.612    -4090765.277 5  -3125579.66221        11.750           0.281
  23598734.401    -3925149.578 5  -2837047.67321         7.750           0.188
 91  5 21 18 36 29.9990000  0  6G18G 2G11G19G16G 6
  21302418.112     3429310.110 7   2672182.57222        24.750           2.063
  22295319.448   -11063680.618 6  -8621034.42521        18.000           1.156
  22958983.105    -7862743.643 6  -6126801.89521        15.500           0.781
  20439602.698    -1612432.022 7  -1256441.15822        20.000           1.625
  23193153.815    -4115194.419 5  -3144615.36121        11.750           0.188
  23589982.331    -3971143.158 5  -2872886.74221         7.750           0.125
 91  5 21 18 36 44.9990000  0  6G18G 2G11G19G16G 6
  21307521.542     3456139.376 7   2693088.43222        24.250           2.000
  22285454.886   -11115530.907 6  -8661437.19521        18.000           1.125
  22953339.355    -7892409.134 6  -6149917.82421        16.000           0.875
  20438940.636    -1615896.401 7  -1259140.67622        20.500           1.719
  23188529.925    -4139493.814 5  -3163549.95121        11.750           0.313
  23581231.425    -4017122.428 5  -2908714.64321         7.750           0.188
 91  5 21 18 36 59.9990000  0  6G18G 2G11G19G16G 6
  21312644.909     3483052.226 7   2714059.43222        24.500           1.875
  22275599.159   -11167323.015 6  -8701794.63521        18.250           1.125
  22947717.026    -7921947.825 6  -6172934.95121        15.750           0.813
  20438291.753    -1619314.273 7  -1261803.96522        20.500           1.719
  23183930.644    -4163664.551 5  -3182384.30321        11.750           0.219
  23572484.855    -4063088.681 5  -2944532.44321         7.750           0.219
 91  5 21 18 37 14.9990000  0  6G18G 2G11G19G16G 6
  21317782.487     3510050.630 7   2735097.09222        24.750           1.938
  22265754.284   -11219054.400 6  -8742104.75521        18.500           1.156
  22942122.159    -7951357.145 6  -6195851.26421        15.750           0.750
  20437650.378    -1622683.396 7  -1264429.25922        20.250           1.750
  23179356.167    -4187704.228 5  -3201116.51621        11.750           0.281
  23563744.370    -4109039.685 5  -2980338.33621         7.750           0.375
 91  5 21 18 37 29.9990000  0  6G18G 2G11G19G16G 6
  21322938.081     3537143.353 7   2756208.24222        24.500           1.938
  22255923.323   -11270716.208 6  -8782360.66021        17.750           1.156
  22936549.886    -7980628.007 6  -6218659.69321        15.750           0.906
  20437022.776    -1625994.796 7  -1267009.58122        20.250           1.719
  23174809.433    -4211603.856 5  -3219739.60221        11.750           0.281
  23555001.097    -4154966.525 5  -3016125.40521         7.750           0.281
 91  5 21 18 37 44.9990000  0  6G18G 2G11G19G16G 6
  21328109.175     3564327.797 7   2777390.86622        24.250           2.031
  22246105.308   -11322310.902 6  -8822564.26021        18.500           1.219
  22931006.245    -8009762.738 6  -6241362.04121        15.750           0.844
  20436400.097    -1629251.146 7  -1269547.00222        20.500           1.656
  23170284.894    -4235366.113 5  -3238255.64321        11.250           0.375
  23546264.870    -4200871.921 5  -3051895.74921         7.500           0.219
 91  5 21 18 37 59.9990000  0  6G18G 2G11G19G16G 6
  21333299.144     3591597.895 7   2798640.23622        24.250           1.938
  22236298.042   -11373843.889 6  -8862719.79721        18.000           1.250
  22925486.784    -8038766.675 6  -6263962.47221        16.250           0.844
  20435791.558    -1632457.998 7  -1272045.85222        20.000           1.781
  23165786.823    -4258996.496 5  -3256668.94621        11.250           0.219
  23537534.511    -4246761.296 5  -3087653.63721         7.500           0.281
 91  5 21 18 38 14.9990000  0  6G18G 2G11G19G16G 6
  21338504.425     3618954.971 7   2819957.37522        23.750           1.906
  22226504.940   -11425313.478 6  -8902825.93321        18.500           1.125
  22919994.112    -8067638.087 6  -6286459.62821        15.750           0.750
  20435189.862    -1635613.912 7  -1274505.01622        20.500           1.750
  23161319.526    -4282493.330 5  -3274978.18221        11.500           0.250
  23528801.940    -4292633.296 5  -3123397.95021         7.750           0.313
 91  5 21 18 38 29.9990000  0  6G18G 2G11G19G16G 6
  21343729.815     3646400.020 7   2841343.06322        24.250           1.875
  22216721.214   -11476718.405 6  -8942881.67421        18.250           1.094
  22914525.511    -8096375.615 6  -6308852.46821        16.250           0.781
  20434598.995    -1638717.703 7  -1276923.55822        20.250           1.781
  23156871.511    -4305855.195 5  -3293182.22421        11.000           0.344
  23520078.612    -4338486.790 5  -3159127.86621         7.750           0.250
 91  5 21 18 38 44.9990000  0  6G18G 2G11G19G16G 6
  21348968.284     3673936.154 7   2862799.73122        24.250           1.938
  22206952.714   -11528055.447 6  -8982884.51721        18.250           1.125
  22909082.355    -8124975.914 6  -6331138.37221        16.250           0.688
  20434018.394    -1641766.141 7  -1279298.97522        20.500           1.844
  23152453.440    -4329079.280 5  -3311278.91221        11.250           0.250
  23511357.620    -4384318.676 5  -3194840.93921         8.250           0.281
 91  5 21 18 38 59.9990000  0  6G18G 2G11G19G16G 6
  21354224.198     3701555.765 7   2884321.44322        24.250           1.875
  22197194.933   -11579331.781 6  -9022840.05721        18.250           1.281
  22903662.901    -8153446.034 6  -6353322.84121        15.500           0.875
  20433448.886    -1644766.582 7  -1281636.98622        20.750           1.656
  23148054.331    -4352173.005 5  -3329274.01821        11.250           0.344
  23502640.394    -4430136.302 5  -3230542.92221         8.500           0.219
 91  5 21 18 39 14.9990000  0  6G18G 2G11G19G16G 6
  21359496.737     3729258.728 7   2905908.10622        24.000           1.969
  22187450.503   -11630547.299 6  -9062748.20121        19.000           1.125
  22898271.003    -8181785.583 6  -6375405.57421        15.750           0.875
  20432888.050    -1647719.043 7  -1283937.61022        21.000           1.594
  23143687.909    -4375135.931 5  -3347167.23421        11.250           0.188
  23493927.159    -4475939.650 5  -3266233.74921         8.750           0.281
 91  5 21 18 39 29.9990000  0  6G18G 2G11G19G16G 6
  21364783.683     3757045.286 7   2927559.90522        23.750           1.875
  22177714.870   -11681701.731 6  -9102608.75921        19.000           1.250
  22892904.276    -8209994.297 6  -6397386.34121        16.000           0.844
  20432332.933    -1650623.245 7  -1286200.63022        20.500           1.688
  23139343.347    -4397967.960 5  -3364958.42921        11.750           0.344
  23485207.925    -4521728.440 5  -3301913.25821         8.750           0.313
 91  5 21 18 39 44.9990000  0  6G18G 2G11G19G16G 6
  21370089.917     3784922.114 7   2949282.03822        24.250           1.969
  22167992.230   -11732788.020 6  -9142416.21621        19.000           1.281
  22887561.698    -8238065.068 6  -6419259.63821        16.000           0.844
  20431791.503    -1653472.226 7  -1288420.62422        20.750           1.719
  23135024.409    -4420661.962 5  -3382642.05221        11.250           0.281
  23476500.980    -4567495.932 5  -3337576.14021         8.750           0.344
 91  5 21 18 39 59.9990000  0  6G18G 2G11G19G16G 6
  21375410.581     3812888.831 7   2971074.21522        23.750           1.906
  22158285.597   -11783806.050 6  -9182170.48421        19.250           1.406
  22882246.737    -8265997.661 6  -6441025.24921        16.000           0.875
  20431259.526    -1656266.177 7  -1290597.73522        20.750           1.844
  23130731.214    -4443217.851 5  -3400218.08821        11.250           0.313
  23467797.948    -4613242.103 5  -3373222.43621         9.000           0.438
 91  5 21 18 40 14.9990000  0  6G18G 2G11G19G16G 6
  21380749.737     3840949.075 7   2992939.27822        23.500           1.781
  22148591.745   -11834751.587 6  -9221868.26321        19.250           1.406
  22876957.565    -8293787.847 6  -6462679.90621        16.000           0.813
  20430740.534    -1659001.162 7  -1292728.89822        21.000           1.813
  23126469.401    -4465631.827 5  -3417683.51721        11.250           0.219
  23459092.573    -4658962.965 5  -3408849.00521         9.000           0.469
 91  5 21 18 40 29.9990000  0  6G18G 2G11G19G16G 6
  21386106.120     3869092.454 7   3014869.11822        24.250           1.906
  22138907.003   -11885634.977 6  -9261517.61321        19.250           1.250
  22871694.417    -8321445.828 6  -6484231.54321        16.250           0.875
  20430227.534    -1661687.588 7  -1294822.22222        21.000           1.875
  23122228.480    -4487914.210 5  -3435046.42921        11.500           0.281
  23450398.808    -4704669.138 5  -3444464.13521         9.500           0.406
 91  5 21 18 40 44.9990000  0  6G18G 2G11G19G16G 6
  21391478.230     3897321.531 7   3036865.73122        24.250           1.875
  22129237.761   -11936453.609 6  -9301116.50321        19.500           1.188
  22866456.120    -8348968.732 6  -6505677.93121        16.500           0.813
  20429727.487    -1664322.667 7  -1296875.54222        21.250           1.688
  23118012.440    -4510062.318 5  -3452304.70121        11.250           0.313
  23441702.925    -4750357.923 5  -3480065.69921         9.250           0.438
 91  5 21 18 40 59.9990000  0  6G18G 2G11G19G16G 6
  21396866.151     3925639.275 7   3058931.44722        24.250           1.844
  22119581.597   -11987203.926 6  -9340662.17521        19.500           1.281
  22861246.901    -8376352.971 6  -6527016.26821        17.000           0.813
  20429237.472    -1666903.077 7  -1298886.25322        20.250           1.750
  23113822.323    -4532072.830 5  -3469455.74721        11.250           0.313
  23433008.448    -4796025.975 5  -3515651.11421         9.000           0.344
 91  5 21 18 41 14.9990000  0  6G18G 2G11G19G16G 6
  21402271.948     3954045.149 7   3081065.83322        23.750           1.938
  22109933.948   -12037886.029 6  -9380154.67521        19.500           1.250
  22856060.440    -8403598.621 6  -6548246.60821        16.500           0.906
  20428754.292    -1669429.084 7  -1300854.57922        21.250           1.875
  23109661.831    -4553945.883 5  -3486499.70721        11.500           0.281
  23424325.019    -4841673.632 5  -3551220.65021         9.250           0.344
 91  5 21 18 41 29.9990000  0  6G18G 2G11G19G16G 6
  21407693.761     3982538.549 7   3103268.41022        23.750           1.781
  22100304.831   -12088500.399 7  -9419594.39521        20.000           1.250
  22850904.651    -8430706.062 6  -6569369.25821        17.250           0.875
  20428283.706    -1671901.310 7  -1302780.99522        21.250           1.750
  23105525.198    -4575681.996 5  -3503436.95421        11.250           0.375
  23415641.323    -4887301.505 5  -3586774.76421         9.250           0.438
 91  5 21 18 41 44.9990000  0  6G18G 2G11G19G16G 6
  21413133.886     4011117.724 7   3125537.82922        24.000           1.813
  22090684.503   -12139048.621 6  -9458982.57821        19.500           1.250
  22845770.800    -8457676.822 6  -6590385.40121        16.750           0.844
  20427822.972    -1674321.484 7  -1304666.85422        21.000           1.844
  23101416.144    -4597282.692 5  -3520268.65821        11.500           0.250
  23406962.761    -4932911.255 5  -3622314.76521         9.500           0.438
 91  5 21 18 41 59.9990000  0  6G18G 2G11G19G16G 6
  21418587.667     4039779.185 7   3147871.37322        23.750           1.781
  22081079.073   -12189533.640 6  -9498321.51121        19.750           1.313
  22840663.276    -8484513.814 6  -6611297.31021        17.000           0.938
  20427371.456    -1676692.880 7  -1306514.70322        21.250           1.813
  23097329.206    -4618751.175 5  -3536997.35221        11.250           0.250
  23398286.800    -4978506.048 5  -3657843.10521         9.500           0.375
 91  5 21 18 42 14.9990000  0  6G18G 2G11G19G16G 6
  21424057.722     4068523.644 7   3170269.58422        24.000           1.750
  22071483.894   -12239954.430 6  -9537610.39621        19.750           1.344
  22835582.167    -8511215.792 6  -6632104.02921        17.000           0.750
  20426930.605    -1679014.314 7  -1308323.62022        21.250           1.813
  23093269.190    -4640086.442 5  -3553622.24621        11.000           0.344
  23389611.972    -5024084.934 5  -3693359.04521         9.250           0.281
 91  5 21 18 42 29.9990000  0  6G18G 2G11G19G16G 6
  21429542.980     4097354.447 7   3192735.07422        23.500           1.875
  22061901.183   -12290307.360 6  -9576846.39621        19.750           1.344
  22830529.144    -8537779.161 6  -6652802.72921        17.500           0.875
  20426499.136    -1681282.400 7  -1310090.97122        21.000           1.688
  23089237.409    -4661285.055 5  -3570140.67321        11.250           0.313
  23380941.714    -5069644.531 5  -3728859.97521         9.250           0.375
 91  5 21 18 42 44.9990000  0  6G18G 2G11G19G16G 6
  21435046.808     4126271.589 7   3215267.84222        24.000           1.781
  22052332.901   -12340592.239 6  -9616029.37621        19.750           1.344
  22825497.730    -8564203.512 6  -6673393.10721        17.250           0.906
  20426078.034    -1683496.866 7  -1311816.53322        21.250           1.719
  23085230.659    -4682347.027 5  -3586552.62221        11.250           0.313
  23372276.675    -5115184.692 5  -3764345.73621         9.250           0.375
 91  5 21 18 42 59.9990000  0  6G18G 2G11G19G16G 6
  21440565.769     4155276.165 7   3237868.74322        23.500           1.781
  22042775.870   -12390807.652 6  -9655158.22221        19.500           1.438
  22820498.526    -8590487.179 6  -6693873.85821        17.750           0.875
  20425667.425    -1685656.410 7  -1313499.30622        21.250           1.719
  23081243.597    -4703270.816 5  -3602856.87521        10.750           0.344
  23363614.565    -5160704.076 5  -3799815.30121         9.500           0.281
 91  5 21 18 43 14.9990000  0  6G18G 2G11G19G16G 6
  21446101.190     4184369.044 7   3260538.44322        23.750           1.719
  22033234.019   -12440952.175 6  -9694231.82621        19.750           1.469
  22815523.261    -8616628.945 6  -6714244.04421        17.500           0.844
  20425266.183    -1687760.084 7  -1315138.54222        21.000           1.750
  23077292.925    -4724055.158 5  -3619052.49321        11.000           0.313
  23354959.190    -5206201.679 5  -3835267.91521         9.500           0.375
 91  5 21 18 43 29.9990000  0  6G18G 2G11G19G16G 6
  21451654.034     4213547.364 7   3283274.72722        23.500           1.750
  22023704.722   -12491028.504 6  -9733252.29821        19.500           1.313
  22810575.737    -8642631.402 6  -6734505.67121        17.750           0.813
  20424876.464    -1689810.493 7  -1316736.27422        21.250           1.719
  23073360.003    -4744702.741 5  -3635141.52521        11.000           0.375
  23346305.323    -5251680.208 5  -3870705.65521        10.000           0.250
 91  5 21 18 43 44.9990000  0  6G18G 2G11G19G16G 6
  21457223.362     4242812.521 7   3306078.67922        23.250           1.750
  22014189.269   -12541034.985 7  -9772218.33621        20.500           1.313
  22805653.847    -8668492.599 6  -6754657.23221        17.250           0.906
  20424496.636    -1691805.903 7  -1318291.14922        21.000           1.750
  23069460.206    -4765212.020 5  -3651122.79821        11.000           0.313
  23337655.823    -5297138.000 5  -3906127.23221        10.000           0.406
 91  5 21 18 43 59.9990000  0  6G18G 2G11G19G16G 6
  21462807.511     4272163.292 7   3328949.34022        23.000           1.844
  22004685.878   -12590972.739 6  -9811130.83721        19.750           1.406
  22800760.206    -8694213.633 6  -6774699.57621        18.000           0.906
  20424128.190    -1693747.598 7  -1319804.16822        21.250           1.875
  23065581.308    -4785584.248 5  -3666997.28921        10.750           0.375
  23329006.401    -5342576.397 5  -3941533.71521         9.750           0.344
 91  5 21 18 44 14.9990000  0  6G18G 2G11G19G16G 6
  21468410.495     4301600.556 7   3351887.39822        23.250           1.750
  21995196.511   -12640840.115 7  -9849988.47922        20.250           1.531
  22795890.386    -8719792.858 6  -6794631.42321        17.500           0.844
  20423768.862    -1695633.920 7  -1321274.03922        21.000           1.750
  23061733.855    -4805817.880 5  -3682763.76221        11.250           0.344
  23320359.730    -5387993.895 5  -3976923.91121         9.250           0.250
 91  5 21 18 44 29.9990000  0  6G18G 2G11G19G16G 6
  21474027.683     4331122.565 7   3374891.49022        23.250           1.719
  21985721.409   -12690638.754 6  -9888792.56821        19.750           1.469
  22791051.190    -8745231.785 6  -6814453.94621        18.000           0.844
  20423418.675    -1697466.650 7  -1322702.15022        21.000           1.750
  23057908.870    -4825914.439 5  -3698423.44421        11.500           0.313
  23311726.995    -5433392.291 5  -4012299.21421        10.000           0.469
 91  5 21 18 44 44.9990000  0  6G18G 2G11G19G16G 6
  21479661.558     4360726.725 7   3397959.59122        23.250           1.750
  21976255.964   -12740371.226 7  -9927545.08922        20.250           1.563
  22786236.245    -8770532.869 6  -6834169.06321        18.000           0.938
  20423079.901    -1699248.664 7  -1324090.74522        21.250           1.781
  23054109.362    -4845876.914 5  -3713978.64321        11.000           0.313
  23303088.690    -5478774.340 5  -4047661.79421         9.750           0.375
 91  5 21 18 44 59.9990000  0  6G18G 2G11G19G16G 6
  21485311.675     4390417.672 7   3421095.31822        23.250           1.750
  21966807.855   -12790032.005 7  -9966241.75121        20.250           1.469
  22781448.261    -8795690.711 6  -6853772.55621        17.500           0.875
  20422752.487    -1700974.706 7  -1325435.72022        21.250           1.844
  23050336.886    -4865699.789 5  -3729425.05521        11.500           0.500
  23294457.034    -5524134.737 5  -4083007.49421         9.750           0.281
 91  5 21 18 45 14.9990000  0  6G18G 2G11G19G16G 6
  21490978.175     4420192.277 7   3444296.23622        23.250           1.625
  21957368.292   -12839624.310 7 -10004885.05921        20.000           1.469
  22776686.675    -8820708.218 6  -6873266.69921        17.500           0.781
  20422434.628    -1702647.943 7  -1326739.55522        21.250           1.719
  23046591.964    -4885386.513 5  -3744765.39521        11.500           0.344
  23285827.284    -5569476.656 5  -4118338.78621        10.000           0.375
 91  5 21 18 45 29.9990000  0  6G18G 2G11G19G16G 6
  21496659.542     4450051.954 7   3467563.43422        23.000           1.656
  21947944.980   -12889146.331 6 -10043473.59322        19.750           1.563
  22771953.362    -8845583.553 6  -6892650.06821        18.000           0.906
  20422125.745    -1704266.702 7  -1328000.93522        21.750           1.688
  23042868.644    -4904935.129 5  -3759998.10221        11.250           0.406
  23277204.292    -5614798.441 5  -4153654.38521        10.000           0.469
 91  5 21 18 45 44.9990000  0  6G18G 2G11G19G16G 6
  21502360.159     4480001.471 7   3490900.63822        23.250           1.594
  21938536.565   -12938593.186 7 -10082003.55922        20.250           1.531
  22767248.456    -8870311.861 6  -6911918.86721        18.000           0.906
  20421828.581    -1705826.144 7  -1329216.09722        21.000           1.813
  23039179.792    -4924340.690 5  -3775119.33321        11.250           0.406
  23268585.542    -5660095.382 5  -4188950.64221        10.500           0.375
 91  5 21 18 45 59.9990000  0  6G18G 2G11G19G16G 6
  21508074.487     4510036.382 7   3514304.39822        23.000           1.594
  21929140.644   -12987968.548 7 -10120477.82222        20.250           1.594
  22762571.019    -8894896.806 6  -6931075.95621        18.000           0.906
  20421541.511    -1707330.200 7  -1330388.09822        21.000           1.781
  23035511.925    -4943607.059 5  -3790132.08521        11.250           0.313
  23259968.144    -5705371.454 5  -4224230.63021        10.000           0.281
 91  5 21 18 46 14.9990000  0  6G18G 2G11G19G16G 6
  21513805.362     4540149.604 7   3537769.16222        22.750           1.656
  21919755.581   -13037279.338 7 -10158901.76421        20.250           1.469
  22757917.878    -8919345.061 6  -6950126.52921        18.000           0.969
  20421265.808    -1708785.667 7  -1331522.23922        21.500           1.875
  23031868.714    -4962741.119 5  -3805041.67721        11.250           0.344
  23251354.683    -5750633.579 5  -4259499.73521        10.000           0.344
 91  5 21 18 46 29.9990000  0  6G18G 2G11G19G16G 6
  21519549.784     4570343.526 7   3561296.82322        23.000           1.656
  21910386.230   -13086523.017 7 -10197273.40722        20.500           1.531
  22753290.761    -8943654.011 6  -6969068.55621        18.000           1.031
  20420998.026    -1710190.179 7  -1332616.67722        21.250           1.875
  23028256.222    -4981740.759 5  -3819846.59121        11.000           0.344
  23242744.886    -5795879.390 5  -4294756.15521        10.000           0.469
 91  5 21 18 46 44.9990000  0  6G18G 2G11G19G16G 6
  21525313.730     4600623.700 7   3584891.69522        22.250           1.625
  21901028.870   -13135693.837 7 -10235588.28322        20.250           1.531
  22748695.034    -8967817.907 6  -6987897.55721        18.500           0.969
  20420742.815    -1711538.162 7  -1333667.06222        21.250           1.844
  23024667.620    -5000600.260 5  -3834542.29721        11.250           0.375
  23234139.620    -5841103.190 5  -4329995.40921        10.250           0.313
 91  5 21 18 46 59.9990000  0  6G18G 2G11G19G16G 6
  21531091.862     4630992.399 7   3608555.53522        22.750           1.594
  21891685.073   -13184788.796 7 -10273844.04022        20.250           1.563
  22744124.745    -8991833.633 6  -7006611.09121        18.000           0.906
  20420496.612    -1712826.790 7  -1334671.19822        21.250           1.875
  23021104.144    -5019316.828 5  -3849126.65121        10.750           0.406
  23225543.026    -5886302.175 5  -4365215.33821        10.250           0.406
 91  5 21 18 47 14.9980000  0  6G18G 2G11G19G16G 6
  21536884.607     4661432.892 7   3632275.32722        23.000           1.625
  21882355.381   -13233819.290 7 -10312049.56922        20.500           1.531
  22739579.920    -9015714.104 6  -7025219.24121        18.000           0.844
  20420259.240    -1714070.464 7  -1335640.31322        21.000           1.813
  23017567.600    -5037903.744 5  -3863609.98721        10.750           0.375
  23216940.397    -5931488.022 5  -4400425.00621        10.000           0.406
 91  5 21 18 47 29.9980000  0  6G18G 2G11G19G16G 6
  21542692.482     4691955.948 7   3656059.44722        22.000           1.656
  21873038.647   -13282784.848 7 -10350204.49522        21.000           1.563
  22735062.561    -9039455.656 6  -7043719.13521        18.750           0.906
  20420034.990    -1715262.747 7  -1336569.37222        20.750           1.781
  23014058.264    -5056356.875 5  -3877989.06521        10.750           0.406
  23208344.373    -5976660.064 5  -4435623.95321         9.750           0.375
 91  5 21 18 47 44.9980000  0  6G18G 2G11G19G16G 6
  21548517.045     4722562.506 7   3679908.63422        22.500           1.594
  21863733.365   -13331678.930 7 -10388303.72822        20.750           1.688
  22730570.459    -9063053.153 6  -7062106.78321        18.000           1.000
  20419817.178    -1716400.278 7  -1337455.77122        21.250           1.781
  23010568.928    -5074671.880 5  -3892260.51921        10.500           0.500
  23199753.717    -6021812.127 5  -4470807.28821        10.500           0.250
 91  5 21 18 47 59.9980000  0  6G18G 2G11G19G16G 6
  21554357.342     4753245.144 7   3703817.10722        22.500           1.563
  21854443.068   -13380508.567 7 -10426352.74522        21.250           1.594
  22726108.053    -9086513.471 6  -7080387.54021        18.250           0.969
  20419608.943    -1717490.076 7  -1338304.97722        21.250           1.813
  23007110.678    -5092855.758 5  -3906429.79121        10.750           0.375
  23191162.107    -6066951.214 5  -4505980.55421        10.250           0.531
 91  5 21 18 48 14.9980000  0  6G18G 2G11G19G16G 6
  21560209.568     4784009.982 7   3727789.63222        22.250           1.563
  21845164.170   -13429267.507 7 -10464346.67721        21.250           1.469
  22721668.592    -9109830.240 6  -7098556.43821        18.500           0.938
  20419412.568    -1718525.896 7  -1339112.12322        21.000           1.813
  23003676.834    -5110902.173 5  -3920491.95321        11.000           0.438
  23182571.061    -6112071.069 5  -4541138.81621        10.000           0.406
 91  5 21 18 48 29.9980000  0  6G18G 2G11G19G16G 6
  21566079.514     4814855.188 7   3751824.78722        22.000           1.625
  21835898.615   -13477957.073 7 -10502286.55322        21.000           1.688
  22717261.951    -9133004.962 6  -7116614.65421        18.750           0.938
  20419229.193    -1719509.436 7  -1339878.52622        20.000           1.813
  23000267.107    -5128812.639 5  -3934448.18321        10.750           0.469
  23173991.912    -6157173.345 5  -4576283.38421        10.250           0.281
 91  5 21 18 48 44.9980000  0  6G18G 2G11G19G16G 6
  21571965.404     4845784.018 7   3775925.09422        22.000           1.563
  21826646.654   -13526573.709 7 -10540169.59622        21.000           1.594
  22712877.631    -9156033.978 6  -7134559.32921        18.500           0.844
  20419047.373    -1720437.270 7  -1340601.53222        21.000           1.844
  22996888.053    -5146583.906 5  -3948295.93921        11.250           0.469
  23165415.107    -6202254.669 5  -4611411.62121        10.250           0.406
 91  5 21 18 48 59.9980000  0  6G18G 2G11G19G16G 6
  21577866.248     4876790.685 7   3800086.05422        22.000           1.531
  21817408.897   -13575122.674 7 -10577999.91322        21.250           1.594
  22708523.053    -9178922.552 6  -7152394.57021        18.750           1.000
  20418883.990    -1721314.797 7  -1341285.32822        20.000           1.813
  22993530.240    -5164221.184 5  -3962039.29821        11.000           0.438
  23156837.990    -6247320.607 5  -4646527.88321        10.500           0.344
 91  5 21 18 49 14.9980000  0  6G18G 2G11G19G16G 6
  21583783.686     4907881.060 7   3824312.24222        22.250           1.625
  21808182.561   -13623598.100 7 -10615772.92222        20.750           1.625
  22704194.701    -9201664.658 6  -7170115.68221        18.500           0.844
  20418725.342    -1722135.917 7  -1341925.17722        21.000           1.813
  22990199.061    -5181718.682 5  -3975673.73921        11.000           0.313
  23148266.014    -6292365.164 5  -4681627.46921        10.750           0.406
 91  5 21 18 49 29.9980000  0  6G18G 2G11G19G16G 6
  21589713.139     4939049.361 7   3848599.14922        21.750           1.625
  21798971.240   -13672005.519 7 -10653492.94122        21.250           1.594
  22699893.943    -9224265.788 6  -7187726.94221        18.750           0.906
  20418581.881    -1722906.289 7  -1342525.47922        20.250           1.906
  22986897.811    -5199082.051 5  -3989203.65721        11.000           0.438
  23139698.936    -6337393.997 5  -4716714.81421        10.500           0.313
 91  5 21 18 49 44.9980000  0  6G18G 2G11G19G16G 6
  21595661.873     4970302.567 7   3872952.21122        22.250           1.594
  21789773.553   -13720337.393 7 -10691154.09222        21.000           1.625
  22695622.209    -9246718.329 6  -7205222.42121        18.750           0.969
  20418443.553    -1723618.512 7  -1343080.46922        20.750           1.875
  22983617.912    -5216303.807 5  -4002623.21121        11.000           0.438
  23131134.787    -6382399.672 5  -4751784.10521        10.750           0.438
 91  5 21 18 49 59.9980000  0  6G18G 2G11G19G16G 6
  21601624.443     5001641.479 7   3897372.06522        21.500           1.531
  21780593.209   -13768592.721 7 -10728755.59622        21.250           1.625
  22691375.818    -9269021.312 6  -7222601.35721        19.000           0.938
  20418322.404    -1724271.806 7  -1343589.54822        20.500           1.875
  22980370.170    -5233383.104 5  -4015931.77821        10.750           0.406
  23122576.326    -6427381.413 5  -4786834.74321        11.250           0.375
 91  5 21 18 50 14.9980000  0  6G18G 2G11G19G16G 6
  21607604.123     5033057.797 7   3921852.23022        21.750           1.563
  21771421.654   -13816779.543 7 -10766303.71722        20.750           1.688
  22687160.514    -9291182.526 6  -7239869.82421        18.750           0.844
  20418204.959    -1724874.044 7  -1344058.83222        21.000           1.906
  22977146.326    -5250328.104 5  -4029135.70621        11.500           0.406
  23114018.740    -6472347.378 5  -4821873.09321        11.500           0.375
 91  5 21 18 50 29.9980000  0  6G18G 2G11G19G16G 6
  21613597.740     5064558.933 7   3946398.48922        21.750           1.594
  21762266.732   -13864890.255 7 -10803792.53422        21.000           1.688
  22682971.162    -9313194.262 6  -7257021.81821        18.500           0.844
  20418103.186    -1725417.739 7  -1344482.50622        20.500           1.906
  22973948.014    -5267131.182 5  -4042229.02721        11.250           0.375
  23105465.279    -6517289.903 5  -4856893.18521        11.250           0.500
 91  5 21 18 50 44.9980000  0  6G18G 2G11G19G16G 6
  21619607.170     5096138.148 7   3971005.58822        21.500           1.531
  21753126.412   -13912931.102 7 -10841226.90422        21.000           1.719
  22678809.240    -9335062.908 6  -7274062.31421        18.750           0.906
  20418006.475    -1725909.457 7  -1344865.67422        20.500           1.938
  22970777.131    -5283798.968 5  -4055216.93821        11.250           0.531
  23096914.389    -6562215.579 5  -4891900.14821        11.000           0.406
 91  5 21 18 50 59.9980000  0  6G18G 2G11G19G16G 6
  21625632.576     5127802.586 7   3995679.09622        21.750           1.594
  21743997.662   -13960894.311 7 -10878600.78022        20.500           1.750
  22674678.045    -9356780.709 6  -7290985.26821        18.750           0.813
  20417924.826    -1726341.695 7  -1345202.50022        20.750           1.875
  22967630.459    -5300323.960 5  -4068093.58021        11.500           0.469
  23088370.232    -6607116.821 5  -4926888.05921        11.000           0.406
 91  5 21 18 51 14.9980000  0  6G18G 2G11G19G16G 6
  21631673.693     5159544.957 7   4020413.33222        22.250           1.531
  21734884.647   -14008787.388 7 -10915920.00622        20.750           1.656
  22670571.600    -9378355.013 6  -7307796.39821        18.250           0.844
  20417854.342    -1726721.827 7  -1345498.72122        20.500           1.969
  22964513.107    -5316713.323 5  -4080864.54821        11.500           0.469
  23079828.732    -6652001.125 5  -4961862.79321        11.000           0.344
 91  5 21 18 51 29.9980000  0  6G18G 2G11G19G16G 6
  21637728.256     5191365.833 7   4045208.74221        22.000           1.469
  21725782.904   -14056609.272 7 -10953183.75922        20.750           1.719
  22666492.537    -9399784.690 6  -7324494.83621        18.750           0.844
  20417791.139    -1727048.859 7  -1345753.56422        20.500           1.875
  22961419.982    -5332966.566 5  -4093529.42221        11.500           0.563
  23071291.904    -6696867.585 5  -4996823.60021        11.000           0.313
 91  5 21 18 51 44.9980000  0  6G18G 2G11G19G16G 6
  21643797.295     5223259.784 7   4070061.09221        22.250           1.469
  21716693.826   -14104365.229 7 -10990396.13822        20.750           1.813
  22662442.787    -9421074.732 6  -7341084.46821        18.750           0.875
  20417735.725    -1727327.999 7  -1345971.09222        20.250           2.000
  22958349.818    -5349088.631 5  -4106092.09621        11.500           0.500
  23062758.326    -6741721.402 5  -5031774.57521        10.750           0.344
 91  5 21 18 51 59.9980000  0  6G18G 2G11G19G16G 6
  21649882.506     5255231.829 7   4094974.29122        22.250           1.531
  21707622.475   -14152049.507 7 -11027552.66822        20.750           1.719
  22658417.607    -9442219.573 6  -7357560.95921        18.500           0.875
  20417693.561    -1727553.737 7  -1346147.01022        20.250           1.938
  22955312.561    -5365074.031 5  -4118548.26821        11.750           0.500
  23054225.154    -6786557.143 5  -5066711.45021        11.000           0.375
 91  5 21 18 52 14.9980000  0  6G18G 2G11G19G16G 6
  21655979.850     5287282.567 7   4119948.81021        21.750           1.438
  21698563.592   -14199661.300 7 -11064652.71022        21.500           1.906
  22654424.623    -9463218.346 6  -7373923.62321        18.250           0.750
  20417661.584    -1727725.330 7  -1346280.73522        20.000           1.938
  22952295.459    -5380922.274 5  -4130897.57521        11.750           0.563
  23045695.811    -6831374.132 5  -5101633.72821        11.000           0.469
 91  5 21 18 52 29.9980000  0  6G18G 2G11G19G16G 6
  21662094.201     5319407.332 7   4144981.02222        22.000           1.500
  21689514.959   -14247205.289 7 -11101699.91922        21.250           1.844
  22650452.404    -9484075.613 6  -7390176.03121        18.000           0.875
  20417638.857    -1727847.392 7                        20.000
  22949303.826    -5396637.975 5  -4143143.59221        11.750           0.500
  23037168.772    -6876177.083 5  -5136545.05321        10.750           0.438
 91  5 21 18 52 44.9980000  0  6G18G 2G11G19G16G 6
  21668223.100     5351608.939 7   4170073.10021        22.250           1.438
  21680480.475   -14294677.966 7 -11138691.55922        21.500           1.875
  22646512.568    -9504787.833 6  -7406315.40821        18.500           0.813
  20417625.076    -1727916.733 6                        19.500
  22946339.779    -5412217.819 5  -4155283.75021        11.750           0.500
  23028647.623    -6920962.580 5  -5171442.78021        10.750           0.531
 91  5 21 18 52 59.9980000  0  6G18G 2G11G19G16G 6
  21674363.959     5383886.802 7   4195224.60622        22.000           1.500
  21671460.373   -14342079.671 7 -11175627.89922        21.250           1.781
  22642598.076    -9525355.367 6  -7422342.04521        18.000           0.781
  20417620.709    -1727933.814 6                        19.750
  22943402.178    -5427662.360 6  -4167318.47721        12.250           0.625
  23020129.514    -6965731.237 5  -5206327.38921        10.750           0.500
 91  5 21 18 53 14.9980000  0  6G18G 2G11G19G16G 6
  21680523.193     5416247.020 7   4220440.28221        21.750           1.406
  21662455.014   -14389404.148 7 -11212504.06422        21.250           1.906
  22638713.959    -9545771.805 6  -7438250.95321        17.750           0.781
  20417630.147    -1727892.435 7                        20.000
  22940484.178    -5442965.112 5  -4179242.72321        11.750           0.500
  23011610.795    -7010476.772 5  -5241193.99721        10.500           0.469
 91  5 21 18 53 29.9980000  0  6G18G 2G11G19G16G 6
  21686696.248     5448681.100 7   4245713.51722        21.750           1.531
  21653461.787   -14436659.647 7 -11249326.47222        21.250           1.750
  22634853.865    -9566045.463 6  -7454048.59521        17.750           0.813
  20417649.811    -1727800.810 6                        19.250
  22937602.147    -5458134.568 6  -4191063.09821        12.500           0.531
  23003102.061    -7055207.590 5  -5276049.13121        10.750           0.469
 91  5 21 18 53 44.9980000  0  6G18G 2G11G19G16G 6
  21692881.982     5481200.697 7   4271053.37821        21.750           1.469
  21644483.990   -14483834.202 7 -11286085.81922        20.750           1.875
  22631025.373    -9586164.260 6  -7469725.56721        17.500           0.781
  20417677.318    -1727647.011 7                        20.000
  22934740.264    -5473159.114 6  -4202770.56421        12.250           0.406
  22994596.334    -7099911.741 5  -5310883.49621        11.000           0.375
 91  5 21 18 53 59.9980000  0  6G18G 2G11G19G16G 6
  21699086.607     5513796.178 7   4296452.36621        21.500           1.469
  21635521.279   -14530937.044 7 -11322789.28022        21.000           1.875
  22627225.506    -9606137.456 6  -7485289.08321        17.750           0.844
  20417714.818    -1727440.428 7                        20.250
  22931910.459    -5488048.213 6  -4214372.47721        12.500           0.469
  22986089.365    -7144598.559 5  -5345704.33421        10.750           0.375
 91  5 21 18 54 14.9980000  0  6G18G 2G11G19G16G 6
  21705301.795     5546468.297 7   4321911.07321        21.000           1.469
  21626571.756   -14577967.145 7 -11359436.05922        20.750           1.906
  22623453.295    -9625963.895 6  -7500738.24021        17.750           0.813
  20417764.420    -1727180.179 7  -1345856.07022        20.000           2.000
  22929104.576    -5502800.479 6  -4225867.78521        12.750           0.531
  22977589.404    -7189267.038 5  -5380510.76121        10.750           0.500
 91  5 21 18 54 29.9980000  0  6G18G 2G11G19G16G 6
  21711533.803     5579214.706 7   4347427.67521        21.250           1.438
  21617637.014   -14624926.186 7 -11396027.47322        21.000           1.969
  22619707.295    -9645645.379 6  -7516074.45321        17.750           0.688
  20417825.623    -1726868.017 7  -1345612.84722        20.000           1.938
  22926322.936    -5517418.073 6  -4237258.14421        12.500           0.500
  22969091.764    -7233919.386 5  -5415304.67821        10.750           0.625
 91  5 21 18 54 44.9980000  0  6G18G 2G11G19G16G 6
  21717782.272     5612038.115 7   4373004.27021        21.750           1.438
  21608712.865   -14671811.433 7 -11432561.38222        20.500           1.875
  22615990.451    -9665179.053 6  -7531295.48121        17.750           0.781
  20417895.186    -1726501.221 6  -1345327.04022        19.750           1.938
  22923567.061    -5531898.285 6  -4248541.43821        12.750           0.563
  22960596.537    -7278552.835 5  -5450083.92921        10.500           0.406
 91  5 21 18 54 59.9980000  0  6G18G 2G11G19G16G 6
  21724041.037     5644938.514 7   4398640.85121        21.250           1.406
  21599806.647   -14718622.720 7 -11469037.66522        21.250           2.000
  22612301.545    -9684564.719 6  -7546401.18621        17.500           0.813
  20417976.459    -1726079.768 7  -1344998.65422        20.250           2.031
  22920836.928    -5546241.248 6  -4259717.80421        12.500           0.563
  22952109.889    -7323167.300 5  -5484848.38721        10.500           0.375
 91  5 21 18 55 14.9980000  0  6G18G 2G11G19G16G 6
  21730317.576     5677917.192 7   4424338.42921        21.500           1.375
  21590911.615   -14765358.116 7 -11505454.80422        20.750           1.906
  22608639.561    -9703800.400 6  -7561390.02121        17.750           0.750
  20418067.764    -1725601.885 7  -1344626.29322        20.250           1.969
  22918133.107    -5560445.106 6  -4270785.77321        12.750           0.531
  22943622.584    -7367760.993 5  -5519596.62921        10.500           0.469
 91  5 21 18 55 29.9980000  0  6G18G 2G11G19G16G 6
  21736607.412     5710972.620 7   4450095.81321        21.250           1.469
  21582033.537   -14812018.893 7 -11541813.80022        21.000           1.969
  22605008.576    -9722887.404 6  -7576263.00821        18.000           0.813
  20418166.178    -1725068.953 7  -1344211.03922        20.000           1.875
  22915458.318    -5574511.383 6  -4281746.53921        12.750           0.469
  22935143.381    -7412335.299 5  -5554329.80121        10.500           0.438
 91  5 21 18 55 44.9980000  0  6G18G 2G11G19G16G 6
  21742910.467     5744097.661 7   4475907.43521        21.250           1.406
  21573166.803   -14858612.233 7 -11578120.25122        21.250           1.938
  22601404.170    -9741832.790 6  -7591025.62321        17.750           0.844
  20418278.545    -1724488.263 7  -1343758.56922        20.250           1.906
  22912803.225    -5588447.360 6  -4292605.75921        12.500           0.500
  22926658.482    -7456897.419 5  -5589053.46021        10.500           0.563
 91  5 21 18 55 59.9980000  0  6G18G 2G11G19G16G 6
  21749227.498     5777297.117 7   4501777.05721        21.250           1.375
  21564314.600   -14905132.540 7 -11614369.79622        21.000           1.906
  22597825.545    -9760631.009 6  -7605673.57021        17.500           0.813
  20418399.357    -1723854.065 7  -1343264.40122        20.500           1.906
  22910178.334    -5602247.526 6  -4303359.15421        12.750           0.469
  22918187.303    -7501441.994 5  -5623763.45221        10.750           0.594
 91  5 21 18 56 14.9980000  0  6G18G 2G11G19G16G 6
  21755561.381     5810568.375 7   4527702.62721        21.500           1.281
  21555475.639   -14951582.175 7 -11650564.26422        21.500           2.000
  22594276.131    -9779284.321 6  -7620208.61221        17.250           0.781
  20418528.092    -1723168.824 7  -1342730.46022        20.000           1.969
  22907576.170    -5615914.146 6  -4314008.49221        12.250           0.500
  22909713.678    -7545971.419 5  -5658461.62721        10.750           0.469
 91  5 21 18 56 29.9980000  0  6G18G 2G11G19G16G 6
  21761904.865     5843915.776 7   4553687.52721        21.000           1.313
  21546649.639   -14997956.792 7 -11686700.28222        21.500           1.906
  22590755.709    -9797788.184 6  -7634627.18421        17.250           0.844
  20418671.053    -1722428.168 7  -1342153.34122        20.500           1.906
  22905003.029    -5629443.143 6  -4324550.58821        12.500           0.469
  22901242.639    -7590481.283 5  -5693144.57821        10.250           0.469
 91  5 21 18 56 44.9980000  0  6G18G 2G11G19G16G 6
  21768266.428     5877334.673 7   4579728.14121        21.250           1.281
  21537839.397   -15044260.756 7 -11722781.23322        21.500           1.906
  22587261.928    -9816147.052 6  -7648932.78421        17.250           0.781
  20418820.725    -1721636.631 7  -1341536.57522        20.750           1.938
  22902454.084    -5642838.960 6  -4334988.91021        12.250           0.563
  22892777.389    -7634976.155 5  -5727815.83321        10.500           0.531
 91  5 21 18 56 59.9980000  0  6G18G 2G11G19G16G 6
  21774637.717     5910822.249 7   4605822.27021        21.250           1.375
  21529042.600   -15090496.520 7 -11758809.05122        22.000           2.000
  22583796.420    -9834363.198 6  -7663127.16521        17.250           0.750
  20418980.459    -1720796.685 7  -1340882.08722        20.500           1.938
  22899929.990    -5656104.284 6  -4345325.53821        12.500           0.594
  22884308.568    -7679458.517 5  -5762477.35221        10.250           0.563
 91  5 21 18 57 14.9980000  0  6G18G 2G11G19G16G 6
  21781025.607     5944384.905 7   4631974.90121        21.250           1.281
  21520256.795   -15136657.230 7 -11794778.38522        21.750           2.000
  22580358.873    -9852429.844 6  -7677205.05321        17.500           0.781
  20419149.248    -1719901.541 7  -1340184.58222        20.500           1.781
  22897430.272    -5669232.359 6  -4355555.22821        12.000           0.469
  22875848.436    -7723921.687 5  -5797123.91221        10.000           0.531
 91  5 21 18 57 29.9980000  0  6G18G 2G11G19G16G 6
  21787425.350     5978024.955 7   4658187.83121        21.000           1.344
  21511486.318   -15182740.483 7 -11830687.37122        21.750           2.000
  22576948.373    -9870344.707 6  -7691164.68121        17.500           0.750
  20419330.756    -1718949.005 7  -1339442.36322        20.750           1.813
  22894959.498    -5682220.746 6  -4365676.08221        12.250           0.469
  22867389.701    -7768363.371 5  -5831753.72621        10.000           0.531
 91  5 21 18 57 44.9980000  0  6G18G 2G11G19G16G 6
  21793841.451     6011737.790 7   4684457.48121        20.750           1.219
  21502732.076   -15228750.441 7 -11866539.23822        22.250           1.938
  22573567.240    -9888111.964 6  -7705009.27721        18.000           0.844
  20419523.834    -1717943.377 7  -1338658.76822        20.750           1.813
  22892515.647    -5695073.991 6  -4375691.61121        12.500           0.500
  22858933.576    -7812787.952 5  -5866370.21121         9.750           0.531
 91  5 21 18 57 59.9980000  0  6G18G 2G11G19G16G 6
  21800271.342     6045520.099 7   4710781.27321        20.500           1.188
  21493989.818   -15274690.035 7 -11902336.28222        22.250           1.938
  22570214.303    -9905734.276 6  -7718740.93421        17.750           0.844
  20419724.022    -1716887.458 7  -1337835.98422        21.000           1.844
  22890093.795    -5707795.116 6  -4385604.20021        12.250           0.594
  22850487.162    -7857198.291 5  -5900975.60521        10.000           0.594
 91  5 21 18 58 14.9980000  0  6G18G 2G11G19G16G 6
  21806712.881     6079375.172 7   4737161.75221        20.250           1.281
  21485261.904   -15320555.673 7 -11938075.69422        22.750           1.875
  22566888.553    -9923208.064 6  -7732356.86021        17.500           0.750
  20419936.873    -1715777.865 7  -1336971.38022        21.000           1.750
  22887697.561    -5720380.752 6  -4395411.20521        12.250           0.438
  22842039.561    -7901590.893 5  -5935567.18321        10.250           0.594
 91  5 21 18 58 29.9980000  0  6G18G 2G11G19G16G 6
  21813168.365     6113300.177 7   4763596.73021        20.000           1.156
  21476548.748   -15366350.007 7 -11973759.55122        22.500           1.906
  22563591.443    -9940536.140 6  -7745859.24521        17.500           0.781
  20420155.131    -1714617.306 7  -1336067.06322        21.500           1.688
  22885331.295    -5732833.316 6  -4405114.52121        12.500           0.469
  22833595.420    -7945968.665 5  -5970147.19521        10.500           0.469
 91  5 21 18 58 44.9980000  0  6G18G 2G11G19G16G 6
  21819640.334     6147304.795 7   4790093.73921        20.000           1.188
  21467849.709   -15412062.608 7 -12009379.72022        23.000           1.906
  22560323.803    -9957708.166 6  -7759240.02921        18.000           0.813
  20420388.811    -1713395.607 7  -1335115.10222        20.750           1.719
  22882987.576    -5745143.239 6  -4414706.69221        12.000           0.531
  22825151.248    -7990321.360 5  -6004707.66821        10.000           0.531
 91  5 21 18 58 59.9980000  0  6G18G 2G11G19G16G 6
  21826123.662     6181375.918 7   4816642.57721        20.500           1.094
  21459163.217   -15457706.485 7 -12044946.33022        23.000           1.906
  22557083.170    -9974736.884 6  -7772509.15121        18.000           0.781
  20420630.475    -1712125.650 7  -1334125.53622        20.750           1.781
  22880670.600    -5757323.339 6  -4424197.70821        12.250           0.500
  22816712.217    -8034661.891 5  -6039258.67221        10.000           0.531
 91  5 21 18 59 14.9980000  0  6G18G 2G11G19G16G 6
  21832620.951     6215518.597 6   4843247.16821        19.500           1.313
  21450490.678   -15503276.406 7 -12080455.32122        23.000           1.938
  22553871.607    -9991617.194 6  -7785662.61821        18.000           0.906
  20420883.436    -1710802.251 7  -1333094.32922        20.750           1.688
  22878378.272    -5769368.511 6  -4433583.56221        12.250           0.531
  22808282.061    -8078985.277 5  -6073796.31121        10.000           0.563
 91  5 21 18 59 29.9980000  0  6G18G 2G11G19G16G 6
  21839132.037     6249733.590 6   4869908.09621        19.750           1.188
  21441833.404   -15548771.441 7 -12115905.95722        22.750           1.938
  22550687.123   -10008348.038 6  -7798699.63821        18.000           0.781
  20421144.975    -1709424.461 7  -1332020.74122        21.000           1.750
  22876110.326    -5781277.967 6  -4442863.69621        12.250           0.563
  22799850.920    -8123290.556 5  -6108319.84521        10.250           0.563
 91  5 21 18 59 44.9980000  0  6G18G 2G11G19G16G 6
  21845655.865     6284020.958 6   4896625.42421        19.250           1.156
  21433189.647   -15594191.012 7 -12151297.78622        23.000           1.875
  22547532.240   -10024928.882 6  -7811619.76421        18.000           0.875
  20421417.717    -1707991.729 7  -1330904.33722        21.000           1.719
  22873870.131    -5793051.306 6  -4452037.75021        12.250           0.531
  22791423.732    -8167577.260 5  -6142828.90521        10.500           0.469
 91  5 21 18 59 59.9980000  0  6G18G 2G11G19G16G 6
  21852194.537     6318379.477 6   4923398.20321        19.500           1.094
  21424560.537   -15639536.255 7 -12186631.69822        23.000           1.906
  22544406.240   -10041360.707 6  -7824423.77621        18.500           0.844
  20421701.959    -1706505.349 7  -1329746.13222        20.500           1.750
  22871652.475    -5804689.733 6  -4461106.66821        12.000           0.500
  22782999.623    -8211846.478 5  -6177324.34921        10.500           0.531
 91  5 21 19  0 14.9980000  0  6G18G 2G11G19G16G 6
  21858746.818     6352810.409 6   4950227.39521        19.500           1.156
  21415945.670   -15684805.484 7 -12221906.38422        22.750           1.844
  22541307.865   -10057641.970 6  -7837110.46221        18.500           0.781
  20421993.561    -1704963.757 7  -1328544.90222        20.750           1.750
  22869463.998    -5816191.850 6  -4470069.38521        12.000           0.469
  22774579.748    -8256096.864 5  -6211805.11321        10.500           0.500
 91  5 21 19  0 29.9980000  0  6G18G 2G11G19G16G 6
  21865312.232     6387312.600 6   4977112.11821        19.750           1.219
  21407347.686   -15729999.417 7 -12257122.39522        23.000           1.875
  22538236.272   -10073773.366 6  -7849680.36621        18.250           0.781
  20422297.412    -1703367.823 7  -1327301.32522        20.750           1.813
  22867299.740    -5827558.263 5  -4478926.34021        11.750           0.594
  22766157.576    -8300329.099 5  -6246271.72021        11.000           0.406
 91  5 21 19  0 44.9980000  0  6G18G 2G11G19G16G 6
  21871890.725     6421882.275 6   5004049.43621        19.250           1.281
  21398759.889   -15775121.547 7 -12292282.45322        23.000           1.844
  22535196.100   -10089758.276 6  -7862136.14021        18.500           0.875
  20422611.147    -1701721.004 7  -1326018.10122        20.500           1.719
  22865166.381    -5838792.711 6  -4487680.48521        12.250           0.531
  22757748.037    -8344546.846 5  -6280727.05221        11.000           0.531
 91  5 21 19  0 59.9980000  0  6G18G 2G11G19G16G 6
  21878482.936     6456525.012 6   5031043.66721        19.250           1.219
  21390187.451   -15820165.970 7 -12327381.96622        23.000           1.906
  22532182.982   -10105590.824 6  -7874473.17921        18.500           0.875
  20422939.592    -1700017.312 6  -1324690.55322        19.750           1.844
  22863054.576    -5849889.596 6  -4496327.43421        12.000           0.563
  22749333.928    -8388744.137 5  -6315166.45521        11.250           0.563
 91  5 21 19  1 14.9980000  0  6G18G 2G11G19G16G 6
  21885088.186     6491232.617 6   5058088.46121        19.000           1.125
  21381630.014   -15865140.692 7 -12362427.15822        23.500           2.000
  22529197.584   -10121279.085 6  -7886697.78421        18.250           0.813
  20423268.990    -1698265.105 7  -1323325.20822        20.500           1.875
  22860964.225    -5860857.360 6  -4504873.77321        12.000           0.563
  22740930.061    -8432929.274 5  -6349596.37921        11.500           0.563
 91  5 21 19  1 29.9980000  0  6G18G 2G11G19G16G 6
  21891704.342     6526005.013 6   5085183.73821        19.250           1.188
  21373083.725   -15910045.170 7 -12397417.62022        23.000           1.938
  22526239.053   -10136822.502 6  -7898809.53621        18.500           0.813
  20423614.522    -1696463.849 6  -1321921.64322        19.750           1.750
  22858906.912    -5871695.277 6  -4513318.93421        12.750           0.500
  22732523.365    -8477101.767 5  -6384016.44621        11.500           0.594
 91  5 21 19  1 44.9980000  0  6G18G 2G11G19G16G 6
  21898335.990     6560846.632 6   5112332.94821        18.750           1.094
  21364554.186   -15954874.709 7 -12432349.69122        23.250           2.031
  22523310.193   -10152216.442 6  -7910804.80721        18.500           0.938
  20423965.451    -1694608.940 7  -1320476.27122        20.500           1.844
  22856868.631    -5882398.942 6  -4521659.46621        12.250           0.469
  22724119.686    -8521257.073 5  -6418423.12221        11.250           0.625
 91  5 21 19  1 59.9980000  0  6G18G 2G11G19G16G 6
  21904979.732     6595759.750 6   5139537.87621        18.750           1.125
  21356039.397   -15999626.788 7 -12467221.39822        23.750           2.031
  22520410.787   -10167458.248 6  -7922681.53421        18.750           0.750
  20424330.279    -1692697.925 6  -1318987.17822        19.500           1.875
  22854857.334    -5892965.750 6  -4529893.37121        12.000           0.563
  22715718.397    -8565392.671 5  -6452814.43721        11.500           0.531
 91  5 21 19  2 14.9980000  0  6G18G 2G11G19G16G 6
  21911634.936     6630740.710 6   5166795.66521        19.000           1.063
  21347536.162   -16044305.195 7 -12502035.69922        23.500           2.000
  22517537.162   -10182551.555 6  -7934442.54421        18.500           0.906
  20424702.217    -1690734.273 7  -1317457.07522        20.500           1.844
  22852873.420    -5903399.545 6  -4538023.63521        12.000           0.469
  22707326.654    -8609512.244 5  -6487193.25621        11.500           0.469
 91  5 21 19  2 29.9980000  0  6G18G 2G11G19G16G 6
  21918306.451     6665793.086 6   5194109.10221        18.500           1.125
  21339049.514   -16088905.738 7 -12536789.32222        23.750           2.031
  22514694.107   -10197492.293 6  -7946084.67621        18.500           0.844
  20425087.256    -1688713.811 7  -1315882.69622        20.000           1.813
  22850912.459    -5913696.642 6  -4546047.37121        12.250           0.500
  22698935.959    -8653611.765 6  -6521556.45921        12.000           0.469
 91  5 21 19  2 44.9980000  0  6G18G 2G11G19G16G 6
  21924988.623     6700911.893 6   5221474.29721        18.500           1.000
  21330575.701   -16133432.931 7 -12571485.79822        23.500           1.906
  22511879.225   -10212284.996 6  -7957611.44621        18.500           0.844
  20425479.287    -1686641.553 7  -1314267.96622        20.500           1.813
  22848979.107    -5923861.467 6  -4553968.03521        12.250           0.563
  22690542.490    -8697696.003 6  -6555907.75921        12.000           0.625
 91  5 21 19  2 59.9980000  0  6G18G 2G11G19G16G 6
  21931685.201     6736101.112 6   5248894.37221        18.250           1.063
  21322118.279   -16177882.511 7 -12606121.78922        23.750           2.031
  22509093.115   -10226925.403 6  -7969019.55021        18.250           0.813
  20425885.584    -1684513.135 6  -1312609.46722        19.750           2.063
  22847070.279    -5933890.094 6  -4561782.58421        12.500           0.531
  22682159.943    -8741760.683 6  -6590243.79721        12.000           0.563
 91  5 21 19  3 14.9980000  0  6G18G 2G11G19G16G 6
  21938397.397     6771361.787 6   5276370.10921        18.250           1.063
  21313673.576   -16222253.357 7 -12640696.43122        23.500           2.156
  22506337.303   -10241412.436 6  -7980308.14521        18.750           0.813
  20426301.561    -1682327.610 7  -1310906.47022        20.250           1.938
  22845188.272    -5943781.553 6  -4569490.25121        12.500           0.656
  22673778.936    -8785804.758 6  -6624563.78921        12.250           0.594
 91  5 21 19  3 29.9980000  0  6G18G 2G11G19G16G 6
  21945120.014     6806695.670 6   5303902.90221        17.750           1.000
  21305244.428   -16266543.354 7 -12675208.07122        24.000           2.063
  22503610.295   -10255743.835 6  -7991475.46721        19.000           0.938
  20426727.545    -1680082.701 7  -1309157.20322        20.500           1.875
  22843331.795    -5953533.869 6  -4577089.48821        12.250           0.531
  22665401.678    -8829826.320 6  -6658866.25421        12.250           0.688
 91  5 21 19  3 44.9980000  0  6G18G 2G11G19G16G 6
  21951854.850     6842093.491 6   5331485.51221        18.000           1.031
  21296831.834   -16310761.156 7 -12709663.46122        23.000           2.063
  22500910.272   -10269928.317 6  -8002528.31221        18.750           0.875
  20427165.217    -1677787.278 7  -1307368.57422        20.750           1.875
  22841501.686    -5963155.875 6  -4584587.18021        12.500           0.469
  22657025.311    -8873833.983 6  -6693157.87021        12.250           0.594
 91  5 21 19  3 59.9980000  0  6G18G 2G11G19G16G 6
  21958604.404     6877560.806 6   5359122.27021        18.000           1.094
  21288431.881   -16354901.078 7 -12744058.16122        23.000           2.063
  22498239.256   -10283960.314 6  -8013462.33221        18.500           0.938
  20427611.982    -1675435.564 7  -1305536.08122        20.750           1.938
  22839694.365    -5972642.062 6  -4591979.04721        12.250           0.656
  22648654.678    -8917822.081 6  -6727434.25521        12.500           0.719
 91  5 21 19  4 14.9980000  0  6G18G 2G11G19G16G 6
  21965367.061     6913101.141 6   5386815.93021        17.750           0.875
  21280046.639   -16398959.238 7                        22.750
  22495598.912   -10297835.977 6  -8024274.54421        18.500           0.938
  20428072.545    -1673023.829 7  -1303656.81822        20.750           1.906
  22837919.279    -5981988.544 6  -4599262.04621        12.750           0.469
  22640289.006    -8961786.917 6                        13.000
 91  5 21 19  4 29.9980000  0  6G18G 2G11G19G16G 6
  21972143.639     6948710.231 6   5414563.16021        17.000           1.000
  21271679.123   -16442939.740 7                        22.500
  22492989.647   -10311559.333 6  -8034968.05921        19.000           0.875
  20428541.264    -1670556.207 7  -1301734.00522        20.750           2.000
  22836162.709    -5991199.820 6  -4606439.70121        12.000           0.469
  22631922.982    -9005732.700 6                        12.500
 91  5 21 19  4 44.9980000  0  6G18G 2G11G19G16G 6
  21978931.709     6984386.339 6   5442362.61321        17.500           0.969
  21263324.490   -16486844.107 7                        23.250
  22490404.232   -10325131.756 6  -8045543.96621        18.000           1.031
  20429022.029    -1668034.279 7  -1299768.87922        20.750           1.844
  22834438.389    -6000277.463 6  -4613513.22521        12.500           0.594
  22623567.225    -9049660.902 6                        12.750
 91  5 21 19  4 59.9980000  0  6G18G 2G11G19G16G 6
  21985737.068     7020136.044 6   5470219.42121        17.250           0.969
  21254984.998   -16530665.233 7 -12881017.05922        23.250           2.281
  22487852.967   -10338546.360 6  -8055996.90521        18.000           0.938
  20429512.365    -1665451.005 7  -1297755.94922        20.500           2.000
  22832734.670    -6009214.469 6  -4620477.15621        12.250           0.531
  22615211.217    -9093564.706 6  -6864376.32121        12.500           0.563
 91  5 21 19  5 14.9980000  0  6G18G 2G11G19G16G 6
  21992552.514     7055954.447 6   5498129.74821        17.750           0.844
  21246660.217   -16574407.764 7 -12915102.10922        23.000           2.375
  22485330.225   -10351807.727 6  -8066330.43521        18.250           0.938
  20430016.881    -1662811.012 7  -1295698.82222        20.750           1.906
  22831060.139    -6018015.712 6  -4627335.29521        12.500           0.625
  22606864.482    -9137448.659 6  -6898571.55021        12.750           0.594
 91  5 21 19  5 29.9980000  0  6G18G 2G11G19G16G 6
  21999381.201     7091836.977 6   5526090.05021        17.750           1.094
  21238349.936   -16618075.891 7 -12949129.16822        23.000           2.250
  22482831.920   -10364920.145 6  -8076547.89821        17.750           0.969
  20430527.553    -1660118.738 7  -1293600.95322        21.000           1.969
  22829409.990    -6026685.674 6  -4634091.13821        12.500           0.469
  22598515.287    -9181317.138 6  -6932754.72821        12.500           0.656
 91  5 21 19  5 44.9980000  0  6G18G 2G11G19G16G 6
  22006221.522     7127787.197 6   5554103.09721        17.500           1.000
  21230056.756   -16661665.830 7 -12983095.31122        23.500           2.313
  22480367.912   -10377879.576 6  -8086646.16221        17.750           0.938
  20431050.303    -1657370.130 7  -1291459.19722        20.500           1.969
  22827790.615    -6035220.655 6  -4640741.80521        12.500           0.563
  22590168.717    -9225166.213 6  -6966922.77321        12.000           0.625
 91  5 21 19  5 59.9980000  0  6G18G 2G11G19G16G 6
  22013076.256     7163806.035 6   5582169.61321        17.250           0.969
  21221777.420   -16705176.404 7 -13016999.61722        23.750           2.281
  22477932.037   -10390684.908 6  -8096624.34721        18.250           0.969
  20431587.365    -1654564.139 7  -1289272.71622        20.000           1.938
  22826191.693    -6043619.611 6  -4647286.47121        12.250           0.500
  22581829.803    -9268994.941 6  -7001074.96621        12.500           0.656
 91  5 21 19  6 14.9980000  0  6G18G 2G11G19G16G 6
  22019943.107     7199892.226 6   5610288.61321        17.250           0.969
  21213512.162   -16748608.455 7 -13050842.73722        23.500           2.313
  22475524.467   -10403337.227 6  -8106483.29621        18.750           0.969
  20432130.217    -1651701.716 7  -1287042.26922        21.000           1.938
  22824617.350    -6051883.575 6  -4653725.95521        12.000           0.500
  22573491.912    -9312804.284 6  -7035212.06321        12.250           0.656
 91  5 21 19  6 29.9980000  0  6G18G 2G11G19G16G 6
  22026821.982     7236046.831 6   5638460.91221        17.250           0.969
  21205262.022   -16791960.675 7 -13084623.63722        23.500           2.344
  22473143.607   -10415835.166 6  -8116221.94621        18.000           0.906
  20432684.357    -1648781.662 7  -1284766.91822        21.000           1.906
  22823070.342    -6060011.506 6  -4660059.44521        12.000           0.500
  22565161.451    -9356592.878 6  -7069332.98721        12.500           0.594
 91  5 21 19  6 44.9980000  0  6G18G 2G11G19G16G 6
  22033714.303     7272264.480 6   5666682.33421        16.750           0.969
  21197026.326   -16835237.932 7 -13118346.13422        24.000           2.375
  22470793.928   -10428183.705 6  -8125844.19321        17.750           1.000
  20433252.029    -1645808.936 7  -1282450.51522        21.000           1.969
  22821546.522    -6068008.740 6  -4666291.08721        12.250           0.406
  22556832.936    -9400365.847 6  -7103441.74521        12.250           0.594
 91  5 21 19  6 59.9980000  0  6G18G 2G11G19G16G 6
  22040619.709     7308545.723 6   5694953.31321        17.000           0.906
  21188806.537   -16878439.368 7 -13152009.54622        23.750           2.438
  22468473.522   -10440381.927 6  -8135349.30121        17.750           0.938
  20433826.998    -1642782.712 7  -1280092.42722        21.250           1.875
  22820046.623    -6075874.102 6  -4672419.96921        12.250           0.438
  22548500.201    -9444122.426 6  -7137537.72321        12.000           0.688
 91  5 21 19  7 14.9980000  0  6G18G 2G11G19G16G 6
  22047535.990     7344892.804 6   5723275.60321        17.500           0.875
  21180598.436   -16921562.489 7 -13185611.93722        23.000           2.469
  22466180.725   -10452427.534 6  -8144735.49421        18.000           0.969
  20434413.006    -1639700.554 7  -1277690.75322        21.000           1.875
  22818578.787    -6083605.474 6  -4678444.44821        12.750           0.500
  22540181.232    -9487860.249 6  -7171619.09021        12.500           0.656
 91  5 21 19  7 29.9980000  0  6G18G 2G11G19G16G 6
  22054469.022     7381314.833 6   5751656.29321        17.250           1.000
  21172409.654   -16964598.038 7 -13219146.08722        23.500           2.375
  22463919.826   -10464311.009 6  -8153995.34221        18.000           1.094
  20435012.904    -1636553.023 7  -1275238.13922        21.000           1.844
  22817135.889    -6091193.515 6  -4684357.24121        12.500           0.438
  22531861.475    -9531569.836 6  -7205678.45021        12.250           0.719
 91  5 21 19  7 44.9980000  0  6G18G 2G11G19G16G 6
  22061409.857     7417803.777 6   5780089.11221        16.500           0.938
  21164234.482   -17007553.845 7 -13252618.09622        23.750           2.469
  22461688.865   -10476040.219 6  -8163134.99021        17.750           1.031
  20435621.709    -1633348.101 7  -1272740.80822        21.000           1.813
  22815718.373    -6098646.558 6  -4690164.83321        12.500           0.406
  22523549.772    -9575259.108 6  -7239721.97621        12.500           0.656
 91  5 21 19  7 59.9980000  0  6G18G 2G11G19G16G 6
  22068365.068     7454360.674 6   5808574.88521        16.250           0.844
  21156078.623   -17050428.369 7 -13286026.77323        23.750           2.500
  22459487.209   -10487613.883 6  -8172153.43621        18.000           1.031
  20436242.061    -1630084.522 7  -1270197.76922        21.000           1.906
  22814319.795    -6105963.415 6  -4695866.30321        12.250           0.438
  22515238.811    -9618926.792 6  -7273748.69221        12.500           0.625
 91  5 21 19  8 14.9980000  0  6G18G 2G11G19G16G 6
  22075335.240     7490977.278 6   5837107.19021        16.250           0.969
  21147931.240   -17093229.767 7 -13319378.47322        23.750           2.469
  22457311.740   -10499039.944 6  -8181056.86521        18.000           1.000
  20436875.139    -1626770.245 7  -1267615.22322        21.000           1.875
  22812955.037    -6113151.906 6  -4701467.75821        12.250           0.469
  22506931.982    -9662580.977 6  -7307764.89221        12.500           0.750
 91  5 21 19  8 29.9980000  0  6G18G 2G11G19G16G 6
  22082316.529     7527664.028 6   5865694.14621        16.000           0.875
  21139802.897   -17135947.174 7 -13352664.71923        23.500           2.500
  22455168.693   -10510307.460 6  -8189836.74721        18.250           0.938
  20437515.357    -1623394.407 7  -1264984.71222        20.750           1.938
  22811618.139    -6120201.714 6  -4706961.14121        12.500           0.500
  22498628.240    -9706210.772 6  -7341762.07521        12.500           0.688
 91  5 21 19  8 44.9980000  0  6G18G 2G11G19G16G 6
  22089309.842     7564421.640 6   5894336.31821        16.000           0.906
  21131690.701   -17178579.237 7 -13385884.47022        23.500           2.469
  22453053.287   -10521415.375 6  -8198492.26621        17.750           1.000
  20438170.264    -1619955.888 7  -1262305.35522        20.750           1.844
  22810299.357    -6127111.558 6  -4712345.46921        12.250           0.563
  22490334.240    -9749815.042 6  -7375739.37521        12.250           0.688
 91  5 21 19  8 59.9980000  0  6G18G 2G11G19G16G 6
  22096318.139     7601241.878 6   5923027.29021        16.500           0.906
  21123592.397   -17221134.298 7 -13419044.21622        23.500           2.406
  22450968.693   -10532371.863 6  -8207029.79521        17.750           0.969
  20438835.178    -1616462.999 7  -1259583.63522        20.750           1.844
  22809009.772    -6133889.931 6  -4717627.35621        12.500           0.406
  22482035.397    -9793402.237 6  -7409703.37521        12.250           0.719
 91  5 21 19  9 14.9980000  0  6G18G 2G11G19G16G 6
  22103335.584     7638122.590 6   5951765.38621        16.250           0.813
  21115510.061   -17263613.962 7 -13452145.21722        23.500           2.438
  22448913.022   -10543178.565 6  -8215450.59921        18.000           1.000
  20439509.779    -1612917.343 7  -1256820.79222        20.750           1.906
  22807745.420    -6140538.797 6  -4722808.33721        12.500           0.500
  22473743.451    -9836973.877 6  -7443655.24521        12.250           0.688
 91  5 21 19  9 29.9980000  0  6G18G 2G11G19G16G 6
  22110365.568     7675067.208 6   5980553.28221        16.000           0.813
  21107441.334   -17306014.650 7 -13485184.67423        23.500           2.500
  22446884.811   -10553831.994 6  -8223751.97521        18.000           0.938
  20440193.795    -1609315.373 7  -1254014.07522        20.500           1.906
  22806507.732    -6147054.511 6  -4727885.53921        13.000           0.375
  22465456.756    -9880526.505 6  -7477592.31621        12.250           0.750
 91  5 21 19  9 44.9980000  0  6G18G 2G11G19G16G 6
  22117409.795     7712080.241 6   6009394.48121        16.000           0.906
  21099386.576   -17348331.214 7 -13518158.57922        23.750           2.469
  22444889.615   -10564327.189 6  -8231930.05921        18.250           0.969
  20440893.092    -1605652.109 7  -1251159.59722        20.750           1.906
  22805290.522    -6153432.370 6  -4732855.33521        12.750           0.438
  22457175.998    -9924055.198 6  -7511510.73821        12.250           0.688
 91  5 21 19  9 59.9980000  0  6G18G 2G11G19G16G 6
  22124466.326     7749162.360 6   6038289.51621        16.000           0.844
  21091351.123   -17390563.147 7 -13551066.53922        23.500           2.438
  22442921.334   -10574663.658 6  -8239984.45321        18.000           0.969
  20441602.459    -1601927.040 7  -1248256.95622        20.750           1.906
  22804104.779    -6159672.065 6  -4737717.46721        12.750           0.438
  22448895.951    -9967559.487 6  -7545410.13121        12.500           0.688
 91  5 21 19 10 14.9980000  0  6G18G 2G11G19G16G 6
  22131536.592     7786302.886 6   6067230.06421        16.000           0.813
  21083330.022   -17432720.576 7 -13583916.44423        23.750           2.500
  22440981.295   -10584851.432 6  -8247922.98221        18.000           1.000
  20442320.014    -1598150.194 7  -1245313.97122        20.500           2.000
  22802943.022    -6165783.756 6  -4742479.85321        12.750           0.344
  22440620.561   -10011049.404 6  -7579298.33921        12.500           0.594
 91  5 21 19 10 29.9980000  0  6G18G 2G11G19G16G 6
  22138614.279     7823507.115 6   6096220.25521        16.000           0.813
  21075321.826   -17474798.023 7 -13616704.02823        23.750           2.531
  22439074.147   -10594884.921 6  -8255741.28121        18.500           1.000
  20443049.014    -1594316.226 7  -1242326.47022        20.500           1.906
  22801805.873    -6171761.970 6  -4747138.23921        12.750           0.469
  22432349.287   -10054519.467 6  -7613171.07221        12.750           0.719
 91  5 21 19 10 44.9980000  0  6G18G 2G11G19G16G 6
  22145705.662     7860771.351 6   6125257.19521        16.000           0.813
  21067329.193   -17516798.722 7 -13649431.81323        23.500           2.500
  22437193.162   -10604767.545 6  -8263442.03121        18.750           0.969
  20443789.295    -1590428.518 7  -1239297.10322        20.500           2.031
  22800690.420    -6177610.346 6  -4751695.44821        12.500           0.375
  22424077.990   -10097973.099 6  -7647031.01221        12.750           0.531
 91  5 21 19 10 59.9980000  0  6G18G 2G11G19G16G 6
  22152809.217     7898095.337 6   6154340.69121        16.000           0.781
  21059351.795   -17558722.360 7 -13682099.54522        23.750           2.406
  22435341.217   -10614499.033 6  -8271025.01321        18.750           1.031
  20444538.045    -1586486.576 7  -1236225.47622        21.000           1.938
  22799602.787    -6183328.931 6  -4756151.51921        12.250           0.219
  22415810.725   -10141410.032 6  -7680877.93521        12.500           0.625
 91  5 21 19 11 14.9980000  0  6G18G 2G11G19G16G 6
  22159922.107     7935488.835 6   6183478.35521        15.500           0.781
  21051390.350   -17600559.370 7 -13714699.78422        23.750           2.438
  22433520.068   -10624069.893 6  -8278482.82321        18.750           0.844
  20445302.717    -1582481.059 7  -1233104.31022        20.500           1.938
  22798540.139    -6188908.172 6  -4760499.01821        12.500           0.375
  22407551.084   -10184820.739 6  -7714704.40821        12.500           0.656
 91  5 21 19 11 29.9980000  0  6G18G 2G11G19G16G 6
  22167053.217     7972941.063 6   6212661.78521        16.750           0.813
  21043442.982   -17642320.288 7 -13747240.72122        23.250           2.469
  22431728.397   -10633490.577 6  -8285823.61221        18.750           0.969
  20446074.100    -1578422.354 7  -1229941.69222        20.500           1.938
  22797505.053    -6194358.690 6  -4764746.21121        12.750           0.375
  22399292.162   -10228215.699 6  -7748518.62221        12.750           0.625
 91  5 21 19 11 44.9980000  0  6G18G 2G11G19G16G 6
  22174189.342     8010455.107 6   6241893.38121        16.000           0.781
  21035512.209   -17684001.234 7 -13779719.34922        23.750           2.469
  22429963.217   -10642757.491 6  -8293044.58521        18.500           1.094
  20446856.240    -1574306.912 7  -1226734.87022        20.500           2.125
  22796489.748    -6199677.139 6  -4768890.50621        13.000           0.438
  22391038.834   -10271591.358 6  -7782317.79921        12.500           0.625
 91  5 21 19 11 59.9980000  0  6G18G 2G11G19G16G 6
  22181340.951     8048035.334 6   6271176.55121        15.250           0.781
  21027595.740   -17725597.708 7 -13812132.14922        24.000           2.469
  22428229.225   -10651866.062 6  -8300142.17721        18.250           0.906
  20447652.701    -1570130.125 7  -1223480.24322        20.750           1.906
  22795508.451    -6204859.294 6  -4772928.57721        13.000           0.313
  22382790.647   -10314943.147 6  -7816098.37521        12.500           0.625
 91  5 21 19 12 14.9980000  0  6G18G 2G11G19G16G 6
  22188503.459     8085679.232 6   6300509.32021        15.000           0.688
  21019695.904   -17767111.859 7 -13844480.80222        23.750           2.469
  22426527.404   -10660818.602 6  -8307118.17721        18.750           1.063
  20448457.951    -1565894.360 7  -1220179.66322        20.250           2.063
  22794543.506    -6209907.282 6  -4776862.11321        12.750           0.375
  22374546.732   -10358273.323 6  -7849862.10521        13.000           0.500
 91  5 21 19 12 29.9980000  0  6G18G 2G11G19G16G 6
  22195679.654     8123382.972 6   6329888.73621        15.500           0.719
  21011811.303   -17808547.338 7 -13876768.15523        23.750           2.500
  22424851.147   -10669618.623 6  -8313975.33521        18.250           1.000
  20449275.717    -1561603.072 7  -1216835.82422        20.000           2.031
  22793611.326    -6214824.446 6  -4780693.70621        12.750           0.438
  22366301.787   -10401585.492 6  -7883611.81121        12.750           0.594
 91  5 21 19 12 44.9980000  0  6G18G 2G11G19G16G 6
  22202865.865     8161150.933 6   6359318.18221        15.500           0.781
  21003941.686   -17849899.777 7 -13908990.79822        23.750           2.375
  22423206.217   -10678261.806 6  -8320710.28021        18.250           1.000
  20450103.451    -1557251.731 7  -1213445.18722        20.250           2.000
  22792697.803    -6219606.880 6  -4784420.32621        12.250           0.438
  22358063.147   -10444875.258 6  -7917344.04221        12.500           0.656
 91  5 21 19 12 59.9980000  0  6G18G 2G11G19G16G 6
  22210065.865     8198974.888 6   6388791.27021        15.250           0.750
  20996086.514   -17891176.847 7 -13941154.71822        23.750           2.438
  22421589.482   -10686755.786 6  -8327328.96421        18.000           0.938
  20450940.467    -1552848.128 7  -1210013.82322        20.250           1.969
  22791813.147    -6224262.620 6  -4788048.21221        12.500           0.406
  22349832.561   -10488150.333 6  -7951064.83321        13.000           0.625
 91  5 21 19 13 14.9980000  0  6G18G 2G11G19G16G 6
  22217272.193     8236853.301 6   6418306.78321        15.000           0.719
  20988245.795   -17932379.887 7 -13973260.95122        23.750           2.438
  22420004.225   -10695101.915 6  -8333832.43521        19.000           1.000
  20451787.709    -1548393.605 7  -1206542.78522        20.250           2.063
  22790948.193    -6228793.154 6  -4791578.54921        12.250           0.438
  22341599.467   -10531412.212 6  -7984775.33421        12.500           0.563
 91  5 21 19 13 29.9980000  0  6G18G 2G11G19G16G 6
  22224492.857     8274797.917 6   6447873.89221        15.000           0.813
  20980422.475   -17973496.597 7 -14005299.91822        23.750           2.375
  22418444.467   -10703288.033 6  -8340211.22421        18.750           1.000
  20452651.131    -1543876.058 6  -1203022.63622        19.250           1.938
  22790116.248    -6233186.584 6  -4795002.04921        12.500           0.344
  22333369.303   -10574648.570 6  -8018465.95221        12.750           0.500
 91  5 21 19 13 44.9980000  0  6G18G 2G11G19G16G 6
  22231726.264     8312807.692 6   6477491.76721        15.000           0.719
  20972613.303   -18014527.871 7 -14037272.31022        23.750           2.344
  22416917.365   -10711315.200 6  -8346466.15421        18.750           1.000
  20453521.248    -1539296.345 7  -1199454.05422        20.500           1.938
  22789305.256    -6237443.533 6  -4798319.19421        12.500           0.375
  22325147.693   -10617860.420 6  -8052137.47521        12.500           0.594
 91  5 21 19 13 59.9980000  0  6G18G 2G11G19G16G 6
  22238969.404     8350875.781 6   6507155.07921        15.250           0.719
  20964820.873   -18055480.173 7 -14069183.16222        23.750           2.313
  22415417.459   -10719189.784 6  -8352602.18021        18.500           0.875
  20454402.787    -1534660.838 6  -1195841.98822        19.750           1.969
  22788518.803    -6241570.977 6  -4801535.42421        12.750           0.375
  22316926.654   -10661054.194 6  -8085794.90721        12.500           0.563
 91  5 21 19 14 14.9980000  0  6G18G 2G11G19G16G 6
  22246227.592     8389009.459 6   6536869.51621        15.000           0.781
  20957043.451   -18096345.889 7 -14101026.54922        23.250           2.344
  22413949.568   -10726904.405 6  -8358613.57221        18.750           0.938
  20455297.201    -1529962.050 7  -1192180.61322        20.500           2.063
  22787761.404    -6245561.770 6  -4804645.16221        12.750           0.406
  22308713.576   -10704222.475 6  -8119432.48421        12.500           0.625
 91  5 21 19 14 29.9980000  0  6G18G 2G11G19G16G 6
  22253494.436     8427199.031 6   6566627.49221        15.000           0.719
  20949283.389   -18137134.522 7 -14132809.87322        23.750           2.438
  22412512.436   -10734468.505 6  -8364507.67021        19.000           0.906
  20456203.482    -1525209.469 7  -1188477.32422        20.000           1.969
  22787024.475    -6249425.234 6  -4807655.70821        12.750           0.344
  22300497.772   -10747374.762 6  -8153057.59021        12.500           0.563
 91  5 21 19 14 44.9980000  0  6G18G 2G11G19G16G 6
  22260776.420     8465449.467 6   6596432.89521        15.250           0.750
  20941536.084   -18177840.749 7 -14164528.98122        24.000           2.406
  22411100.811   -10741876.841 6  -8370280.39021        18.750           0.813
  20457116.201    -1520397.824 7  -1184728.00822        20.250           1.969
  22786316.037    -6253156.474 6  -4810563.19421        12.500           0.344
  22292294.811   -10790505.611 6  -8186665.99521        13.000           0.594
 91  5 21 19 14 59.9980000  0  6G18G 2G11G19G16G 6
  22268064.428     8503758.290 6   6626283.80721        15.500           0.656
  20933805.857   -18218466.851 7 -14196185.65822        24.000           2.406
  22409722.092   -10749131.811 6  -8375933.60321        19.000           0.969
  20458045.779    -1515529.404 7  -1180934.45822        20.250           2.000
  22785631.459    -6256758.118 6  -4813369.71621        12.750           0.406
  22284090.850   -10833617.439 6  -8220259.57521        13.000           0.656
 91  5 21 19 15 14.9980000  0  6G18G 2G11G19G16G 6
  22275365.420     8542124.330 6   6656179.29621        15.250           0.719
  20926090.045   -18259013.527 7 -14227780.44222        24.250           2.469
  22408369.459   -10756234.099 6  -8381467.84521        18.750           0.906
  20458979.295    -1510605.029 7  -1177097.29922        20.500           2.000
  22784970.412    -6260230.839 6  -4816075.77321        12.500           0.344
  22275887.842   -10876711.115 6  -8253839.01621        12.750           0.719
 91  5 21 19 15 29.9980000  0  6G18G 2G11G19G16G 6
  22282677.678     8580546.594 6   6686118.59321        15.750           0.719
  20918387.412   -18299481.507 7 -14259313.89122        24.000           2.406
  22407046.217   -10763184.469 6  -8386883.70721        18.750           0.938
  20459928.459    -1505625.481 6  -1173217.15322        19.750           2.063
  22784334.006    -6263575.389 6  -4818681.96321        12.750           0.406
  22267693.318   -10919787.258 6  -8287404.78021        13.000           0.594
 91  5 21 19 15 44.9980000  0  6G18G 2G11G19G16G 6
  22289999.897     8619027.887 6   6716103.88621        15.000           0.688
  20910704.842   -18339867.617 7 -14290783.55522        23.750           2.406
  22405755.678   -10769979.752 6  -8392178.72721        19.500           0.875
  20460885.068    -1500587.554 7  -1169291.51822        20.250           2.063
  22783722.897    -6266789.054 6  -4821186.13921        12.750           0.313
  22259498.248   -10962842.783 6  -8320954.49521        12.750           0.563
 91  5 21 19 15 59.9980000  0  6G18G 2G11G19G16G 6
  22297335.951     8657568.740 6   6746135.58321        14.750           0.781
  20903034.272   -18380171.005 7 -14322188.75422        23.750           2.313
  22404490.045   -10776619.334 6  -8397352.41121        19.500           0.781
  20461857.225    -1495490.517 7  -1165319.82022        20.250           2.000
  22783136.178    -6269870.886 6  -4823587.60821        12.500           0.406
  22251309.287   -11005876.966 6  -8354487.56621        12.750           0.688
 91  5 21 19 16 14.9980000  0  6G18G 2G11G19G16G 6
  22304678.670     8696166.946 6   6776211.96921        15.000           0.688
  20895379.982   -18420393.919 7 -14353531.24922        24.250           2.375
  22403255.647   -10783105.361 6  -8402406.44621        18.750           0.938
  20462836.592    -1490336.381 7  -1161303.63122        20.000           2.031
  22782575.209    -6272823.467 6  -4825888.35421        12.750           0.500
  22243123.920   -11048891.944 6  -8388005.68221        12.750           0.500
 91  5 21 19 16 29.9980000  0  6G18G 2G11G19G16G 6
  22312035.889     8734824.855 6   6806334.88621        15.000           0.719
  20887740.420   -18460533.659 7 -14384808.93822        24.500           2.344
  22402049.420   -10789435.296 6  -8407338.85721        18.750           0.875
  20463827.623    -1485122.474 7  -1157240.87122        20.250           2.063
  22782034.889    -6275644.567 6  -4828086.66321        12.250           0.438
  22234942.982   -11091885.153 6  -8421506.84221        12.500           0.563
 91  5 21 19 16 44.9980000  0  6G18G 2G11G19G16G 6
  22319401.193     8773538.346 6   6836501.11121        14.250           0.688
  20880117.904   -18500593.867 7 -14416024.65022        24.250           2.344
  22400877.311   -10795612.771 6  -8412152.45721        19.750           0.906
  20464833.397    -1479852.439 7  -1153134.37622        20.500           2.000
  22781524.943    -6278337.875 6  -4830185.39621        12.500           0.344
  22226766.537   -11134860.103 6  -8454993.79121        12.500           0.531
 91  5 21 19 16 59.9980000  0  6G18G 2G11G19G16G 6
  22326779.936     8812308.415 6   6866711.42221        14.500           0.656
  20872509.162   -18540573.304 7 -14447177.42522        24.000           2.438
  22399729.068   -10801636.658 6  -8416846.38321        19.000           0.875
  20465843.529    -1474525.321 7  -1148983.39722        20.250           2.063
  22781037.701    -6280902.505 6  -4832183.83621        12.500           0.281
  22218591.264   -11177815.802 6  -8488465.70821        12.750           0.594
 91  5 21 19 17 14.9980000  0  6G18G 2G11G19G16G 6
  22334166.264     8851128.171 6   6896960.44621        14.250           0.656
  20864916.881   -18580478.397 7 -14478272.26822        24.750           2.469
  22398610.232   -10807513.395 6  -8421425.65421        19.250           0.969
  20466868.451    -1469147.443 7  -1144792.86722        20.500           2.063
  22780574.397    -6283344.949 6  -4834087.10221        12.500           0.281
  22210419.162   -11220758.634 6  -8521927.62021        12.250           0.594
 91  5 21 19 17 29.9980000  0  6G18G 2G11G19G16G 6
  22341563.990     8890003.230 6   6927252.56021        14.500           0.719
  20857339.857   -18620303.348 7 -14509304.66123        25.250           2.500
  22397520.576   -10813237.300 6  -8425885.82621        19.000           0.906
  20467902.826    -1463713.136 7  -1140558.36422        20.250           2.063
  22780129.264    -6285659.734 5  -4835890.86721        11.750           0.313
  22202255.326   -11263682.845 6  -8555375.01121        12.500           0.563
 91  5 21 19 17 44.9980000  0  6G18G 2G11G19G16G 6
  22348974.748     8928938.700 6   6957591.75821        14.500           0.688
  20849776.506   -18660042.407 7 -14540270.13323        24.750           2.500
  22396462.389   -10818802.911 6  -8430222.65321        19.250           0.844
  20468948.803    -1458216.585 7  -1136275.35822        20.250           2.125
  22779714.834    -6287841.385 6  -4837590.89521        12.000           0.375
  22194087.295   -11306582.870 6  -8588803.55221        12.250           0.563
 91  5 21 19 17 59.9980000  0  6G18G 2G11G19G16G 6
  22356392.139     8967927.326 6   6987972.35821        14.000           0.750
  20842229.350   -18699703.104 7 -14571174.53922        25.000           2.469
  22395432.475   -10824217.660 6  -8434441.92921        19.000           0.781
  20470005.576    -1452665.152 7  -1131949.59522        20.500           2.031
  22779326.975    -6289897.211 6  -4839192.88321        12.250           0.344
  22185927.873   -11349465.945 6  -8622218.88421        12.000           0.594
 91  5 21 19 18 14.9980000  0  6G18G 2G11G19G16G 6
  22363822.865     9006965.787 6   7018391.80921        14.250           0.719
  20834695.928   -18739288.137 7 -14602019.98822        25.000           2.406
  22394430.936   -10829484.268 6  -8438545.75921        19.000           0.844
  20471071.272    -1447061.756 7  -1127583.33522        20.250           2.156
  22778957.318    -6291830.325 6  -4840699.23721        12.000           0.406
  22177772.639   -11392335.074 6  -8655623.33821        12.500           0.625
 91  5 21 19 18 29.9980000  0  6G18G 2G11G19G16G 6
  22371261.647     9046059.912 6   7048854.61821        14.250           0.750
  20827178.350   -18778791.503 7 -14632801.79823        25.000           2.625
  22393457.178   -10834596.755 6  -8442529.50321        19.750           0.844
  20472152.654    -1441400.477 6  -1123171.97022        19.250           1.969
  22778615.350    -6293635.378 6  -4842105.81721        12.250           0.313
  22169611.170   -11435184.139 6  -8689012.16221        12.000           0.625
 91  5 21 19 18 44.9980000  0  6G18G 2G11G19G16G 6
  22378710.990     9085210.199 6   7079361.20221        14.250           0.688
  20819677.600   -18818212.306 7 -14663519.27122        25.250           2.469
  22392513.584   -10839554.439 6  -8446392.62421        19.000           0.813
  20473237.951    -1435680.444 7  -1118714.83122        20.000           2.125
  22778294.178    -6295311.476 6  -4843411.90721        12.000           0.406
  22161463.936   -11478012.341 6  -8722384.74721        12.250           0.656
 91  5 21 19 18 59.9980000  0  6G18G 2G11G19G16G 6
  22386172.045     9124410.085 6   7109906.43121        13.750           0.688
  20812190.139   -18857556.640 7 -14694177.16623        25.250           2.594
  22391599.545   -10844363.523 6  -8450139.95221        19.750           0.938
  20474334.459    -1429907.901 7  -1114216.76622        20.000           2.031
  22777999.139    -6296864.936 5  -4844622.43421        11.750           0.375
  22153320.092   -11520825.950 6  -8755745.94821        12.500           0.688
 91  5 21 19 19 14.9980000  0  6G18G 2G11G19G16G 6
  22393640.912     9163665.114 6   7140494.61621        14.000           0.719
  20804717.873   -18896818.842 7 -14724771.06123        24.750           2.531
  22390713.975   -10849018.338 6  -8453767.07221        19.250           0.813
  20475445.803    -1424077.046 6  -1109673.26422        19.750           2.000
  22777725.998    -6298290.175 5  -4845733.06321        11.750           0.406
  22145177.928   -11563619.181 6  -8789091.27421        12.500           0.656
 91  5 21 19 19 29.9980000  0  6G18G 2G11G19G16G 6
  22401121.225     9202974.710 6   7171125.34121        14.250           0.594
  20797264.342   -18935999.220 7 -14755301.19423        25.250           2.563
  22389855.967   -10853519.156 6  -8457274.19321        19.250           0.813
  20476565.990    -1418188.039 7  -1105084.45022        20.250           2.094
  22777480.631    -6299587.646 5  -4846744.12421        11.750           0.375
  22137031.264   -11606392.251 6  -8822420.89621        12.250           0.750
 91  5 21 19 19 44.9980000  0  6G18G 2G11G19G16G 6
  22408612.373     9242337.286 6   7201797.34221        14.000           0.719
  20789822.147   -18975098.949 7 -14785768.49423        25.000           2.625
  22389030.045   -10857867.480 6  -8460662.48421        19.500           0.938
  20477698.022    -1412242.194 7  -1100451.34422        20.000           2.031
  22777257.303    -6300758.755 5  -4847656.71921        11.500           0.375
  22128901.779   -11649146.632 6  -8855735.95621        12.750           0.719
 91  5 21 19 19 59.9980000  0  6G18G 2G11G19G16G 6
  22416114.826     9281755.064 6   7232512.34621        14.250           0.688
  20782401.889   -19014115.658 7 -14816171.09623        25.000           2.594
  22388231.412   -10862060.850 6  -8463930.03621        19.500           0.875
  20478835.412    -1406237.099 7  -1095772.07022        20.250           2.063
  22777060.670    -6301801.384 5  -4848469.20621        11.250           0.438
  22120767.842   -11691879.765 6  -8889034.45121        13.250           0.719
 91  5 21 19 20 14.9980000  0  6G18G 2G11G19G16G 6
  22423623.451     9321227.238 6   7263269.75521        13.500           0.625
  20774991.014   -19053049.874 7 -14846509.41923        25.250           2.625
  22387462.787   -10866099.836 6  -8467077.29421        19.750           0.813
  20479994.514    -1400173.332 6  -1091047.07522        19.750           2.094
  22776885.756    -6302716.426 5  -4849182.26121        11.000           0.250
  22112636.592   -11734592.237 6  -8922316.84721        12.500           0.656
 91  5 21 19 20 29.9970000  0  6G18G 2G11G19G16G 6
  22431146.665     9360745.056 6   7294062.70821        14.500           0.750
  20767595.517   -19091905.130 7 -14876786.21923        25.500           2.688
  22386722.673   -10869990.302 6  -8470108.82321        19.500           0.844
  20481156.946    -1394057.207 7  -1086281.28122        20.000           2.094
  22776732.579    -6303510.076 5  -4849800.76221        10.750           0.406
  22104515.220   -11777287.250 6  -8955585.64821        13.000           0.688
 91  5 21 19 20 44.9970000  0  6G18G 2G11G19G16G 6
  22438673.978     9400312.028 6   7324893.98221        14.000           0.719
  20760216.173   -19130687.610 7 -14907006.31023        25.750           2.531
  22386008.845   -10873734.147 6  -8473026.09121        19.500           0.781
  20482332.657    -1387889.428 6  -1081475.23622        19.500           2.031
  22776606.274    -6304183.937 5  -4850325.90721        11.000           0.375
  22096393.517   -11819971.722 6  -8988846.23021        12.750           0.719
 91  5 21 19 20 59.9970000  0  6G18G 2G11G19G16G 6
  22446212.579     9439928.092 6   7355763.48521        13.500           0.656
  20752850.345   -19169391.744 7 -14937165.34923        25.250           2.625
  22385325.962   -10877328.130 6  -8475826.59621        19.250           0.875
  20483515.923    -1381667.146 7  -1076626.72122        20.000           2.063
  22776500.743    -6304734.939 5  -4850755.30921        11.250           0.313
  22088271.759   -11862639.706 6  -9022093.97121        13.000           0.719
 91  5 21 19 21 14.9970000  0  6G18G 2G11G19G16G 6
  22453761.688     9479593.544 6   7386671.50421        13.500           0.719
  20745499.017   -19208017.303 7 -14967263.16623        25.000           2.625
  22384671.017   -10880772.004 6  -8478510.12621        19.500           0.875
  20484709.720    -1375390.166 7  -1071735.58022        20.000           2.031
  22776420.642    -6305163.096 5  -4851089.00421        11.250           0.344
  22080157.720   -11905290.996 6  -9055328.68721        13.250           0.688
 91  5 21 19 21 29.9970000  0  6G18G 2G11G19G16G 6
  22461319.204     9519304.611 6   7417615.03321        14.000           0.594
  20738164.415   -19246567.840 7 -14997302.51823        25.250           2.563
  22384043.540   -10884069.365 6  -8481079.49421        19.250           0.875
  20485914.228    -1369061.810 7  -1066804.40922        20.000           2.094
  22776362.056    -6305471.882 5  -4851329.65421        11.000           0.313
  22072042.071   -11947929.048 6  -9088553.09421        13.000           0.688
 91  5 21 19 21 44.9970000  0  6G18G 2G11G19G16G 6
  22468885.610     9559064.451 6   7448596.59421        13.500           0.625
  20730843.478   -19285039.685 7 -15027280.55123        25.250           2.594
  22383443.579   -10887216.662 6  -8483531.93321        19.250           0.813
  20487130.798    -1362678.605 6  -1061830.49922        19.750           2.031
  22776324.438    -6305658.070 5                        10.750
  22063931.181   -11990550.333 6  -9121764.43921        13.250           0.656
 91  5 21 19 21 59.9970000  0  6G18G 2G11G19G16G 6
  22476459.220     9598873.369 6   7479616.36621        13.000           0.688
  20723536.751   -19323432.093 7 -15057196.69023        25.000           2.625
  22382873.438   -10890213.515 6  -8485867.13921        19.500           0.844
  20488355.063    -1356240.046 7  -1056813.45522        20.000           2.031
  22776309.962    -6305721.642 5                         9.750
  22055828.024   -12033154.363 6  -9154962.31621        13.500           0.625
 91  5 21 19 22 14.9970000  0  6G18G 2G11G19G16G 6
  22484045.712     9638737.375 6   7510679.08621        13.500           0.563
  20716248.196   -19361738.876 7 -15087046.11123        25.250           2.563
  22382334.329   -10893053.510 7  -8488080.11421        20.000           0.844
  20489592.126    -1349739.687 6  -1051748.25322        19.500           1.969
  22776328.868    -6305656.304 5                        10.500
  22047722.407   -12075734.652 6  -9188141.71021        13.250           0.719
 91  5 21 19 22 29.9970000  0  6G18G 2G11G19G16G 6
  22491642.274     9678652.242 6   7541781.43421        13.500           0.563
  20708973.071   -19399964.065 7 -15116831.94923        25.000           2.656
  22381822.485   -10895740.690 6  -8490174.01621        19.750           0.875
  20490840.087    -1343181.425 6  -1046637.93822        19.750           2.031
  22776362.181    -6305466.145 5                        10.000
  22039621.212   -12118295.226 6  -9221305.73821        14.000           0.750
 91  5 21 19 22 44.9970000  0  6G18G 2G11G19G16G 6
  22499249.040     9718618.926 6   7572924.16521        13.500           0.625
  20701715.735   -19438106.321 7 -15146553.16523        25.500           2.500
  22381338.899   -10898274.019 6  -8492148.03721        19.250           0.781
  20492099.399    -1336564.215 6  -1041481.68722        19.500           2.063
  22776424.056    -6305149.987 5                        10.250
  22031526.970   -12160834.975 6  -9254453.54021        14.000           0.656
 91  5 21 19 22 59.9970000  0  6G18G 2G11G19G16G 6
  22506861.446     9758634.372 6   7604104.88221        13.250           0.688
  20694472.571   -19476168.458 7 -15176211.94323        25.000           2.594
  22380886.142   -10900656.316 6  -8494004.37621        19.250           0.813
  20493368.149    -1329890.780 6  -1036281.61822        19.750           2.063
  22776505.267    -6304711.039 5  -4850737.11521        10.000           0.250
  22023434.610   -12203356.604 6  -9287587.23021        13.750           0.688
 91  5 21 19 23 14.9970000  0  6G18G 2G11G19G16G 6
  22514485.603     9798698.330 6   7635323.38621        13.500           0.688
  20687243.306   -19514150.448 7 -15205808.27023        25.250           2.594
  22380462.657   -10902887.704 6  -8495743.11521        19.500           0.781
  20494648.321    -1323161.198 6  -1031037.80822        19.500           1.969
  22776607.642    -6304149.365 5  -4850299.51821         9.750           0.281
  22015346.915   -12245860.131 6  -9320706.81421        13.750           0.750
 91  5 21 19 23 29.9970000  0  6G18G 2G11G19G16G 6
  22522119.610     9838810.500 6   7666579.48821        13.250           0.563
  20680031.212   -19552052.075 7 -15235341.97623        25.500           2.531
  22380066.524   -10904968.065 6  -8497364.16821        19.000           0.875
  20495938.431    -1316375.188 7  -1025750.02122        20.250           2.125
  22776741.618    -6303465.224 5  -4849766.48221         9.750           0.375
  22007262.478   -12288345.277 6  -9353812.07321        13.750           0.688
 91  5 21 19 23 44.9970000  0  6G18G 2G11G19G16G 6
  22529760.853     9878972.390 6   7697874.31521        12.750           0.625
  20672833.954   -19589871.729 7 -15264811.80623        25.250           2.500
  22379699.790   -10906895.829 6  -8498866.32821        18.750           0.906
  20497245.087    -1309531.082 6  -1020416.97022        19.750           2.000
  22776899.767    -6302656.689 5  -4849136.51421        10.250           0.250
  21999180.688   -12330810.463 6  -9386901.78721        14.250           0.750
 91  5 21 19 23 59.9970000  0  6G18G 2G11G19G16G 6
  22537414.243     9919183.898 6   7729207.80021        13.750           0.656
  20665654.446   -19627609.518 7 -15294217.84123        25.250           2.531
  22379359.532   -10908671.093 6  -8500249.65921        18.250           0.813
  20498557.071    -1302628.830 7  -1015038.60822        20.000           1.969
  22777076.087    -6301724.525 5  -4848410.20721        10.250           0.313
  21991103.923   -12373255.703 6  -9419975.95421        14.250           0.688
 91  5 21 19 24 14.9970000  0  6G18G 2G11G19G16G 6
  22545074.759     9959441.853 6   7760577.50221        13.000           0.656
  20658487.196   -19665268.142 7 -15323562.19223        25.250           2.531
  22379053.188   -10910296.860 6  -8501516.49621        18.750           0.719
  20499881.587    -1295671.380 6  -1009617.23422        19.750           2.063
  22777275.548    -6300672.040 5  -4847590.12821        10.000           0.313
  21983030.009   -12415683.778 6  -9453036.73921        14.250           0.688
 91  5 21 19 24 29.9970000  0  6G18G 2G11G19G16G 6
  22552745.962     9999751.756 6   7791987.66121        13.250           0.656
  20651337.485   -19702841.391 7 -15352840.01222        24.750           2.438
  22378772.142   -10911767.084 6  -8502662.12321        18.750           0.750
  20501216.946    -1288652.579 7  -1004148.05322        20.250           2.063
  22777498.431    -6299493.047 5  -4846671.49621        10.000           0.313
  21974958.610   -12458088.736 6  -9486079.51921        14.500           0.719
 91  5 21 19 24 44.9970000  0  6G18G 2G11G19G16G 6
  22560428.813    10040114.724 6   7823439.16421        13.500           0.688
  20644202.985   -19740328.415 7 -15382050.65322        24.750           2.438
  22378522.368   -10913080.863 6  -8503685.85321        18.250           0.781
  20502564.712    -1281571.532 7   -998630.37122        20.000           2.031
  22777750.056    -6298186.957 5  -4845653.82821        10.250           0.406
  21966895.704   -12500469.547 6  -9519103.48121        14.250           0.781
 91  5 21 19 24 59.9970000  0  6G18G 2G11G19G16G 6
  22568117.556    10080519.017 6   7854922.88121        13.000           0.656
  20637084.392   -19777740.099 7 -15411202.58622        25.250           2.469
  22378300.142   -10914249.264 6  -8504596.30521        18.250           0.781
  20503920.759    -1274439.333 6   -993072.82922        19.000           1.906
  22778019.548    -6296764.994 5  -4844545.86421        10.250           0.406
  21958834.853   -12542837.356 6  -9552117.30721        14.750           0.750
 91  5 21 19 25 14.9970000  0  6G18G 2G11G19G16G 6
  22575811.337    10120975.299 6   7886447.11821        12.500           0.656
  20629981.642   -19815065.683 7 -15440287.42622        24.500           2.469
  22378106.759   -10915261.588 6  -8505385.12721        18.000           0.844
  20505289.860    -1267244.871 7   -987466.77522        20.000           1.938
  22778317.009    -6295216.372 5  -4843339.20521        10.500           0.375
  21950776.954   -12585181.124 6  -9585112.40221        14.500           0.656
 91  5 21 19 25 29.9970000  0  6G18G 2G11G19G16G 6
  22583523.298    10161480.758 6   7918009.65921        12.750           0.813
  20622894.446   -19852307.830 7 -15469307.25523        24.500           2.563
  22377941.634   -10916120.602 6  -8506054.49021        18.000           0.750
  20506669.681    -1259990.916 6   -981814.35122        19.750           1.906
  22778632.181    -6293543.962 5  -4842036.08821        10.500           0.406
  21942721.392   -12627503.566 6  -9618090.88921        14.750           0.688
 91  5 21 19 25 44.9970000  0  6G18G 2G11G19G16G 6
  22591240.220    10202037.459 6   7949612.11521        12.750           0.563
  20615824.767   -19889464.408 7 -15498260.39922        25.000           2.469
  22377811.149   -10916824.041 6  -8506602.63421        17.750           0.688
  20508062.188    -1252674.995 7   -976113.65422        20.250           1.875
  22778976.017    -6291745.654 5  -4840634.86221        10.250           0.344
  21934676.274   -12669802.324 6  -9651050.91121        14.750           0.688
 91  5 21 19 25 59.9970000  0  6G18G 2G11G19G16G 6
  22598965.712    10242643.155 6   7981252.78621        12.500           0.719
  20608769.321   -19926536.843 7 -15527147.98423        25.000           2.531
  22377706.485   -10917373.802 6  -8507031.03121        18.000           0.719
  20509469.399    -1245299.061 6   -970366.19122        19.500           2.031
  22779342.368    -6289823.726 5  -4839137.31821        10.000           0.406
  21926630.540   -12712079.161 6  -9683993.85721        14.750           0.688
 91  5 21 19 26 14.9970000  0  6G18G 2G11G19G16G 6
  22606703.806    10283295.093 6   8012929.45921        12.750           0.594
  20601731.907   -19963527.843 7 -15555972.10622        24.750           2.406
  22377630.454   -10917772.506 6  -8507341.71621        18.250           0.781
  20510880.259    -1237865.672 6   -964573.95122        19.750           1.969
  22779730.571    -6287780.394 5  -4837545.18221        10.000           0.281
  21918587.868   -12754336.528 6  -9716921.63621        15.000           0.625
 91  5 21 19 26 29.9970000  0  6G18G 2G11G19G16G 6
  22614447.337    10323993.207 6   8044642.13121        12.000           0.625
  20594705.970   -20000437.400 7 -15584732.77122        24.750           2.406
  22377583.415   -10918020.425 6  -8507534.90921        18.250           0.719
  20512309.649    -1230374.973 6   -958737.06522        19.750           2.000
  22780140.806    -6285616.286 5  -4835858.91721        10.250           0.375
  21910548.884   -12796574.652 6  -9749834.41221        14.750           0.750
 91  5 21 19 26 44.9970000  0  6G18G 2G11G19G16G 6
  22622199.149    10364740.559 6   8076393.15721        12.000           0.594
  20587699.048   -20037262.017 7 -15613427.24523        25.000           2.500
  22377565.071   -10918114.179 6                        17.750
  20513743.181    -1222823.317 7   -952852.67322        20.250           1.969
  22780579.188    -6283328.331 5  -4834076.16221        10.500           0.406
  21902516.548   -12838790.007 6  -9782729.45421        15.000           0.656
 91  5 21 19 26 59.9970000  0  6G18G 2G11G19G16G 6
  22629965.345    10405534.490 6   8108180.47221        13.000           0.625
  20580707.517   -20074003.756 7 -15642057.13523        24.750           2.500
  22377576.751   -10918055.954 6                        18.750
  20515193.829    -1215212.796 6   -946922.41322        19.500           1.938
  22781029.360    -6280918.797 5  -4832198.66221        10.000           0.344
  21894486.696   -12880984.746 6  -9815608.42121        14.750           0.594
 91  5 21 19 27 14.9970000  0  6G18G 2G11G19G16G 6
  22637736.063    10446371.541 6   8140001.40621        12.250           0.594
  20573729.478   -20110666.158 7 -15670625.20923        24.500           2.594
  22377613.798   -10917849.316 6                        18.500
  20516650.579    -1207546.697 7   -940948.84822        20.500           1.938
  22781517.423    -6278391.221 5  -4830229.18021        10.500           0.406
  21886462.103   -12923162.256 6  -9848473.97421        15.000           0.656
 91  5 21 19 27 29.9970000  0  6G18G 2G11G19G16G 6
  22645515.438    10487253.612 6   8171857.39521        12.500           0.656
  20566770.056   -20147246.727 7 -15699129.51122        25.250           2.375
  22377682.978   -10917491.791 6                        18.000
  20518123.423    -1199822.550 6   -934930.04922        19.750           1.875
  22782021.767    -6275743.425 5  -4828166.01721        10.250           0.344
  21878437.376   -12965319.865 6  -9881324.03021        15.250           0.656
 91  5 21 19 27 44.9970000  0  6G18G 2G11G19G16G 6
  22653306.743    10528180.535 6   8203748.36521        12.750           0.594
  20559824.681   -20183745.597 7 -15727570.16422        25.500           2.344
  22377778.274   -10916983.762 6  -8506727.19921        17.500           0.719
  20519603.267    -1192040.640 7   -928866.24122        20.250           1.781
  22782545.024    -6272975.791 5  -4826009.47921        10.000           0.375
  21870420.470   -13007457.984 6  -9914158.88521        15.000           0.625
 91  5 21 19 27 59.9970000  0  6G18G 2G11G19G16G 6
  22661100.126    10569152.943 6   8235674.75321        12.000           0.594
  20552893.423   -20220161.869 7 -15755946.45022        25.250           2.375
  22377904.938   -10916324.289 6  -8506213.34521        18.000           0.781
  20521094.618    -1184200.094 6   -922756.74022        19.750           1.906
  22783097.345    -6270087.676 5  -4823759.06521        10.500           0.344
  21862405.595   -13049575.544 6  -9946977.72221        15.500           0.844
 91  5 21 19 28 14.9970000  0  6G18G 2G11G19G16G 6
  22668904.376    10610174.926 6   8267639.78521        12.000           0.469
  20545983.157   -20256490.904 7 -15784254.75323        25.500           2.563
  22378059.384   -10915508.985 6  -8505578.05521        18.000           0.656
  20522596.493    -1176296.247 7   -916597.91722        20.250           1.969
  22783669.548    -6267074.896 5  -4821411.51321        10.500           0.313
  21854391.954   -13091667.999 6  -9979776.99521        14.750           0.719
 91  5 21 19 28 29.9970000  0  6G18G 2G11G19G16G 6
  22676723.079    10651248.107 6   8299644.69321        12.500           0.688
  20539083.985   -20292731.021 7 -15812493.77423        25.000           2.500
  22378244.485   -10914536.223 6  -8504820.08321        17.500           0.844
  20524112.524    -1168327.303 7   -910388.36522        20.500           1.938
  22784266.228    -6263935.751 5  -4818965.48921        10.500           0.438
  21846388.431   -13133733.574 6 -10012555.32721        14.750           0.750
 91  5 21 19 28 44.9970000  0  6G18G 2G11G19G16G 6
  22684546.634    10692367.096 5   8331685.31321        11.250           0.531
  20532204.360   -20328887.255 7 -15840667.43023        25.250           2.531
  22378458.563   -10913411.205 6  -8503943.46821        17.500           0.750
  20525642.259    -1160298.447 7   -904132.13122        20.500           1.875
  22784886.931    -6260675.469 5  -4816425.07221        10.500           0.313
  21838393.853   -13175777.255 6 -10045316.60021        15.000           0.719
 91  5 21 19 28 59.9970000  0  6G18G 2G11G19G16G 6
  22692380.728    10733527.105 6   8363757.88121        12.250           0.594
  20525339.110   -20364964.430 7 -15868779.48322        25.250           2.438
  22378701.110   -10912138.789 6  -8502952.00121        18.000           0.906
  20527179.360    -1152214.213 7   -897832.74222        20.500           1.969
  22785532.353    -6257299.249 5  -4813794.31521        11.000           0.344
  21830393.524   -13217803.834 6 -10078064.54421        14.750           0.781
 91  5 21 19 29 14.9970000  0  6G18G 2G11G19G16G 6
  22700222.032    10774732.165 6   8395865.55521        12.000           0.563
  20518489.634   -20400957.977 7 -15896826.37423        25.750           2.563
  22378970.837   -10910714.589 6  -8501842.24821        17.750           0.750
  20528729.548    -1144070.388 7   -891486.92222        20.250           1.875
  22786194.876    -6253802.970 5  -4811070.00921        11.000           0.406
  21822400.743   -13259808.921 6 -10110795.73821        15.250           0.813
 91  5 21 19 29 29.9970000  0  6G18G 2G11G19G16G 6
  22708071.845    10815984.690 6   8428010.23421        12.250           0.625
  20511658.024   -20436864.877 7 -15924805.74623        25.500           2.594
  22379273.915   -10909135.805 6  -8500612.05921        17.500           0.844
  20530291.704    -1135863.890 7   -885092.26222        20.500           1.969
  22786884.478    -6250183.764 5  -4808249.90821        11.250           0.406
  21814409.829   -13301789.469 6 -10143507.81121        14.750           0.813
 91  5 21 19 29 44.9970000  0  6G18G 2G11G19G16G 6
  22715931.938    10857285.391 6   8460192.43921        12.500           0.563
  20504841.103   -20472684.580 7 -15952717.16723        25.250           2.594
  22379603.860   -10907401.937 6  -8499261.02221        17.750           0.813
  20531865.610    -1127593.887 7   -878648.12222        20.250           1.938
  22787600.384    -6246441.222 5  -4805333.70721        11.250           0.344
  21806426.446   -13343744.796 6 -10176200.23521        15.000           0.781
 91  5 21 19 29 59.9970000  0  6G18G 2G11G19G16G 6
  22723801.438    10898636.901 5   8492414.24821        11.750           0.656
  20498041.024   -20508414.177 7 -15980558.38223        25.750           2.656
  22379964.431   -10905510.195 6  -8497786.96621        18.250           0.813
  20533450.806    -1119257.634 7   -872152.35322        20.250           1.906
  22788333.126    -6242572.548 5  -4802319.22221        11.250           0.375
  21798449.220   -13385672.012 6 -10208870.75221        15.000           0.781
 91  5 21 19 30 14.9970000  0  6G18G 2G11G19G16G 6
  22731678.251    10940028.347 6   8524667.16021        12.250           0.656
  20491258.267   -20544064.002 7 -16008337.43623        26.000           2.594
  22380352.657   -10903471.002 6  -8496198.01021        18.250           0.906
  20535048.751    -1110865.642 7   -865613.15622        20.000           2.000
  22789094.196    -6238588.347 5  -4799214.71121        11.500           0.375
  21790474.071   -13427581.384 6 -10241527.37021        14.750           0.813
 91  5 21 19 30 29.9970000  0  6G18G 2G11G19G16G 6
  22739560.907    10981460.126 5   8556951.52521        11.500           0.500
  20484488.720   -20579633.608 7 -16036053.97923        26.000           2.656
  22380767.626   -10901284.022 6  -8494493.89121        18.000           0.750
  20536657.259    -1102417.222 7   -859029.98822        20.250           1.969
  22789866.813    -6234488.681 5  -4796020.22721        11.000           0.406
  21782502.056   -13469472.432 6 -10274169.70721        14.750           0.844
 91  5 21 19 30 44.9970000  0  6G18G 2G11G19G16G 6
  22747455.040    11022934.266 5   8589268.85521        11.500           0.594
  20477736.149   -20615120.241 7 -16063705.87123        26.000           2.719
  22381209.290   -10898946.862 6  -8492672.75321        17.500           0.750
  20538275.259    -1093909.814 7   -852400.85422        20.250           2.031
  22790673.376    -6230271.085 5  -4792733.86221        11.500           0.406
  21774533.267   -13511342.565 6 -10306795.74421        14.500           0.781
 91  5 21 19 30 59.9970000  0  6G18G 2G11G19G16G 6
  22755354.806    11064453.701 5   8621621.49821        11.750           0.469
  20471000.665   -20650520.562 7 -16091290.50423        26.000           2.750
  22381684.071   -10896456.386 6  -8490732.15421        18.250           0.844
  20539908.688    -1085340.239 6   -845723.27822        19.500           1.938
  22791501.657    -6225932.625 5  -4789353.30621        11.750           0.375
  21766573.040   -13553188.615 6 -10339403.01921        15.000           0.844
 91  5 21 19 31 14.9970000  0  6G18G 2G11G19G16G 6
  22763266.071    11106017.921 5   8654009.06021        11.500           0.531
  20464279.774   -20685835.176 7 -16118808.36023        26.250           2.750
  22382188.399   -10893813.052 6  -8488672.44921        18.250           0.875
  20541548.954    -1076708.853 7   -838997.54122        20.250           2.063
  22792346.603    -6221473.684 5  -4785878.85921        11.250           0.375
  21758610.196   -13595010.902 6 -10371991.76921        15.000           0.844
 91  5 21 19 31 29.9970000  0  6G18G 2G11G19G16G 6
  22771179.478    11147622.774 5   8686428.27121        11.250           0.500
  20457575.407   -20721067.973 7 -16146262.46223        26.000           2.781
  22382722.735   -10891020.925 6  -8486496.79621        18.500           0.844
  20543200.376    -1068019.460 7   -832226.60122        20.500           1.938
  22793215.962    -6216898.584 5  -4782313.91621        11.250           0.438
  21750657.892   -13636813.203 6 -10404564.95621        15.000           0.781
 91  5 21 19 31 44.9970000  0  6G18G 2G11G19G16G 6
  22779107.884    11189274.405 5   8718883.92621        11.500           0.531
  20450886.251   -20756212.860 7 -16173648.05223        26.250           2.813
  22383284.313   -10888073.985 6  -8484200.50721        18.500           0.875
  20544866.235    -1059265.903 7   -825405.66222        20.000           1.969
  22794114.181    -6212201.339 5  -4778653.79521        11.500           0.406
  21742708.313   -13678589.410 6 -10437117.80121        15.000           0.781
 91  5 21 19 31 59.9970000  0  6G18G 2G11G19G16G 6
  22787043.228    11230962.259 5   8751367.81521        11.500           0.531
  20444214.126   -20791279.663 7 -16200972.80523        26.250           2.719
  22383868.360   -10884982.231 6  -8481791.37721        18.500           0.875
  20546543.446    -1050458.011 7   -818542.38522        20.000           1.906
  22795026.829    -6207392.129 5  -4774906.41421        11.750           0.375
  21734760.696   -13720349.383 6 -10469657.99121        15.250           0.813
 91  5 21 19 32 14.9970000  0  6G18G 2G11G19G16G 6
  22794981.571    11272692.046 5   8783884.37421        11.500           0.563
  20437555.149   -20826262.590 7 -16228232.20023        26.000           2.813
  22384485.899   -10881739.986 6  -8479264.98521        18.000           0.906
  20548232.079    -1041589.954 7   -811632.22622        20.250           1.938
  22795967.376    -6202465.438 5  -4771067.47821        11.750           0.375
  21726818.056   -13762087.277 6 -10502180.98621        14.750           0.781
 91  5 21 19 32 29.9970000  0  6G18G 2G11G19G16G 6
  22802932.571    11314462.209 5   8816432.39321        11.500           0.531
  20430916.017   -20861162.738 7 -16255427.08923        26.250           2.906
  22385132.688   -10878348.572 6  -8476622.35421        18.250           0.844
  20549929.267    -1032663.007 7   -804676.17822        20.500           1.969
  22796927.251    -6197422.971 5  -4767138.34221        11.750           0.313
  21718878.345   -13803804.291 6 -10534687.70021        14.250           0.844
 91  5 21 19 32 44.9970000  0  6G18G 2G11G19G16G 6
  22810887.399    11356273.793 5   8849012.68921        11.500           0.438
  20424290.642   -20895979.055 7 -16282556.65423        26.250           2.906
  22385805.884   -10874806.863 6  -8473862.63121        18.500           0.813
  20551641.134    -1023675.955 7   -797673.29622        20.000           2.000
  22797907.657    -6192263.589 6  -4763118.12321        12.000           0.313
  21710944.657   -13845499.158 6 -10567177.17721        14.750           0.875
 91  5 21 19 32 59.9970000  0  6G18G 2G11G19G16G 6
  22818850.696    11398120.592 5   8881620.43521        11.000           0.563
  20417680.431   -20930716.865 7 -16309625.04523        26.250           2.875
  22386509.407   -10871120.680 6  -8470990.30721        19.250           0.844
  20553360.938    -1014634.368 7   -790627.92222        20.250           1.875
  22798908.876    -6186993.038 5  -4759011.23921        11.250           0.406
  21703013.649   -13887177.441 6 -10599653.70421        14.750           0.813
 91  5 21 19 33 14.9970000  0  6G18G 2G11G19G16G 6
  22826823.540    11440009.215 5   8914260.75621        11.000           0.344
  20411085.485   -20965369.707 7 -16336627.22723        26.250           2.906
  22387238.071   -10867283.580 6  -8468000.38121        19.000           0.750
  20555092.157    -1005531.605 6   -783534.87122        19.500           1.906
  22799936.962    -6181604.988 5  -4754812.82121        11.500           0.281
  21695086.938   -13928832.530 6 -10632112.17821        15.000           0.875
 91  5 21 19 33 29.9970000  0  6G18G 2G11G19G16G 6
  22834801.063    11481941.080 5   8946934.77321        11.250           0.438
  20404506.485   -20999935.911 7 -16363561.90523        26.000           2.938
  22387995.563   -10863293.963 6  -8464891.62521        18.000           0.813
  20556838.376     -996366.026 7   -776392.88122        20.000           1.906
  22800982.103    -6176097.849 5  -4750521.60921        11.750           0.344
  21687166.337   -13970462.679 6 -10664551.21821        15.250           0.875
 91  5 21 19 33 44.9970000  0  6G18G 2G11G19G16G 6
  22842786.923    11523910.817 5   8979638.30421        10.750           0.406
  20397945.462   -21034420.664 7 -16390433.11223        26.500           3.000
  22388784.235   -10859157.072 6  -8461668.11821        18.000           0.844
  20558591.407     -987142.556 7   -769205.77722        20.000           1.844
  22802051.368    -6170477.193 5  -4746141.94321        11.250           0.375
  21679249.173   -14012072.998 6 -10696974.79821        15.250           0.813
 91  5 21 19 33 59.9970000  0  6G18G 2G11G19G16G 6
  22850780.235    11565908.530 5   9012363.62021        11.000           0.469
  20391398.751   -21068833.653 7 -16417248.38923        26.250           2.969
  22389599.587   -10854882.752 6  -8458337.51221        19.250           0.875
  20560356.813     -977870.885 6   -761981.11322        19.750           1.844
  22803144.688    -6164752.939 5  -4741681.55721        11.750           0.250
  21671332.532   -14053673.099 6 -10729390.41921        15.250           1.063
 91  5 21 19 34 14.9970000  0  6G18G 2G11G19G16G 6
  22858780.282    11607944.689 5   9045118.91621        10.750           0.469
  20384863.806   -21103164.059 7 -16443999.32823        25.750           2.969
  22390438.407   -10850460.383 6  -8454891.53521        18.750           0.813
  20562134.478     -968540.232 7   -754710.49422        20.250           1.938
  22804254.267    -6158914.573 5  -4737132.23021        11.500           0.344
  21663419.595   -14095252.225 6 -10761789.70421        15.250           0.813
 91  5 21 19 34 29.9970000  0  6G18G 2G11G19G16G 6
  22866785.407    11650012.833 6   9077899.10221        12.000           0.563
  20378346.134   -21137417.887 7 -16470690.59223        25.750           3.031
  22391308.118   -10845895.991 6  -8451334.90521        18.500           0.781
  20563917.603     -959156.620 7   -747398.60122        20.000           1.969
  22805382.063    -6152968.419 5  -4732498.93621        11.000           0.250
  21655510.673   -14136816.229 6 -10794177.19221        15.500           0.813
 91  5 21 19 34 44.9970000  0  6G18G 2G11G19G16G 6
  22874798.001    11692121.018 5   9110710.53321        11.250           0.469
  20371843.837   -21171586.875 7 -16497315.74723        26.500           3.156
  22392205.673   -10841181.516 6  -8447661.31421        19.000           0.781
  20565715.274     -949711.835 6   -740039.04522        19.750           1.969
  22806536.423    -6146906.232 5  -4727775.21721        11.000           0.313
  21647604.532   -14178356.902 6 -10826546.51621        15.250           0.813
 91  5 21 19 34 59.9970000  0  6G18G 2G11G19G16G 6
  22882817.806    11734268.941 5   9143552.90221        11.250           0.469
  20365357.954   -21205671.122 7 -16523874.87423        26.500           3.125
  22393130.587   -10836317.198 6  -8443870.97021        18.750           0.906
  20567524.493     -940205.843 6   -732631.79422        19.750           1.875
  22807713.056    -6140728.553 5  -4722961.49421        11.250           0.375
  21639704.048   -14219874.268 6 -10858897.67121        15.500           0.875
 91  5 21 19 35 14.9970000  0  6G18G 2G11G19G16G 6
  22890845.642    11776444.800 5   9176417.05821        11.000           0.375
  20358885.431   -21239682.012 7 -16550376.83723        26.000           3.156
  22394082.103   -10831314.770 6  -8439973.00521        18.500           0.813
  20569342.759     -930650.099 6   -725185.77722        19.750           1.906
  22808912.603    -6134447.145 5  -4718066.96821        11.250           0.219
  21631804.368   -14261379.777 6 -10891239.58421        15.750           0.781
 91  5 21 19 35 29.9970000  0  6G18G 2G11G19G16G 6
  22898876.017    11818654.377 5   9209307.46521        11.500           0.500
  20352429.157   -21273613.374 7 -16576816.83123        26.000           3.063
  22395061.970   -10826168.188 6  -8435962.71321        18.250           0.813
  20571170.071     -921038.486 7   -717696.22522        20.000           1.969
  22810128.524    -6128056.147 5  -4713087.02921        11.500           0.313
  21623909.485   -14302867.336 6 -10923567.51321        15.250           0.750
 91  5 21 19 35 44.9970000  0  6G18G 2G11G19G16G 6
  22906917.454    11860897.778 5   9242224.25221        11.000           0.500
  20345986.837   -21307465.164 7 -16603194.81623        25.750           3.125
  22396068.556   -10820877.476 6  -8431840.10821        18.500           0.875
  20573011.165     -911370.887 7   -710163.04522        20.000           1.906
  22811363.556    -6121555.744 5  -4708021.83621        11.250           0.313
  21616019.634   -14344336.716 6 -10955881.27821        15.500           0.813
 91  5 21 19 35 59.9970000  0  6G18G 2G11G19G16G 6
  22914960.884    11903172.582 5   9275165.50121        11.250           0.438
  20339559.165   -21341239.146 7 -16629512.17523        25.500           3.156
  22397103.993   -10815444.696 6  -8427606.79821        18.750           0.813
  20574859.423     -901649.284 7   -702587.78722        20.500           1.844
  22812618.532    -6114948.121 5  -4702873.12721        10.750           0.406
  21608130.220   -14385789.775 6 -10988182.32721        15.500           0.906
 91  5 21 19 36 14.9970000  0  6G18G 2G11G19G16G 6
  22923011.696    11945478.509 5   9308130.98321        11.250           0.469
  20333147.282   -21374935.512 7 -16655769.05023        25.750           3.313
  22398164.532   -10809870.100 6  -8423262.98221        18.500           0.813
  20576719.337     -891873.567 6   -694970.35922        19.750           1.969
  22813895.954    -6108233.384 5  -4697640.91521        10.750           0.406
  21600246.126   -14427226.600 6 -11020470.72521        15.750           0.938
 91  5 21 19 36 29.9970000  0  6G18G 2G11G19G16G 6
  22931068.665    11987820.331 5   9341124.44821        10.750           0.438
  20326751.618   -21408549.365 7 -16681961.64223        25.750           3.094
  22399250.782   -10804148.825 6  -8418804.88721        18.500           0.844
  20578594.103     -882038.737 7   -687306.87122        20.250           1.844
  22815200.095    -6101406.835 5  -4692321.60421        10.750           0.313
  21592364.524   -14468642.018 6 -11052742.44821        15.750           0.906
 91  5 21 19 36 44.9970000  0  6G18G 2G11G19G16G 6
  22939132.079    12030200.104 5   9374147.48021        10.750           0.469
  20320371.071   -21442078.219 7 -16708087.99323        25.750           3.188
  22400369.774   -10798278.602 6  -8414230.71821        18.750           0.906
  20580474.259     -872142.378 6   -679595.43822        19.750           1.938
  22816520.298    -6094466.442 5  -4686913.56421        10.250           0.281
  21584487.907   -14510033.732 6 -11084995.69721        15.750           0.844
 91  5 21 19 36 59.9970000  0  6G18G 2G11G19G16G 6
  22947202.954    12072617.313 5   9407199.66921        10.250           0.438
  20314006.126   -21475522.569 7 -16734148.49323        25.750           3.188
  22401515.235   -10792260.100 6  -8409540.99621        19.000           0.813
  20582372.376     -862185.004 7   -671836.46022        20.000           1.844
  22817860.188    -6087412.958 5  -4681417.42021        10.500           0.281
  21576616.423   -14551402.140 6 -11117230.78121        16.000           0.750
 91  5 21 19 37 14.9970000  0  6G18G 2G11G19G16G 6
  22955282.884    12115062.268 5   9440273.49721        11.250           0.375
  20307656.149   -21508891.274 7 -16760150.05423        25.500           3.250
  22402686.603   -10786102.391 6  -8404742.80521        18.500           0.750
  20584275.321     -852175.404 6   -664036.79022        19.750           1.906
  22819223.290    -6080255.681 5  -4675840.36821        10.250           0.219
  21568746.962   -14592756.098 6 -11149454.60821        16.000           0.844
 91  5 21 19 37 29.9970000  0  6G18G 2G11G19G16G 6
  22963366.290    12157539.537 5   9473372.49921        10.750           0.281
  20301320.556   -21542179.726 7 -16786089.07823        25.750           3.219
  22403885.048   -10779800.944 6  -8399832.61621        18.000           0.875
  20586193.985     -842108.949 7   -656192.81322        20.000           1.875
  22820602.048    -6072989.981 5  -4670178.86421         9.750           0.438
  21560882.946   -14634090.945 6 -11181663.54721        16.500           0.875
 91  5 21 19 37 44.9970000  0  6G18G 2G11G19G16G 6
  22971455.181    12200049.702 6   9506497.12721        12.000           0.313
  20295003.563   -21575387.114 7 -16811964.93523        26.250           3.156
  22405111.985   -10773355.139 6  -8394809.95521        18.250           0.750
  20588117.196     -831984.850 6   -648303.91822        19.500           1.781
  22822006.188    -6065615.476 5  -4664432.55521         9.750           0.281
  21553017.063   -14675405.857 6 -11213856.94821        15.750           0.813
 91  5 21 19 37 59.9970000  0  6G18G 2G11G19G16G 6
  22979550.126    12242592.424 5   9539647.13621        11.000           0.375
  20288699.993   -21608513.480 7 -16837777.65923        26.500           3.094
  22406365.337   -10766765.263 6  -8389675.01021        18.250           0.813
  20590055.743     -821803.282 7   -640370.24722        20.000           1.813
  22823430.649    -6058132.714 5  -4658601.88821         9.500           0.375
  21545159.704   -14716700.854 6 -11246034.83721        16.250           0.938
 91  5 21 19 38 14.9970000  0  6G18G 2G11G19G16G 6
  22987652.688    12285167.137 5   9572822.07321        11.000           0.469
  20282410.454   -21641559.408 7 -16863527.71023        26.250           3.156
  22407646.712   -10760031.883 6  -8384428.24221        18.000           0.750
  20592004.274     -811564.502 7   -632391.99022        20.000           1.719
  22824880.118    -6050542.286 5  -4652687.36421         9.750           0.313
  21537307.813   -14757976.333 6 -11278197.51021        16.250           0.906
 91  5 21 19 38 29.9970000  0  6G18G 2G11G19G16G 6
  22995760.876    12327774.654 5   9606022.55721        10.500           0.313
  20276137.360   -21674523.489 7 -16889213.98023        26.750           3.250
  22408956.345   -10753153.834 6  -8379068.74521        17.250           0.719
  20593967.423     -801267.163 6   -624368.10622        19.500           1.844
  22826342.751    -6042843.180 5  -4646688.13021         9.750           0.219
  21529454.048   -14799230.899 6 -11310343.89021        16.250           0.906
 91  5 21 19 38 44.9970000  0  6G18G 2G11G19G16G 6
  23003874.313    12370413.642 5   9639247.56321        11.250           0.344
  20269880.462   -21707406.989 7 -16914837.45623        27.000           3.156
  22410293.712   -10746132.435 6  -8373597.56521        17.500           0.719
  20595933.509     -790912.584 7   -616299.62022        20.000           1.844
  22827826.790    -6035036.611 5  -4640605.15821         9.000           0.313
  21521609.329   -14840465.694 6 -11342474.86521        16.250           0.844
 91  5 21 19 38 59.9970000  0  6G18G 2G11G19G16G 6
  23011994.071    12413083.920 5   9672496.97321        10.250           0.281
  20263638.790   -21740209.428 7 -16940397.77723        27.000           3.094
  22411658.790   -10738967.502 6  -8368014.52521        18.250           0.781
  20597917.884     -780500.409 6   -608186.25422        19.250           1.844
  22829333.337    -6027122.630 5  -4634438.48421         9.000           0.344
  21513764.993   -14881680.310 6 -11374590.12421        16.250           0.813
 91  5 21 19 39 14.9970000  0  6G18G 2G11G19G16G 6
  23020120.673    12455784.882 5   9705770.27221        11.000           0.281
  20257410.657   -21772931.453 7 -16965895.42923        26.750           3.188
  22413048.524   -10731659.896 6  -8362320.30921        17.750           0.875
  20599907.313     -770031.059 6   -600028.33322        19.750           1.813
  22830857.899    -6019101.991 5  -4628188.70821         8.500           0.188
  21505928.649   -14922875.367 6 -11406690.12021        17.000           0.844
 91  5 21 19 39 29.9970000  0  6G18G 2G11G19G16G 6
  23028252.688    12498518.673 5   9739069.17221        10.750           0.313
  20251201.017   -21805570.784 7 -16991328.64923        27.250           3.031
  22414463.712   -10724207.226 6  -8356513.05721        17.250           0.750
  20601914.048     -759502.210 6   -591824.04922        19.000           1.844
  22832413.579    -6010972.737 5  -4621854.28621         9.250           0.313
  21498090.353   -14964048.341 6 -11438772.93121        16.500           0.875
 91  5 21 19 39 44.9970000  0  6G18G 2G11G19G16G 6
  23036391.267    12541285.146 5   9772393.50021        11.000           0.375
  20245004.056   -21838127.096 7 -17016697.17923        27.000           3.063
  22415911.782   -10716609.494 6  -8350592.76621        17.000           0.781
  20603925.649     -748913.623 6   -583573.22322        19.750           1.750
  22833973.438    -6002734.861 5  -4615435.23821         9.250           0.250
  21490265.376   -15005198.988 6 -11470838.34621        17.000           0.844
 91  5 21 19 39 59.9970000  0  6G18G 2G11G19G16G 6
  23044535.376    12584083.509 5   9805742.70621        11.000           0.344
  20238826.610   -21870600.889 7 -17042001.41423        26.750           3.031
  22417385.829   -10708867.386 6  -8344559.97221        17.250           0.781
  20605952.978     -738265.784 6   -575276.22122        19.250           1.781
  22835563.993    -5994389.015 5  -4608932.05421         9.250           0.313
  21482433.001   -15046327.775 6 -11502886.71321        16.500           0.938
 91  5 21 19 40 14.9970000  0  6G18G 2G11G19G16G 6
  23052683.298    12626909.185 5   9839113.20221        10.750           0.375
  20232661.173   -21902996.533 7 -17067244.74823        27.000           3.156
  22418885.204   -10700985.490 6  -8338418.26521        17.500           0.750
  20607990.298     -727563.057 7   -566936.45322        20.000           1.813
  22837167.657    -5985940.058 5  -4602348.51621         9.000           0.281
  21474611.126   -15087439.054 6 -11534921.44521        16.500           0.906
 91  5 21 19 40 29.9970000  0  6G18G 2G11G19G16G 6
  23060839.009    12669767.859 5   9872509.36921        10.500           0.375
  20226510.454   -21935308.362 7 -17092422.77223        27.250           3.094
  22420412.134   -10692958.108 6  -8332163.18721        17.250           0.906
  20610039.220     -716799.537 6   -558549.31522        19.500           1.813
  22838797.712    -5977382.299 5  -4595680.21621         9.250           0.375
  21466792.712   -15128526.887 6 -11566937.90421        16.500           0.906
 91  5 21 19 40 44.9970000  0  6G18G 2G11G19G16G 6
  23069002.259    12712658.100 5   9905930.15821        11.250           0.250
  20220378.321   -21967537.270 7 -17117536.18523        26.750           3.094
  22421965.728   -10684786.479 6  -8325795.70721        16.750           0.844
  20612097.298     -705976.158 7   -550115.52922        20.000           1.813
  22840449.478    -5968717.317 5  -4588928.34321         9.250           0.344
  21458978.938   -15169592.327 6 -11598936.91721        17.000           0.844
 91  5 21 19 40 59.9970000  0  6G18G 2G11G19G16G 6
  23077170.149    12755582.144 5   9939377.31621        11.000           0.313
  20214262.384   -21999680.640 7 -17142582.93923        27.000           3.156
  22423550.688   -10676468.297 6  -8319314.02721        17.000           0.906
  20614167.915     -695090.389 6   -541633.13722        19.750           1.813
  22842115.556    -5959942.894 5  -4582091.20921         8.250           0.281
  21451168.407   -15210632.774 6 -11630916.45221        16.750           0.969
 91  5 21 19 41 14.9970000  0  6G18G 2G11G19G16G 6
  23085342.907    12798536.038 5   9972847.69521        10.750           0.344
  20208161.548   -22031742.275 7 -17167566.00423        27.000           3.125
  22425159.712   -10668007.510 6  -8312721.22721        17.250           0.844
  20616251.118     -684146.036 6   -533105.08922        19.750           1.781
  22843806.610    -5951062.802 5  -4575171.73821         9.000           0.219
  21443362.884   -15251651.839 6 -11662879.33221        16.500           0.969
 91  5 21 19 41 29.9970000  0  6G18G 2G11G19G16G 6
  23093524.438    12841518.846 5  10006340.64021         9.750           0.344
  20202074.837   -22063722.660 7 -17192485.76123        27.250           3.031
  22426796.938   -10659404.700 6  -8306017.75921        16.500           0.813
  20618345.103     -673143.396 7   -524531.62422        20.250           1.781
  22845518.595    -5942077.645 5  -4568170.38621         9.000           0.281
  21435560.001   -15292650.061 6 -11694825.97121        16.500           0.969
 91  5 21 19 41 44.9970000  0  6G18G 2G11G19G16G 6
  23101708.657    12884530.581 5  10039856.11021        10.500           0.250
  20196004.204   -22095621.570 7 -17217342.03123        27.250           3.125
  22428458.806   -10650659.682 6  -8299203.49021        16.000           0.938
  20620449.509     -662082.177 6   -515912.51322        19.750           1.719
  22847245.618    -5932987.738 5  -4561087.42321         8.750           0.250
  21427763.181   -15333626.899 6 -11726755.94921        16.750           0.875
 91  5 21 19 41 59.9970000  0  6G18G 2G11G19G16G 6
  23109900.095    12927576.868 5  10073398.46721         9.750           0.281
  20189951.126   -22127433.450 7 -17242130.48223        27.250           3.000
  22430152.392   -10641767.129 6  -8292274.25721        16.500           0.875
  20622564.259     -650956.902 6   -507243.49122        19.500           1.781
  22848999.907    -5923787.624 5  -4553918.58821         9.500           0.219
  21419972.649   -15374576.921 6 -11758665.02921        17.000           0.969
 91  5 21 19 42 14.9970000  0  6G18G 2G11G19G16G 6
  23118096.181    12970653.906 5  10106964.82221        10.250           0.250
  20183913.798   -22159161.405 7 -17266853.54123        27.500           3.094
  22431872.837   -10632730.543 6  -8285232.77821        16.500           0.813
  20624695.376     -639770.664 6   -498526.96422        19.500           1.844
  22850769.962    -5914481.003 5  -4546666.74221         9.500           0.281
  21412181.571   -15415503.191 6 -11790555.60621        16.500           0.906
 91  5 21 19 42 29.9970000  0  6G18G 2G11G19G16G 6
  23126299.431    13013751.249 5  10140547.01021        10.750           0.250
  20177890.251   -22190815.768 7 -17291519.25723        27.500           3.188
  22433618.032   -10623560.361 6  -8278087.20121        16.250           0.875
  20626833.337     -628533.763 6   -489770.95922        19.750           1.750
  22852555.181    -5905078.433 5  -4539340.15821         9.500           0.344
  21404399.392   -15456415.947 6 -11822435.64721        17.000           1.000
 91  5 21 19 42 44.9970000  0  6G18G 2G11G19G16G 6
  23134505.095    13056878.989 5  10174152.85221        10.750           0.313
  20171881.696   -22222386.415 7 -17316119.74023        27.250           3.031
  22435393.009   -10614246.332 6  -8270829.54421        16.250           0.844
  20628984.313     -617235.921 6   -480967.47022        19.750           1.813
  22854368.954    -5895569.569 5  -4531930.70921         9.750           0.375
  21396616.384   -15497304.880 6 -11854297.12821        16.750           1.000
 91  5 21 19 42 59.9970000  0  6G18G 2G11G19G16G 6
  23142719.938    13100027.299 5  10207774.71621        11.000           0.250
  20165890.845   -22253882.705 7 -17340662.27623        27.750           3.156
  22437187.720   -10604798.138 6  -8263467.34221        15.750           0.906
  20631144.438     -605886.594 6   -472123.86322        19.500           1.719
  22856192.243    -5885964.267 5  -4524446.14921         9.250           0.313
  21388837.673   -15538179.243 6 -11886147.24721        16.750           0.969
 91  5 21 19 43 14.9970000  0  6G18G 2G11G19G16G 6
  23150934.649    13143199.908 5  10241415.53221        11.000           0.406
  20159911.165   -22285300.698 7 -17365143.80523        27.500           3.000
  22439011.603   -10595212.004 6  -8255997.64921        16.250           0.844
  20633315.220     -594481.872 6   -463237.08822        19.750           1.688
  22858045.009    -5876258.745 5  -4516883.48421        10.000           0.281
  21381064.196   -15579035.259 6 -11917983.08021        16.750           0.844
 91  5 21 19 43 29.9970000  0  6G18G 2G11G19G16G 6
  23159155.024    13186405.491 5  10275082.05321        10.250           0.250
  20153948.892   -22316631.329 7 -17389557.26323        27.750           3.063
  22440863.438   -10585479.109 6                        15.500
  20635499.306     -583012.571 6   -454299.99322        19.000           1.688
  22859911.071    -5866444.529 5                         9.750
  21373293.079   -15619863.698 6 -11949797.42121        17.250           0.969
 91  5 21 19 43 44.9970000  0  6G18G 2G11G19G16G 6
  23167380.032    13229635.260 5  10308767.39621        10.250           0.188
  20148001.790   -22347883.071 7 -17413909.24723        27.500           2.938
  22442741.806   -10575608.272 6                        15.500
  20637689.478     -571487.294 6   -445319.28422        19.750           1.781
  22861797.595    -5856530.526 5                        10.000
  21365526.024   -15660672.999 6 -11981596.84721        17.250           1.031
 91  5 21 19 43 59.9970000  0  6G18G 2G11G19G16G 6
  23175615.423    13272895.335 5  10342476.36921        10.750           0.344
  20142070.587   -22379049.616 7 -17438194.83923        27.500           2.969
  22444648.649   -10565593.378 6                        15.750
  20639893.798     -559899.741 6   -436290.04622        19.750           1.719
  22863707.204    -5846510.853 5                        10.250
  21357767.243   -15701456.873 6 -12013376.46521        17.250           0.969
 91  5 21 19 44 14.9970000  0  6G18G 2G11G19G16G 6
  23183851.267    13316178.322 5  10376203.19121        10.250           0.250
  20136154.079   -22410138.071 7 -17462419.58623        27.250           3.063
  22446580.267   -10555441.495 6                        15.750
  20642110.509     -548256.698 6   -427217.56822        19.750           1.750
  22865631.790    -5836392.486 5                        10.750
  21350009.462   -15742222.241 6 -12045141.65521        17.250           1.031
 91  5 21 19 44 29.9970000  0  6G18G 2G11G19G16G 6
  23192092.298    13359487.781 5  10409950.63821        10.500           0.188
  20130253.837   -22441144.747 7 -17486580.61123        27.250           3.063
  22448537.579   -10545149.197 6                        15.500
  20644335.907     -536554.466 6   -418098.96722        19.250           1.750
  22867573.056    -5826171.859 5                        10.250
  21342256.829   -15782965.340 6 -12076889.50821        17.250           0.969
 91  5 21 19 44 44.9970000  0  6G18G 2G11G19G16G 6
  23200340.978    13402827.034 5  10443721.31921        10.250           0.219
  20124371.204   -22472066.224 7 -17510675.24423        27.500           3.031
  22450525.634   -10534713.182 6  -8208855.82021        16.000           0.750
  20646577.368     -524789.787 6   -408931.71522        19.250           1.781
  22869539.704    -5815846.101 5  -4469809.16821        10.500           0.313
  21334507.860   -15823682.639 6 -12108617.24721        17.000           1.031
 91  5 21 19 44 59.9970000  0  6G18G 2G11G19G16G 6
  23208593.259    13446196.230 5  10477515.31421         9.500           0.125
  20118502.118   -22502901.986 7 -17534703.09023        27.250           3.031
  22452537.759   -10524133.084 6  -8200611.60421        15.500           0.813
  20648826.048     -512961.917 6   -399715.22322        19.500           1.719
  22871523.556    -5805414.905 5  -4461681.04021        10.250           0.281
  21326766.259   -15864373.636 6 -12140324.49521        17.500           1.063
 91  5 21 19 45 14.9970000  0  6G18G 2G11G19G16G 6
  23216851.720    13489583.473 5  10511323.38421         9.750           0.219
  20112647.657   -22533663.513 7 -17558673.09123        27.250           2.969
  22454578.556   -10513420.734 6  -8192264.33821        16.000           0.750
  20651085.813     -501082.414 6   -390458.48922        19.250           1.719
  22873528.181    -5794889.880 5  -4453479.80421        10.500           0.344
  21319024.024   -15905049.718 6 -12172020.11121        17.250           0.938
 91  5 21 19 45 29.9970000  0  6G18G 2G11G19G16G 6
  23225108.751    13532996.840 5  10545151.82421         9.250           0.188
  20106811.110   -22564342.401 7 -17582578.69423        27.500           3.031
  22456642.274   -10502567.862 6  -8183807.55521        16.000           0.656
  20653357.728     -489142.859 6   -381154.96822        19.250           1.594
  22875552.259    -5784262.872 5  -4445199.09721        11.000           0.281
  21311287.056   -15945702.322 6 -12203697.43921        17.250           1.063
 91  5 21 19 45 44.9970000  0  6G18G 2G11G19G16G 6
  23233377.626    13576440.584 5  10579003.91221         9.750           0.188
  20100988.251   -22594934.159 7 -17606416.40623        27.500           3.063
  22458733.837   -10491570.222 6  -8175237.99321        15.500           0.781
  20655644.743     -477138.719 6   -371801.12522        19.250           1.781
  22877588.915    -5773530.083 5  -4436835.95921        10.250           0.375
  21303559.938   -15986327.020 6 -12235353.02421        17.750           1.063
 91  5 21 19 45 59.9970000  0  6G18G 2G11G19G16G 6
  23241649.946    13619912.234 5  10612877.74621         9.500           0.219
  20095183.517   -22625441.271 7 -17630188.16223        27.500           3.000
  22460854.696   -10480430.298 6  -8166557.55621        15.250           0.688
  20657937.376     -465072.531 6   -362398.93022        19.250           1.719
  22879655.126    -5762694.410 5  -4428392.67521        11.000           0.313
  21295833.446   -16026926.111 6 -12266988.65021        17.750           1.094
 91  5 21 19 46 14.9970000  0  6G18G 2G11G19G16G 6
  23249927.259    13663406.999 5  10646769.54921        10.000           0.125
  20089392.970   -22655868.197 7 -17653897.43023        27.250           2.938
  22462999.556   -10469152.710 6  -8157769.84621        15.750           0.625
  20660249.071     -452948.502 6   -352951.66622        19.750           1.656
  22881735.954    -5751760.026 5  -4419872.43721        11.000           0.313
  21288110.759   -16067503.985 6 -12298607.74621        17.750           1.125
 91  5 21 19 46 29.9970000  0  6G18G 2G11G19G16G 6
  23258208.087    13706924.014 5  10680678.77821         9.750           0.219
  20083619.243   -22686215.333 7 -17677544.53023        27.500           3.063
  22465173.196   -10457738.181 6  -8148875.40521        15.500           0.688
  20662564.470     -440767.159 6   -343459.73522        19.500           1.750
  22883833.024    -5740727.668 5  -4411275.87721        11.250           0.344
  21280392.579   -16108060.941 6 -12330210.53721        18.250           1.094
 91  5 21 19 46 44.9970000  0  6G18G 2G11G19G16G 6
  23266493.696    13750464.700 5  10714606.36121         9.750           0.281
  20077858.431   -22716481.075 7 -17701128.19923        27.250           3.063
  22467369.712   -10446185.159 6  -8139873.07521        15.000           0.656
  20664895.181     -428526.768 6   -333921.79622        19.750           1.719
  22885954.282    -5729596.051 5  -4402601.98821        11.250           0.375
  21272679.923   -16148595.213 6 -12361795.65721        18.250           1.031
 91  5 21 19 46 59.9970000  0  6G18G 2G11G19G16G 6
  23274784.923    13794027.978 5  10748551.63421         9.750           0.156
  20072116.790   -22746666.303 7 -17724649.13123        27.500           3.031
  22469598.032   -10434495.013 6  -8130763.89021        15.250           0.750
  20667233.868     -416228.021 6   -324338.38822        19.500           1.750
  22888089.993    -5718366.714 5  -4393851.92821        11.500           0.375
  21264970.290   -16189107.699 6 -12393363.80121        18.500           1.125
 91  5 21 19 47 14.9970000  0  6G18G 2G11G19G16G 6
  23283078.337    13837610.100 5  10782511.51821         9.500           0.188
  20066386.853   -22776774.292 7 -17748109.87923        27.250           3.031
  22471846.392   -10422671.148 6  -8121550.51721        15.750           0.719
  20669585.962     -403874.470 6   -314712.27422        19.250           1.750
  22890246.688    -5707043.255 5  -4385028.54121        11.750           0.375
  21257264.048   -16229601.694 6 -12424917.53821        18.500           1.094
 91  5 21 19 47 29.9970000  0  6G18G 2G11G19G16G 6
  23291378.321    13881216.990 5  10816490.73121         9.000           0.281
  20060670.845   -22806798.971 7 -17771505.71223        27.000           3.000
  22474122.220   -10410707.611 6  -8112228.30321        15.500           0.719
  20671946.751     -391460.056 6   -305038.73522        19.750           1.688
  22892418.853    -5695619.618 5  -4376127.08221        11.250           0.375
  21249562.267   -16270071.130 6 -12456452.13121        18.500           1.125
 91  5 21 19 47 44.9970000  0  6G18G 2G11G19G16G 6
  23299676.149    13924847.622 5  10850488.43421         8.000           0.219
  20054973.946   -22836741.342 7 -17794837.41223        27.000           2.969
  22476424.462   -10398605.691 6  -8102798.25721        14.750           0.688
  20674321.438     -378985.669 6   -295318.46022        19.500           1.781
  22894610.376    -5684097.001 5  -4367148.49721        11.250           0.406
  21241868.196   -16310516.750 6 -12487968.17721        18.750           1.063
 91  5 21 19 47 59.9970000  0  6G18G 2G11G19G16G 6
  23307982.056    13968495.010 5  10884499.20121         8.250           0.125
  20049290.993   -22866607.957 7 -17818110.07523        27.250           3.000
  22478753.899   -10386371.985 6  -8093265.51321        14.500           0.750
  20676706.665     -366457.662 7   -285556.41322        20.000           1.813
  22896821.040    -5672482.337 5  -4358098.20621        11.250           0.281
  21234173.876   -16350944.957 6 -12519470.65021        18.500           1.063
 91  5 21 19 48 14.9970000  0  6G18G 2G11G19G16G 6
  23316293.392    14012163.571 5  10918526.48721         8.250           0.156
  20043623.282   -22896394.234 7 -17841320.14023        27.500           3.031
  22481106.681   -10374002.042 6  -8083626.61921        14.750           0.688
  20679099.087     -353871.471 6   -275749.01622        19.500           1.813
  22899049.962    -5660771.454 5  -4348972.91721        11.250           0.344
  21226485.118   -16391351.100 6 -12550955.92621        18.500           1.094
 91  5 21 19 48 29.9970000  0  6G18G 2G11G19G16G 6
  23324608.813    14055856.283 5  10952572.53121         8.000           0.188
  20037969.899   -22926096.947 7 -17864465.09223        26.750           3.063
  22483488.251   -10361492.935 6  -8073879.28421        15.250           0.719
  20681506.837     -341223.803 7   -265893.72522        20.250           1.844
  22901294.970    -5648961.263 5  -4339770.26521        10.750           0.344
  21218800.704   -16431731.899 6 -12582421.45521        19.000           1.125
 91  5 21 19 48 44.9970000  0  6G18G 2G11G19G16G 6
  23332924.657    14099568.463 5  10986633.81621         7.500           0.156
  20032333.173   -22955720.495 7 -17887548.35423        26.750           2.969
  22485891.556   -10348849.238 6                        14.750
  20683925.759     -328519.085 6                        19.750
  22903565.767    -5637056.670 5  -4330494.04021        10.750           0.406
  21211120.431   -16472091.711 6 -12613870.63121        18.750           1.063
 91  5 21 19 48 59.9970000  0  6G18G 2G11G19G16G 6
  23341245.571    14143299.743 5  11020709.93621         8.000           0.063
  20026710.728   -22985265.011 7 -17910570.03123        26.750           3.031
  22488324.946   -10336071.242 6                        14.750
  20686353.313     -315757.179 6                        19.750
  22905842.235    -5625057.804 5  -4321144.36421        10.500           0.313
  21203444.735   -16512430.388 6 -12645303.34021        19.000           1.156
 91  5 21 19 49 14.9970000  0  6G18G 2G11G19G16G 6
  23349575.290    14187053.316 5  11054803.39721         8.750           0.156
  20021105.337   -23014726.924 7 -17933527.34723        26.750           3.031
  22490780.399   -10323155.690 6  -8044006.15621        15.000           0.688
  20688792.673     -302934.649 6   -236058.11322        19.750           1.844
  22908150.431    -5612961.253 5  -4311718.57321        10.500           0.313
  21195772.040   -16552744.428 6 -12676716.84621        18.750           1.188
 91  5 21 19 49 29.9970000  0  6G18G 2G11G19G16G 6
  23357905.087    14230823.377 5                         8.750
  20015510.915   -23044111.884 7 -17956424.70223        26.500           3.063
  22493267.251   -10310108.594 6  -8033839.60721        15.500           0.750
  20691244.368     -290057.398 6   -226023.92422        19.750           1.813
  22910464.423    -5600773.213 5  -4302221.48821        10.250           0.375
  21188103.243   -16593039.670 6 -12708115.70821        19.000           1.156
 91  5 21 19 49 44.9970000  0  6G18G 2G11G19G16G 6
  23366237.970    14274609.806 5                         8.750
  20009935.259   -23073419.876 7 -17979262.07823        26.500           3.000
  22495774.196   -10296929.981 6  -8023570.57121        15.250           0.688
  20693704.509     -277125.050 6   -215946.80022        19.500           1.750
  22912804.048    -5588493.924 5  -4292653.29521        10.500           0.281
  21180441.118   -16633315.540 6 -12739499.47421        19.000           1.188
 91  5 21 19 49 59.9970000  0  6G18G 2G11G19G16G 6
  23374571.657    14318421.247 5                         9.000
  20004375.415   -23102641.569 7 -18002032.21223        27.000           2.969
  22498307.259   -10283610.698 6  -8013191.94221        14.500           0.719
  20696180.462     -264128.290 6   -205819.48722        19.250           1.813
  22915157.017    -5576114.611 5  -4283007.16421        10.500           0.281
  21172782.681   -16673563.017 6 -12770861.11421        19.250           1.156
 91  5 21 19 50 14.9970000  0  6G18G 2G11G19G16G 6
  23382917.157    14362253.415 5        -0.21631         9.000           0.219
  19998830.524   -23131781.181 7 -18024738.38623        26.750           2.969
  22500867.149   -10270155.209 6  -8002707.16321        14.500           0.563
  20698664.509     -251071.388 7   -195645.31222        20.000           1.719
  22917532.290    -5563639.603 5  -4273286.45821        10.500           0.344
  21165126.509   -16713786.101 6 -12802203.75421        19.250           1.125
 91  5 21 19 50 29.9970000  0  6G18G 2G11G19G16G 6
  23391261.173    14406103.531 5     34168.48621         8.250           0.156
  19993298.540   -23160841.487 7 -18047382.76223        26.500           2.938
  22503455.024   -10256566.389 6  -7992118.49921        15.250           0.656
  20701158.587     -237956.930 6   -185426.28922        19.500           1.844
  22919926.712    -5551071.645 5  -4263493.34421        10.250           0.281
  21157479.985   -16753987.164 6 -12833529.22821        19.500           1.125
 91  5 21 19 50 44.9970000  0  6G18G 2G11G19G16G 6
  23399609.126    14449977.605 5     68355.89321         8.500           0.156
  19987785.478   -23189815.915 7 -18069960.22123        26.750           2.906
  22506066.845   -10242837.920 6  -7981421.00821        15.500           0.656
  20703666.907     -224778.395 6   -175157.34122        19.500           1.875
  22922338.103    -5538404.811 5  -4253623.14021        10.250           0.281
  21149833.126   -16794159.789 6 -12864832.54321        19.000           1.094
 91  5 21 19 50 59.9970000  0  6G18G 2G11G19G16G 6
  23407962.220    14493867.004 5    102555.27221         7.750           0.156
  19982287.290   -23218712.920 7 -18092477.35023        26.750           2.938
  22508703.204   -10228978.452 6  -7970621.44121        15.000           0.781
  20706189.024     -211544.289 6   -164845.08122        18.750           1.750
  22924760.087    -5525647.713 5  -4243682.63721         9.750           0.344
  21142192.868   -16834312.357 6 -12896120.23021        19.500           1.188
 91  5 21 19 51 14.9970000  0  6G18G 2G11G19G16G 6
  23416316.649    14537773.554 5    136767.89321         7.500           0.188
  19976804.345   -23247530.746 7 -18114932.78223        27.000           3.063
  22511367.009   -10214986.434 6  -7959718.60621        15.250           0.719
  20708712.017     -198252.655 6   -154487.99622        19.500           1.813
  22927212.048    -5512798.882 5  -4233670.65221        10.000           0.281
  21134553.603   -16874442.862 6 -12927390.72921        19.000           1.031
 91  5 21 19 51 29.9970000  0  6G18G 2G11G19G16G 6
  23424671.985    14581700.581 4    170996.58921         7.000           0.125
  19971335.353   -23276265.496 7 -18137323.47723        27.000           3.063
  22514054.462   -10200858.178 6  -7948709.59721        15.000           0.750
  20711260.501     -184899.590 6   -144083.04922        19.000           1.813
  22929674.563    -5499854.936 5  -4223584.55921        10.250           0.344
  21126925.431   -16914547.549 6 -12958641.10421        19.250           1.125
 91  5 21 19 51 44.9970000  0  6G18G 2G11G19G16G 6
  23433038.095    14625648.864 4    205241.79021         6.750           0.188
  19965883.649   -23304916.133 7 -18159648.63123        27.000           2.969
  22516771.790   -10186593.147 6  -7937594.00221        15.250           0.719
  20713808.243     -171484.100 6   -133629.45422        19.750           1.906
  22932150.556    -5486815.018 5  -4213423.66021        10.000           0.344
  21119295.728   -16954625.256 6 -12989870.46221        18.750           1.000
 91  5 21 19 51 59.9970000  0  6G18G 2G11G19G16G 6
  23441403.759    14669613.055 4    239499.40921         6.750           0.188
  19960446.571   -23333487.898 7 -18181912.32623        26.500           3.031
  22519509.782   -10172196.485 6  -7926375.84621        15.250           0.719
  20716375.915     -158011.318 6   -123131.21622        19.250           1.781
  22934651.337    -5473684.393 5  -4203192.09821        10.000           0.344
  21111673.642   -16994680.861 6 -13021082.59921        19.250           1.094
 91  5 21 19 52 14.9970000  0  6G18G 2G11G19G16G 6
  23449775.392    14713601.986 4    273776.27021         7.000           0.188
  19955026.282   -23361971.433 7 -18204107.27223        27.000           3.000
  22522275.454   -10157659.173 6  -7915048.09321        15.000           0.750
  20718948.329     -144471.973 6   -112581.11522        19.500           1.750
  22937173.103    -5460454.358 5  -4192883.05421        10.250           0.281
  21104059.478   -17034705.162 6 -13052270.33921        19.250           1.094
 91  5 21 19 52 29.9970000  0  5G 2G11G19G16G 6
  19949622.501   -23390369.341 7 -18226235.49823        27.000           2.969
  22525069.954   -10142983.811 6  -7903612.77421        15.500           0.719
  20721538.079     -130868.493 6   -101981.03922        18.500           1.844
  22939701.860    -5447127.811 5  -4182498.83221         9.500           0.313
  21096445.603   -17074700.606 6 -13083435.60021        19.000           1.094
 91  5 21 19 52 44.9970000  0  5G 2G11G19G16G 6
  19944231.321   -23418689.303 7 -18248302.98223        26.250           2.969
  22527886.884   -10128178.520 6  -7892076.20621        16.000           0.813
  20724135.884     -117208.702 6    -91337.08122        19.000           1.781
  22942257.321    -5433712.783 5  -4172045.64921         9.750           0.375
  21088839.126   -17114674.784 6 -13114584.28721        19.000           1.094
 91  5 21 19 52 59.9970000  0  5G 2G11G19G16G 6
  19938860.048   -23446929.765 7 -18270308.51523        27.000           2.938
  22530727.767   -10113241.766 6  -7880437.20321        15.500           0.688
  20726748.024     -103490.728 6    -80647.79422        19.000           1.875
  22944831.423    -5420207.802 5  -4161522.38821         9.500           0.375
  21081237.931   -17154626.046 6 -13145715.11121        18.750           1.156
 91  5 21 19 53 14.9960000  0  5G 2G11G19G16G 6
  19933502.246   -23475081.277 7 -18292244.74323        26.750           2.969
  22533595.621   -10098167.325 6  -7868690.90721        15.250           0.813
  20729370.895      -89708.005 6    -69908.04922        19.500           1.813
  22947415.988    -5406606.426 5  -4150924.01621         9.500           0.250
  21073640.676   -17194543.813 6 -13176819.83721        19.000           1.063
 91  5 21 19 53 29.9960000  0  5G 2G11G19G16G 6
  19928160.504   -23503147.747 7 -18314114.70323        26.500           2.844
  22536491.527   -10082953.501 6  -7856836.00621        15.000           0.594
  20732006.184      -75858.937 6    -59116.60422        19.250           1.906
  22950023.160    -5392907.191 5  -4140249.36521         9.250           0.375
  21066051.504   -17234433.560 6 -13207902.73221        19.250           1.031
 91  5 21 19 53 44.9960000  0  5G 2G11G19G16G 6
  19922835.941   -23531129.045 7 -18335918.29623        26.250           2.938
  22539412.988   -10067603.351 6  -7844874.87921        15.000           0.719
  20734653.527      -61945.965 6    -48275.37022        19.500           1.813
  22952645.059    -5379113.323 5  -4129500.99421         9.250           0.344
  21058466.918   -17274294.504 6 -13238963.17921        19.000           1.125
 91  5 21 19 53 59.9960000  0  5G 2G11G19G16G 6
  19917526.629   -23559033.646 7 -18357662.12023        26.750           2.875
  22542358.504   -10052125.655 6  -7832814.36521        15.500           0.719
  20737310.762      -47977.505 6                        19.750
  22955289.668    -5365233.438 5                         9.000
  21050882.129   -17314134.886 6 -13270007.60421        18.750           1.063
 91  5 21 19 54 14.9960000  0  5G 2G11G19G16G 6
  19912230.371   -23586864.780 7 -18379348.70423        26.500           2.844
  22545328.590   -10036523.846 6  -7820657.13721        15.750           0.719
  20739978.457      -33956.804 6                        19.250
  22957941.106    -5351271.088 5                         8.250
  21043305.871   -17353957.831 6 -13301038.44721        19.000           1.063
 91  5 21 19 54 29.9960000  0  5G 2G11G19G16G 6
  19906949.629   -23614610.877 7 -18400969.02523        26.500           2.938
  22548320.746   -10020786.500 6  -7808394.29421        15.500           0.750
  20742659.621      -19872.344 6                        19.500
  22960621.824    -5337215.436 5                         8.750
  21035733.590   -17393751.728 6 -13332046.65121        19.000           1.188
 91  5 21 19 54 44.9960000  0  5G 2G11G19G16G 6
  19901685.309   -23642276.737 7 -18422526.81323        27.000           2.844
  22551341.606   -10004918.566 6  -7796029.69521        15.250           0.688
  20745351.785       -5728.756 6                        19.250
  22963315.121    -5323071.362 5                         8.750
  21028164.551   -17433521.186 6 -13363035.80521        19.000           1.094
 91  5 21 19 54 59.9960000  0  5G 2G11G19G16G 6
  19896435.027   -23669858.891 7 -18444019.38923        26.500           2.844
  22554387.754    -9988916.722 6  -7783560.75921        15.500           0.750
  20748055.645        8477.647 6                        19.250
  22966024.254    -5308835.322 5                         8.750
  21020602.582   -17473262.491 6 -13394003.03221        19.000           1.156
 91  5 21 19 55 14.9960000  0  5G 2G11G19G16G 6
  19891202.184   -23697366.557 7 -18465453.92023        26.500           2.844
  22557457.559    -9972790.659 6  -7770995.01421        16.500           0.688
  20750768.449       22737.349 6                        19.000
  22968745.449    -5294517.424 5                         8.500
  21013044.559   -17512984.809 6 -13424955.46521        19.000           1.125
 91  5 21 19 55 29.9960000  0  5G 2G11G19G16G 6
  19885982.910   -23724794.140 7 -18486826.04123        27.500           2.844
  22560549.559    -9956534.850 6  -7758328.16721        15.500           0.719
  20753492.723       37056.039 6     28868.75022        19.000           1.813
  22971487.551    -5280111.962 5                         8.250
  21005490.590   -17552682.574 6 -13455888.76521        19.250           1.031
 91  5 21 19 55 44.9960000  0  5G 2G11G19G16G 6
  19880779.512   -23752142.073 7 -18508136.10223        27.750           2.938
  22563665.285    -9940149.951 6  -7745560.75221        15.000           0.781
  20756230.559       51433.416 6     40071.85922        19.250           1.813
  22974246.332    -5265619.472 5  -4096971.97821         7.750           0.375
  20997940.887   -17592356.055 6 -13486803.13821        19.250           1.031
 91  5 21 19 55 59.9960000  0  5G 2G11G19G16G 6
  19875589.840   -23779409.594 7 -18529383.50123        27.500           2.875
  22566808.715    -9923635.447 6  -7732692.34221        15.000           0.656
  20758979.520       65870.249 6     51321.30022        18.250           1.844
  22977019.691    -5251039.802 5  -4085611.31521         8.000           0.250
  20990395.574   -17632004.237 6 -13517697.80821        19.250           1.125
 91  5 21 19 56 14.9960000  0  5G 2G11G19G16G 6
  19870417.160   -23806596.531 7 -18550568.10723        27.750           2.813
  22569977.121    -9906991.365 6  -7719722.95221        15.500           0.594
  20761735.402       80366.804 6     62617.27622        18.500           1.781
  22979810.957    -5236373.111 5  -4074182.80621         8.000           0.281
  20982856.590   -17671627.049 6 -13548572.69721        19.500           1.125
 91  5 21 19 56 29.9960000  0  5G 2G11G19G16G 6
  19865260.137   -23833696.492 7 -18571684.94723        27.500           2.844
  22573169.535    -9890211.561 6  -7706647.80621        16.000           0.531
  20764505.699       94929.346 6     73964.66922        19.250           1.750
  22982620.949    -5221613.195 5  -4062681.65621         7.500           0.375
  20975320.363   -17711217.890 6 -13579422.68121        19.250           1.156
 91  5 21 19 56 44.9960000  0  5G 2G11G19G16G 6
  19860116.801   -23860714.717 7 -18592738.09323        27.000           2.844
  22576389.824    -9873301.467 6  -7693471.13121        15.500           0.625
  20767287.996      109552.798 6     85359.52422        19.000           1.813
  22985446.606    -5206765.648 5  -4051112.23921         7.500           0.188
  20967793.356   -17750782.030 6 -13610251.84621        19.250           1.219
 91  5 21 19 56 59.9960000  0  5G 2G11G19G16G 6
  19854990.949   -23887658.118 7 -18613732.93223        27.500           2.750
  22579626.902    -9856268.235 6  -7680198.51621        14.750           0.625
  20770082.020      124230.413 6     96796.58722        19.000           1.719
  22988290.356    -5191837.432 5  -4039479.97221         8.250           0.250
  20960266.793   -17790325.858 6 -13641065.19821        19.250           1.156
 91  5 21 19 57 14.9960000  0  5G 2G11G19G16G 6
  19849880.129   -23914514.207 7 -18634659.73923        27.500           2.844
  22582896.520    -9839099.557 6  -7666820.35621        15.000           0.625
  20772886.645      138974.731 6    108285.63522        18.500           1.781
  22991145.801    -5176816.607 5  -4027775.51521         7.500           0.250
  20952748.090   -17829836.895 6 -13671852.98821        19.250           1.250
 91  5 21 19 57 29.9960000  0  5G 2G11G19G16G 6
  19844785.481   -23941287.986 7 -18655522.41423        27.250           2.875
  22586188.941    -9821800.812 6  -7653340.85421        15.250           0.688
  20775705.129      153780.777 6    119822.76922        19.000           1.906
  22994020.707    -5161708.634 5  -4016003.15721         7.750           0.188
  20945236.949   -17869320.145 6 -13702619.12921        19.750           1.219
 91  5 21 19 57 44.9960000  0  5G 2G11G19G16G 6
  19839705.652   -23967984.003 7 -18676324.48523        27.750           2.844
  22589502.941    -9804376.857 6  -7639763.76221        14.750           0.594
  20778534.340      168643.742 6    131404.26222        18.750           1.688
  22996910.410    -5146518.290 5  -4004166.63321         7.750           0.156
  20937725.316   -17908780.271 6 -13733367.25721        19.500           1.281
 91  5 21 19 57 59.9960000  0  5G 2G11G19G16G 6
  19834640.254   -23994605.483 7 -18697068.48023        27.500           2.844
  22592844.699    -9786830.832 6  -7626091.56421        14.750           0.625
  20781371.340      183560.803 6    143027.90522        19.000           1.719
  22999818.691    -5131249.029 5  -3992268.59621         8.000           0.250
  20930223.660   -17948220.107 7 -13764099.57121        20.000           1.250
 91  5 21 19 58 14.9960000  0  5G 2G11G19G16G 6
  19829588.473   -24021149.611 7 -18717752.20223        27.250           2.719
  22596205.035    -9769160.192 6  -7612322.25821        14.750           0.531
  20784221.316      198534.832 6    154695.94322        19.000           1.625
  23002738.574    -5115898.023 5  -3980306.87521         8.750           0.250
  20922719.301   -17987636.514 6 -13794813.63321        19.750           1.250
 91  5 21 19 58 29.9960000  0  5G 2G11G19G16G 6
  19824552.848   -24047613.055 8 -18738373.05523        28.000           2.875
  22599593.152    -9751361.878 6  -7598453.47721        14.750           0.563
  20787081.816      213569.000 6    166410.83622        18.500           1.688
  23005672.606    -5100462.514 5  -3968279.30121         8.500           0.156
  20915224.566   -18027026.227 6 -13825506.89421        19.750           1.250
 91  5 21 19 58 44.9960000  0  5G 2G11G19G16G 6
  19819533.020   -24073994.033 7 -18758929.64823        27.750           2.906
  22603001.559    -9733434.527 6  -7584484.14221        15.000           0.594
  20789954.582      228665.118 6    178174.00222        18.250           1.656
  23008629.582    -5084941.139 5  -3956184.80621         8.500           0.188
  20907734.606   -18066387.435 7 -13856177.94221        20.250           1.281
 91  5 21 19 58 59.9960000  0  5G 2G11G19G16G 6
  19814526.402   -24100294.239 7 -18779423.30023        27.250           2.781
  22606437.910    -9715380.052 6  -7570415.74721        14.750           0.531
  20792838.551      243821.633 6    189984.23222        18.500           1.719
  23011597.973    -5069335.844 5  -3944024.91921         8.000           0.219
  20900250.551   -18105721.778 7 -13886828.05421        20.500           1.219
 91  5 21 19 59 14.9960000  0  5G 2G11G19G16G 6
  19809538.481   -24126512.747 7 -18799853.28923        27.750           2.844
  22609897.371    -9697197.593 6  -7556247.63321        14.500           0.563
  20795734.395      259039.460 6    201842.24122        17.750           1.719
  23014586.543    -5053645.758 5  -3931798.99421         8.500           0.281
  20892769.918   -18145027.981 7 -13917456.24021        20.250           1.188
 91  5 21 19 59 29.9960000  0  5G 2G11G19G16G 6
  19804564.520   -24152651.139 8 -18820220.85723        28.000           2.813
  22613383.559    -9678889.060 6  -7541981.28221        14.250           0.563
  20798641.074      274316.986 6    213746.76222        18.000           1.688
  23017587.637    -5037873.057 5  -3919508.64721         8.750           0.125
  20885296.137   -18184307.672 7 -13948063.76021        20.500           1.219
 91  5 21 19 59 44.9960000  0  5G 2G11G19G16G 6
  19799604.246   -24178716.045 7 -18840531.15923        27.750           2.844
  22616890.613    -9660461.148 6  -7527621.91521        14.500           0.563
  20801560.113      289647.697 6    225692.73422        18.000           1.719
  23020601.074    -5022024.372 5  -3907159.12121         8.500           0.156
  20877825.481   -18223567.089 7 -13978655.48421        20.500           1.344
 91  5 21 19 59 59.9960000  0  5G 2G11G19G16G 6
  19794659.496   -24204699.059 8 -18860777.64523        28.000           2.844
  22620421.848    -9641905.771 6  -7513163.19721        14.750           0.594
  20804489.285      305040.117 6    237686.78822        18.000           1.625
  23023635.051    -5006091.698 5  -3894744.17021         8.750           0.188
  20870359.356   -18262797.873 7 -14009224.89321        20.250           1.281
 91  5 21 20  0 14.9960000  0  5G 2G11G19G16G 6
  19789729.668   -24230604.048 7 -18880963.33923        27.750           2.813
  22623974.395    -9623227.086 6  -7498608.41121        14.750           0.594
  20807427.731      320490.342 6    249725.88222        18.250           1.656
  23026680.473    -4990079.467 5  -3882267.21821         8.750           0.250
  20862899.449   -18302003.894 7 -14039775.01721        20.500           1.344
 91  5 21 20  0 29.9960000  0  5G 2G11G19G16G 6
  19784815.457   -24256428.677 7 -18901086.41323        27.750           2.969
  22627552.621    -9604422.866 6  -7483955.81121        13.750           0.594
  20810379.199      336000.842 6    261811.94122        18.250           1.625
  23029743.809    -4973985.517 5  -3869726.54521         8.750           0.281
  20855443.027   -18341182.473 7 -14070303.75921        20.750           1.438
 91  5 21 20  0 44.9960000  0  5G 2G11G19G16G 6
  19779916.707   -24282175.155 7 -18921148.59023        27.750           2.906
  22631155.863    -9585495.533 6  -7469207.28021        14.000           0.594
  20813340.582      351569.474 6    273943.30122        18.500           1.750
  23032820.426    -4957812.410 5  -3857124.23221         8.750           0.094
  20847992.762   -18380335.544 7 -14100812.61621        20.750           1.344
 91  5 21 20  0 59.9960000  0  5G 2G11G19G16G 6
  19775032.152   -24307838.412 7 -18941145.91623        27.500           2.750
  22634781.668    -9566440.420 6  -7454359.17521        14.250           0.625
  20816315.871      367201.343 6    286123.93422        18.750           1.594
  23035917.082    -4941555.325 5  -3844456.48021         9.000           0.313
  20840548.996   -18419458.137 7 -14131297.72521        20.750           1.406
 91  5 21 20  1 14.9960000  0  5G 2G11G19G16G 6
  19770163.824   -24333424.079 7 -18961082.78823        27.750           2.875
  22638430.645    -9547263.224 6  -7439415.92921        14.500           0.563
  20819301.809      382890.820 6    298349.45722        18.500           1.625
  23039025.168    -4925220.015 5  -3831727.75121         8.750           0.188
  20833106.606   -18458555.724 7 -14161763.36021        20.500           1.313
 91  5 21 20  1 29.9960000  0  5G 2G11G19G16G 6
  19765309.598   -24358930.627 7 -18980958.00123        27.500           2.875
  22642103.949    -9527962.798 6  -7424376.67821        14.750           0.656
  20822300.512      398639.577 6    310621.16822        18.500           1.625
  23042144.738    -4908805.350 5  -3818937.18821         8.750           0.219
  20825673.152   -18497626.549 7 -14192208.12722        20.750           1.563
 91  5 21 20  1 44.9960000  0  5G 2G11G19G16G 6
  19760471.707   -24384355.569 7 -19000769.63323        27.500           2.875
  22645802.738    -9508536.902 6  -7409239.64421        14.000           0.688
  20825307.301      414450.026 6    322940.95322        18.500           1.656
  23045285.856    -4892309.242 5  -3806083.19621         8.500           0.250
  20818243.684   -18536668.178 7 -14222630.15721        21.000           1.469
 91  5 21 20  1 59.9960000  0  5G 2G11G19G16G 6
  19755649.176   -24409704.862 7 -19020522.31423        27.750           2.781
  22649520.246    -9488991.785 6  -7394009.73621        14.000           0.500
  20828327.496      430316.230 6    335304.18122        18.000           1.531
  23048435.270    -4875737.945 5  -3793170.62821         8.500           0.125
  20810817.551   -18575686.323 7 -14253033.87821        20.500           1.438
 91  5 21 20  2 14.9960000  0  5G 2G11G19G16G 6
  19750839.949   -24434974.623 7 -19040213.02523        27.750           2.844
  22653263.215    -9469323.946 6  -7378684.18321        14.500           0.563
  20831356.488      446242.124 6    347713.92422        18.250           1.500
  23051609.832    -4859087.907 5  -3780196.65021         8.500           0.188
  20803399.559   -18614677.161 7 -14283416.33421        20.750           1.375
 91  5 21 20  2 29.9960000  0  5G 2G11G19G16G 6
  19746046.582   -24460158.539 8 -19059836.84723        28.000           2.781
  22657029.496    -9449527.180 6  -7363258.15921        14.250           0.594
  20834403.770      462234.081 6    360175.14022        17.250           1.531
  23054795.715    -4842352.957 5  -3767156.53021         9.000           0.188
  20795986.512   -18653634.189 7 -14313772.42921        20.500           1.438
 91  5 21 20  2 44.9960000  0  5G 2G11G19G16G 6
  19741269.652   -24485263.594 8 -19079399.21423        28.000           2.813
  22660821.324    -9429608.519 6  -7347737.15821        14.500           0.469
  20837453.332      478285.223 6    372682.47722        18.250           1.563
  23057997.910    -4825540.462 5  -3754055.98221         9.000           0.156
  20788578.340   -18692564.015 7 -14344107.34121        20.750           1.375
 91  5 21 20  2 59.9960000  0  5G 2G11G19G16G 6
  19736508.074   -24510291.845 8 -19098901.73823        28.000           2.875
  22664634.754    -9409570.374 6  -7332123.06321        14.250           0.469
  20840521.777      494393.623 6    385234.42822        18.000           1.563
  23061205.793    -4808652.828 5  -3740896.89521         8.500           0.219
  20781173.957   -18731468.515 7 -14374422.50722        20.500           1.500
 91  5 21 20  3 14.9960000  0  5G 2G11G19G16G 6
  19731760.379   -24535236.182 8 -19118338.87123        28.000           2.719
  22668472.426    -9389405.962 6  -7316410.58721        14.500           0.625
  20843596.434      510566.206 6    397836.39122        18.000           1.500
  23064438.246    -4791683.423 5  -3727674.09821         8.750           0.281
  20773778.301   -18770340.680 7 -14404712.48021        20.500           1.469
 91  5 21 20  3 29.9960000  0  5G 2G11G19G16G 6
  19727027.324   -24560108.977 8 -19137720.25623        28.000           2.750
  22672328.340    -9369127.707 6  -7300609.38921        14.750           0.563
  20846691.168      526790.808 6    410478.88922        17.000           1.500
  23067676.520    -4774644.778 5  -3714397.31821         8.750           0.250
  20766382.895   -18809192.622 7 -14434986.69621        20.250           1.438
 91  5 21 20  3 44.9960000  0  5G 2G11G19G16G 6
  19722309.574   -24584898.841 7 -19157037.02723        27.750           2.875
  22676214.160    -9348724.700 6  -7284710.98521        15.000           0.438
  20849784.809      543078.824 6    423170.80022        18.500           1.500
  23070935.582    -4757525.750 5  -3701057.94121         8.250           0.219
  20758996.254   -18848012.902 7 -14465236.24022        20.000           1.563
 91  5 21 20  3 59.9960000  0  5G 2G11G19G16G 6
  19717607.965   -24609612.738 8 -19176294.59823        28.000           2.813
  22680119.246    -9328203.914 6  -7268720.80421        15.000           0.531
  20852898.660      559423.507 6    435906.86221        17.250           1.469
  23074205.238    -4740333.449 5  -3687661.42521         8.000           0.250
  20751611.613   -18886808.143 7 -14495466.27921        20.250           1.406
 91  5 21 20  4 14.9960000  0  5G 2G11G19G16G 6
  19712920.871   -24634244.216 8 -19195487.94723        28.500           2.844
  22684043.824    -9307559.098 6  -7252633.98021        14.000           0.531
  20856017.973      575831.248 6    448692.06621        18.500           1.469
  23077495.895    -4723061.740 5  -3674203.06921         8.500           0.250
  20744234.238   -18925571.787 7 -14525671.69121        20.000           1.375
 91  5 21 20  4 29.9960000  0  5G 2G11G19G16G 6
  19708245.574   -24658802.691 8 -19214624.40623        28.000           2.813
  22687994.809    -9286800.182 6  -7236458.24721        14.750           0.563
  20859156.324      592292.392 6    461518.88322        17.250           1.500
  23080794.496    -4705720.459 5  -3660690.50121         8.000           0.250
  20736864.488   -18964313.302 7 -14555859.86422        20.250           1.594
 91  5 21 20  4 44.9960000  0  5G 2G11G19G16G 6
  19703588.949   -24683279.042 8 -19233696.87923        28.250           2.813
  22691970.723    -9265918.202 6  -7220186.62121        14.750           0.594
  20862295.223      608816.366 6    474394.65421        18.250           1.469
  23084107.238    -4688300.929 5  -3647116.93521         8.000           0.250
  20729498.660   -19003023.288 7 -14586023.47222        20.000           1.531
 91  5 21 20  4 59.9960000  0  5G 2G11G19G16G 6
  19698944.285   -24707680.606 8 -19252711.07223        28.250           2.844
  22695966.473    -9244920.662 6  -7203824.95421        15.250           0.656
  20865451.863      625395.830 6    487313.66921        17.500           1.438
  23087436.145    -4670810.846 4  -3633488.40921         7.250           0.188
  20722135.613   -19041708.999 7 -14616168.16822        20.250           1.656
 91  5 21 20  5 14.9960000  0  5G 2G11G19G16G 6
  19694317.879   -24732004.372 8 -19271664.64323        28.000           2.906
  22699985.840    -9223804.779 6  -7187371.06221        15.000           0.531
  20868614.887      642033.763 6    500278.24021        18.000           1.469
  23090779.387    -4653247.120 4  -3619802.49921         7.250           0.250
  20714777.988   -19080367.184 6 -14646291.40621        19.500           1.438
 91  5 21 20  5 29.9960000  0  5G 2G11G19G16G 6
  19689702.402   -24756252.241 8 -19290559.07423        28.000           2.906
  22704025.988    -9202572.859 6  -7170826.75221        14.750           0.594
  20871795.856      658728.435 6    513287.02522        17.000           1.531
  23094134.215    -4635612.120 5  -3606061.05921         7.500           0.250
  20707427.316   -19118999.668 6 -14676394.61521        19.750           1.469
 91  5 21 20  5 44.9960000  0  5G 2G11G19G16G 6
  19685102.496   -24780420.324 7 -19309391.33623        27.500           2.844
  22708086.285    -9181221.288 6  -7154189.22021        14.500           0.563
  20874980.856      675483.692 6    526343.02322        18.000           1.531
  23097506.613    -4617902.581 5  -3592261.54521         7.750           0.250
  20700081.098   -19157602.464 7 -14706474.69621        20.250           1.438
 91  5 21 20  5 59.9960000  0  5G 2G11G19G16G 6
  19680519.332   -24804510.952 7 -19328163.24723        27.750           2.813
  22712171.277    -9159752.398 6  -7137460.26021        14.500           0.656
  20878182.051      692297.561 6    539444.68321        17.750           1.469
  23100885.887    -4600120.859 5  -3578405.76321         7.750           0.250
  20692742.691   -19196177.453 7 -14736533.11021        20.250           1.375
 91  5 21 20  6 14.9960000  0  5G 2G11G19G16G 6
  19675950.637   -24828520.170 8 -19346871.71723        28.000           2.844
  22716282.660    -9138162.763 6  -7120637.20621        15.250           0.625
  20881391.340      709173.770 6    552594.92321        18.250           1.375
  23104292.934    -4582263.589 5  -3564491.14621         7.750           0.156
  20685407.816   -19234720.785 7 -14766566.85721        20.000           1.375
 91  5 21 20  6 29.9960000  0  5G 2G11G19G16G 6
  19671395.824   -24852451.912 8 -19365519.82423        28.000           3.000
  22720413.723    -9116456.641 6  -7103723.40721        15.000           0.469
  20884615.121      726108.463 6    565790.74221        17.750           1.344
  23107698.824    -4564334.891 5  -3550520.83721         7.500           0.219
  20678078.020   -19273236.457 7 -14796579.04821        20.500           1.375
 91  5 21 20  6 44.9960000  0  5G 2G11G19G16G 6
  19666855.293   -24876310.378 7 -19384110.82823        27.750           2.906
  22724562.973    -9094638.225 6  -7086722.10521        14.000           0.594
  20887848.481      743097.493 6    579028.89421        18.000           1.344
  23111124.762    -4546339.114 4  -3536498.26421         6.750           0.281
  20670753.434   -19311728.066 7 -14826572.49621        20.750           1.469
 91  5 21 20  6 59.9960000  0  4G 2G11G19G 6
  19662332.168   -24900093.159 8 -19402642.85423        28.000           2.906
  22728737.332    -9072705.265 6  -7069631.54021        14.000           0.594
  20891094.168      760143.463 6    592311.41521        17.500           1.313
  20663432.066   -19350193.137 7 -14856545.26121        20.500           1.406
 91  5 21 20  7 14.9960000  0  4G 2G11G19G 6
  19657820.551   -24923792.159 8 -19421109.60023        28.250           2.969
  22732934.582    -9050649.995 6  -7052445.66621        14.000           0.469
  20894346.809      777254.432 6    605644.58921        18.000           1.344
  20656120.363   -19388623.510 7 -14886490.98821        20.750           1.438
 91  5 21 20  7 29.9960000  0  4G 2G11G19G 6
  19653325.668   -24947413.866 8 -19439516.11323        28.250           2.969
  22737154.816    -9028479.285 6  -7035169.83221        13.750           0.469
  20897616.145      794423.802 6    619023.26221        17.250           1.469
  20648812.012   -19427025.590 7 -14916414.66622        21.000           1.500
 91  5 21 20  7 44.9960000  0  4G 2G11G19G 6
  19648846.043   -24970959.698 8 -19457863.50923        28.250           2.844
  22741395.738    -9006194.827 6  -7017805.37921        14.000           0.500
  20900893.277      811650.230 6    632446.39521        18.000           1.375
  20641509.613   -19465400.819 7 -14946317.43122        20.750           1.531
 91  5 21 20  7 59.9960000  0  4G 2G11G19G 6
  19644378.926   -24994428.150 8 -19476150.60323        28.000           2.969
  22745656.762    -8983795.330 6  -7000351.26821        13.500           0.469
  20904184.934      828935.265 6    645915.20521        17.250           1.344
  20634214.660   -19503747.169 7 -14976197.68821        21.000           1.469
 91  5 21 20  8 14.9960000  0  4G 2G11G19G 6
  19639927.668   -25017819.787 8 -19494377.84323        28.000           2.875
  22749942.184    -8961281.582 6  -6982808.15721        13.500           0.500
  20907483.207      846278.474 6    659429.33921        18.000           1.406
  20626923.637   -19542065.191 7 -15006055.87321        21.000           1.438
 91  5 21 20  8 29.9960000  0  4G 2G11G19G 6
  19635490.902   -25041131.620 7 -19512542.90123        27.750           3.000
  22754246.856    -8938650.910 6  -6965173.92021        13.500           0.563
  20910799.981      863682.938 6    672991.21121        16.750           1.375
  20619635.957   -19580351.692 7 -15035889.49221        20.750           1.406
 91  5 21 20  8 44.9960000  0  4G 2G11G19G 6
  19631070.574   -25064365.807 8 -19530647.45023        28.000           3.031
  22758576.785    -8915905.655 6  -6947450.40521        13.500           0.469
  20914116.770      881146.585 6    686599.20121        17.500           1.313
  20612354.793   -19618608.708 7 -15065700.13422        20.500           1.500
 91  5 21 20  8 59.9960000  0  4G 2G11G19G 6
  19626663.324   -25087526.786 8 -19548694.96523        28.500           3.063
  22762926.106    -8893050.611 6  -6929641.32621        13.250           0.531
  20917452.777      898664.825 6    700249.71921        17.250           1.344
  20605079.410   -19656840.593 7 -15095491.19421        20.750           1.344
 91  5 21 20  9 14.9960000  0  4G 2G11G19G 6
  19622270.793   -25110606.276 8 -19566678.97123        28.250           3.063
  22767297.402    -8870077.495 6  -6911740.25421        12.750           0.438
  20920797.637      916246.131 6    713949.39121        17.750           1.313
  20597812.699   -19695038.638 7 -15125255.89321        21.000           1.469
 91  5 21 20  9 29.9960000  0  4G 2G11G19G 6
  19617893.145   -25133607.055 8 -19584601.65523        28.250           3.031
  22771688.902    -8846989.423 6  -6893749.60021        12.750           0.438
  20924155.395      933887.649 6    727695.98121        17.250           1.281
  20590550.277   -19733205.614 7 -15154996.37721        21.500           1.406
 91  5 21 20  9 44.9960000  0  4G 2G11G19G 6
  19613530.043   -25156535.802 8 -19602468.20923        28.000           3.125
  22776103.168    -8823793.319 6  -6875674.77021        12.500           0.469
  20927521.473      951583.044 6    741484.54921        17.500           1.250
  20583290.551   -19771347.917 7 -15184717.62421        21.250           1.344
 91  5 21 20  9 59.9960000  0  4G 2G11G19G 6
  19609183.152   -25179387.137 7 -19620274.43323        27.750           3.000
  22780541.895    -8800484.048 6  -6857511.76621        12.750           0.531
  20930901.738      969337.654 6    755319.26121        17.000           1.344
  20576037.504   -19809460.044 7 -15214415.36921        21.750           1.469
 91  5 21 20 10 14.9960000  0  4G 2G11G19G 6
  19604846.645   -25202165.303 7 -19638023.64623        27.500           3.031
  22784997.043    -8777066.309 6  -6839264.23321        13.000           0.438
  20934289.543      987147.059 6    769196.66621        17.500           1.188
  20568791.348   -19847546.232 7 -15244092.89921        21.750           1.375
 91  5 21 20 10 29.9960000  0  4G 2G11G19G 6
  19600527.637   -25224866.729 7 -19655713.06023        27.500           3.031
  22789473.481    -8753536.719 6  -6820929.54521        12.750           0.406
  20937691.074     1005014.864 6    783119.57921        17.000           1.250
  20561547.777   -19885602.676 7 -15273747.25021        21.750           1.375
 91  5 21 20 10 44.9960000  0  4G 2G11G19G 6
  19596220.691   -25247499.414 7 -19673348.91323        27.750           3.094
  22793968.277    -8729903.431 6  -6802514.04821        12.500           0.469
  20941099.832     1022933.168 6    797081.84821        17.500           1.250
  20554311.988   -19923637.220 7 -15303384.53921        21.750           1.469
 91  5 21 20 10 59.9960000  0  4G 2G11G19G 6
  19591928.176   -25270056.516 7 -19690925.86523        27.500           3.031
  22798490.074    -8706160.116 6  -6784012.82121        13.000           0.375
  20944520.090     1040908.690 6    811088.70621        16.750           1.250
  20547079.731   -19961643.007 7 -15332999.41821        22.000           1.469
 91  5 21 20 11 14.9960000  0  4G 2G11G19G 6
  19587651.496   -25292534.199 7 -19708440.94023        27.250           3.063
  22803027.996    -8682303.106 6  -6765422.99121        12.750           0.469
  20947952.512     1058945.700 6    825143.46521        17.000           1.250
  20539852.106   -19999615.878 7 -15362588.64621        21.750           1.438
 91  5 21 20 11 29.9960000  0  4G 2G11G19G 6
  19583387.895   -25314937.392 7 -19725897.96623        27.250           3.156
  22807588.996    -8658337.516 6  -6746748.55921        13.250           0.531
  20951397.051     1077039.243 6    839242.27921        16.750           1.156
  20532631.246   -20037560.570 7 -15392155.92021        21.750           1.469
 91  5 21 20 11 44.9960000  0  4G 2G11G19G 6
  19579139.762   -25337266.147 7 -19743296.98723        27.750           3.125
  22812169.215    -8634263.682 6  -6727989.79421        13.000           0.531
  20954849.504     1095189.299 6    853385.14021        17.000           1.313
  20525418.871   -20075476.914 7 -15421701.10021        22.250           1.438
 91  5 21 20 11 59.9960000  0  4G 2G11G19G 6
  19574905.441   -25359518.258 8 -19760636.28423        28.000           3.125
  22816772.871    -8610079.586 6  -6709145.10121        13.000           0.313
  20958316.465     1113398.166 6    867573.81621        16.750           1.281
  20518209.363   -20113362.575 7 -15451222.38522        22.000           1.594
 91  5 21 20 12 14.9960000  0  4G 2G11G19G 6
  19570684.316   -25381692.494 7 -19777914.90423        27.750           3.125
  22821394.160    -8585784.148 6  -6690213.65021        13.000           0.375
  20961791.168     1131667.046 6    881809.26821        17.000           1.188
  20511005.379   -20151216.100 7 -15480718.62222        21.750           1.531
 91  5 21 20 12 29.9960000  0  4G 2G11G19G 6
  19566481.535   -25403787.088 8 -19795131.46223        28.000           3.094
  22826040.379    -8561375.882 6  -6671194.26721        13.500           0.469
  20965281.262     1149997.932 6    896093.03321        17.250           1.250
  20503806.121   -20189035.497 7 -15510188.27022        21.500           1.500
 91  5 21 20 12 44.9960000  0  4G 2G11G19G 6
  19562291.395   -25425802.574 7 -19812286.38223        27.500           3.094
  22830707.731    -8536855.769 6  -6652087.72421        14.250           0.406
  20968780.356     1168390.216 6    910424.63921        17.250           1.344
  20496616.207   -20226821.317 7 -15539631.74222        21.750           1.563
 91  5 21 20 12 59.9960000  0  4G 2G11G19G 6
  19558116.121   -25447743.883 8 -19829383.49823        28.000           3.125
  22835392.949    -8512229.018 6  -6632898.10721        13.750           0.469
  20972291.606     1186838.781 6    924800.10021        17.250           1.219
  20489431.020   -20264578.267 7 -15569052.72522        21.500           1.563
 91  5 21 20 13 14.9960000  0  4G 2G11G19G 6
  19553956.301   -25469607.063 8 -19846419.73623        28.500           3.063
  22840099.082    -8487491.694 6  -6613622.31921        13.000           0.438
  20975813.246     1205347.937 6    939222.77921        17.250           1.219
  20482252.082   -20302302.014 7 -15598447.83722        21.250           1.594
 91  5 21 20 13 29.9960000  0  4G 2G11G19G 6
  19549809.934   -25491395.470 8 -19863397.70923        28.250           3.094
  22844825.856    -8462647.662 6  -6594263.40421        13.250           0.563
  20979345.246     1223914.214 6    953689.96121        17.000           1.281
  20475081.676   -20339995.994 7 -15627819.75822        22.000           1.625
 91  5 21 20 13 44.9960000  0  4G 2G11G19G 6
  19545677.973   -25513110.674 8 -19880318.63823        28.500           3.063
  22849575.418    -8437698.755 6  -6574822.75421        12.750           0.469
  20982888.551     1242535.999 6    968200.40121        17.250           1.156
  20467911.871   -20377661.547 7 -15657169.52521        21.750           1.469
 91  5 21 20 13 59.9960000  0  4G 2G11G19G 6
  19541559.059   -25534749.866 8 -19897180.34023        28.500           3.094
  22854345.754    -8412642.555 6  -6555298.51121        13.250           0.563
  20986444.270     1261216.062 6    982756.24821        17.000           1.281
  20460750.402   -20415295.811 7 -15686494.91222        21.750           1.594
 91  5 21 20 14 14.9960000  0  4G 2G11G19G 6
  19537458.395   -25556302.708 8 -19913974.75423        28.750           3.188
  22859134.559    -8387468.870 6  -6535682.69321        13.000           0.469
  20990010.863     1279964.905 6    997365.70221        16.750           1.313
  20453597.254   -20452888.205 7 -15715787.66922        21.500           1.625
 91  5 21 20 14 29.9960000  0  4G 2G11G19G 6
  19533371.598   -25577775.535 8 -19930706.81923        28.500           3.156
  22863947.754    -8362184.178 6  -6515980.39321        13.500           0.406
  20993591.566     1298776.476 6   1012024.02221        16.250           1.313
  20446452.848   -20490444.808 7 -15745052.53722        22.000           1.719
 91  5 21 20 14 44.9960000  0  4G 2G11G19G 6
  19529300.816   -25599172.901 8 -19947380.08023        28.750           3.156
  22868778.793    -8336793.259 6  -6496195.30621        12.250           0.438
  20997181.231     1317646.227 6   1026727.67921        17.000           1.250
  20439310.184   -20527969.855 7 -15774292.81722        22.000           1.688
 91  5 21 20 14 59.9960000  0  4G 2G11G19G 6
  19525243.027   -25620488.803 8 -19963989.86923        28.750           3.063
  22873631.832    -8311290.415 6  -6476323.02921        12.000           0.563
  21000788.926     1336580.124 6   1041481.32421        16.250           1.219
  20432175.902   -20565457.229 7 -15803503.73722        21.750           1.750
 91  5 21 20 15 14.9960000  0  4G 2G11G19G 6
  19521201.184   -25641731.453 8 -19980542.57623        28.750           3.094
  22878504.809    -8285684.332 6  -6456370.30521        12.000           0.438
  21004397.270     1355569.988 6   1056278.57921        17.250           1.156
  20425048.145   -20602915.075 7 -15832691.65722        21.750           1.781
 91  5 21 20 15 29.9960000  0  4G 2G11G19G 6
  19517174.707   -25662893.405 8 -19997032.39623        29.000           3.156
  22883397.449    -8259967.726 6  -6436331.45921        12.750           0.469
  21008027.059     1374623.444 6   1071125.38221        17.000           1.219
  20417927.566   -20640335.659 7 -15861850.53922        21.250           1.719
 91  5 21 20 15 44.9960000  0  4G 2G11G19G 6
  19513163.504   -25683976.977 8 -20013461.14523        28.750           3.094
  22888310.863    -8234143.110 6  -6416208.43321        12.000           0.469
  21011663.098     1393738.049 6   1086019.83621        17.000           1.344
  20410811.910   -20677721.156 7 -15890982.08122        21.750           1.594
 91  5 21 20 15 59.9960000  0  4G 2G11G19G 6
  19509164.379   -25704984.000 8 -20029830.24223        28.500           3.125
  22893245.121    -8208212.621 6  -6396002.91721        12.000           0.500
  21015317.332     1412911.976 6   1100960.51221        15.750           1.156
  20403704.004   -20715073.174 7 -15920087.53722        21.750           1.781
 91  5 21 20 16 14.9960000  0  4G 2G11G19G 6
  19505182.309   -25725911.416 8 -20046137.31123        28.500           3.063
  22898201.231    -8182173.581 5  -6375712.80921        11.000           0.406
  21018971.988     1432148.313 6   1115949.82621        17.750           1.156
  20396606.168   -20752388.580 7 -15949164.46522        22.000           1.781
 91  5 21 20 16 29.9960000  0  4G 2G11G19G 6
  19501215.356   -25746762.019 8 -20062384.52523        28.500           3.094
  22903176.856    -8156028.994 5  -6355340.48521        11.500           0.438
  21022647.871     1451444.410 6   1130985.70121        15.750           1.188
  20389508.793   -20789669.946 7 -15978214.86922        22.250           1.938
 91  5 21 20 16 44.9960000  0  4G 2G11G19G 6
  19497262.238   -25767533.582 8 -20078570.14823        28.250           3.000
  22908171.207    -8129776.920 5  -6334884.37021        11.250           0.406
  21026326.496     1470802.375 6   1146069.78121        17.000           1.250
  20382422.598   -20826914.952 7 -16007236.93622        22.250           1.813
 91  5 21 20 16 59.9960000  0  4G 2G11G19G 6
  19493323.340   -25788225.246 8 -20094693.51323        28.250           3.031
  22913187.699    -8103416.596 5  -6314343.93221        11.500           0.469
  21030029.660     1490223.244 6   1161202.88021        16.000           1.250
  20375343.668   -20864122.310 7 -16036229.67122        22.000           1.906
 91  5 21 20 17 14.9960000  0  4G 2G11G19G 6
  19489399.941   -25808846.512 8 -20110762.02123        28.500           3.063
  22918223.449    -8076957.954 6  -6293726.86021        12.000           0.469
  21033729.981     1509697.731 6   1176377.75921        16.750           1.188
  20368266.504   -20901301.490 7 -16065200.44222        22.000           1.875
 91  5 21 20 17 29.9960000  0  4G 2G11G19G 6
  19485491.473   -25829389.636 8 -20126769.63723        28.750           3.063
  22923279.996    -8050393.572 5  -6273027.39321        11.750           0.313
  21037449.449     1529233.491 6   1191600.38121        16.000           1.188
  20361197.652   -20938444.522 7 -16094143.05622        22.000           1.969
 91  5 21 20 17 44.9960000  0  4G 2G11G19G 6
  19481595.418   -25849863.531 8 -20142723.30923        28.500           2.938
  22928353.059    -8023732.646 5  -6252252.70021        11.000           0.281
  21041173.004     1548821.505 6   1206863.72421        17.250           1.250
  20354135.473   -20975560.238 7 -16123064.37822        22.250           1.938
 91  5 21 20 17 59.9960000  0  4G 2G11G19G 6
  19477713.957   -25870255.418 8 -20158613.08523        28.250           2.938
  22933447.574    -7996962.567 5  -6231392.96821        10.750           0.313
  21044918.559     1568474.849 6   1222177.96821        16.250           1.219
  20347081.059   -21012635.592 7 -16151954.25622        22.500           1.906
 91  5 21 20 18 14.9960000  0  4G 2G11G19G 6
  19473848.152   -25890570.256 8 -20174442.82123        28.750           2.938
  22938560.137    -7970088.435 5  -6210452.13621        11.250           0.344
  21048665.238     1588188.786 6   1237539.42321        16.750           1.156
  20340033.441   -21049675.147 7 -16180816.23422        22.250           1.969
 91  5 21 20 18 29.9960000  0  4G 2G11G19G 6
  19469995.918   -25910812.886 8 -20190216.29023        28.750           2.969
  22943693.996    -7943115.361 5  -6189434.21621        11.500           0.406
  21052430.379     1607958.182 6   1252944.10021        16.000           1.188
  20332990.598   -21086683.727 7 -16209654.08322        22.250           1.938
 91  5 21 20 18 44.9960000  0  4G 2G11G19G 6
  19466158.426   -25930979.903 8 -20205930.84023        28.250           3.094
  22948844.027    -7916040.404 5  -6168336.89521        11.750           0.344
  21056200.051     1627786.361 6   1268394.58321        16.500           1.219
  20325955.856   -21123657.800 7 -16238465.04022        22.750           1.906
 91  5 21 20 18 59.9960000  0  4G 2G11G19G 6
  19462335.801   -25951069.755 8 -20221585.26223        28.750           2.938
  22954016.887    -7888862.127 5  -6147159.08321        11.250           0.344
  21059987.309     1647675.212 6   1283892.34421        16.000           1.156
  20318924.481   -21160595.465 7 -16267247.62422        22.250           1.938
 91  5 21 20 19 14.9960000  0  4G 2G11G19G 6
  19458528.137   -25971087.132 8 -20237183.20723        29.000           3.063
  22959209.137    -7861585.678 5  -6125904.76721        11.750           0.313
  21063780.629     1667619.882 6   1299433.59021        16.250           1.219
  20311901.699   -21197501.290 7 -16296005.40022        22.500           1.938
 91  5 21 20 19 29.9960000  0  4G 2G11G19G 6
  19454732.637   -25991028.911 8 -20252722.25023        28.500           2.938
  22964416.395    -7834208.139 5  -6104571.67821        11.750           0.313
  21067589.441     1687623.502 6   1315020.77921        15.750           1.094
  20304885.918   -21234371.950 7 -16324735.76722        22.750           2.000
 91  5 21 20 19 44.9960000  0  4G 2G11G19G 6
  19450951.957   -26010890.323 7 -20268198.66823        27.750           2.906
  22969647.645    -7806725.034 6  -6083156.32121        12.000           0.281
  21071406.293     1707690.914 6   1330657.66621        16.750           1.094
  20297877.637   -21271202.582 7 -16353434.94522        23.000           2.031
 91  5 21 20 19 59.9960000  0  4G 2G11G19G 6
  19447187.887   -26030676.612 8 -20283616.54723        28.000           2.969
  22974898.309    -7779141.832 6  -6061662.97721        12.250           0.281
  21075236.754     1727817.054 6   1346340.32521        15.750           1.156
  20290875.668   -21307998.074 7 -16382106.74522        23.000           2.094
 91  5 21 20 20 14.9960000  0  4G 2G11G19G 6
  19443435.957   -26050388.309 7 -20298976.30423        27.750           3.031
  22980163.418    -7751459.348 6  -6040092.25021        12.250           0.250
  21079075.988     1748001.422 6   1362068.35321        16.750           1.188
  20283881.309   -21344758.845 7 -16410751.48722        23.250           1.906
 91  5 21 20 20 29.9960000  0  4G 2G11G19G 6
  19439699.863   -26070015.709 8 -20314270.37323        28.000           2.875
  22985455.621    -7723668.180 6  -6018436.85121        12.000           0.281
  21082932.731     1768253.834 6   1377849.40421        16.000           1.219
  20276894.387   -21381474.922 7 -16439361.40422        23.500           1.938
 91  5 21 20 20 44.9960000  0  4G 2G11G19G 6
  19435981.035   -26089564.908 7 -20329503.50623        27.750           3.031
  22990762.043    -7695774.777 6  -5996701.77921        12.250           0.313
  21086797.059     1788568.251 6   1393678.76621        16.500           1.344
  20269914.566   -21418152.277 7 -16467941.14622        23.250           1.906
 91  5 21 20 20 59.9960000  0  4G 2G11G19G 6
  19432273.856   -26109041.957 7 -20344680.41923        27.750           2.938
  22996087.910    -7667785.312 6  -5974891.86621        12.250           0.406
  21090676.981     1808938.555 6   1409551.67321        15.000           1.250
  20262942.449   -21454796.656 7 -16496495.20022        23.500           1.938
 91  5 21 20 21 14.9960000  0  4G 2G11G19G 6
  19428582.418   -26128444.316 8 -20359799.13723        28.000           3.000
  23001432.449    -7639697.745 6  -5953005.51021        12.250           0.344
  21094561.645     1829367.065 6   1425469.95121        16.500           1.313
  20255973.246   -21491405.575 7 -16525021.61222        23.250           2.000
 91  5 21 20 21 29.9960000  0  4G 2G11G19G 6
  19424906.152   -26147772.716 8 -20374860.21923        28.500           3.000
  23006796.770    -7611512.861 6  -5931043.32121        12.750           0.313
  21098460.449     1849853.690 6   1441433.49621        15.250           1.250
  20249013.332   -21527979.225 7 -16553520.54622        23.000           1.969
 91  5 21 20 21 44.9960000  0  4G 2G11G19G 6
  19421240.387   -26167028.283 8 -20389864.55323        28.500           3.031
  23012178.160    -7583232.139 6  -5909006.43321        12.500           0.406
  21102366.543     1870397.190 6   1457441.36221        15.750           1.125
  20242063.574   -21564518.756 7 -16581992.89922        23.500           1.938
 91  5 21 20 21 59.9960000  0  4G 2G11G19G 6
  19417591.074   -26186207.127 8 -20404809.10123        28.250           2.875
  23017578.793    -7554851.919 5  -5886892.03821        11.500           0.406
  21106292.316     1891001.482 6   1473496.59921        16.000           1.250
  20235116.066   -21601019.963 7 -16610435.38022        23.250           1.938
